GFSGL_sfc_temp_003.txt.gz
Temp
55 55 54 54 51 49 47 46 46 45 45 45 45 44 43 42 41 39 38 38 38 38 38 38 39 41 40 40 40 40 39 38 34 40 40 42 43 43 46 49 50 49 47
53 52 50 50 51 47 46 46 45 45 45 44 43 42 42 41 39 38 37 38 37 36 36 36 36 42 37 40 41 41 41 41 38 34 35 38 39 42 43 45 51 54 49
52 51 49 51 48 46 46 45 45 44 43 43 42 41 41 40 39 38 37 36 35 35 34 34 35 35 34 36 36 34 35 39 34 34 31 35 37 40 40 42 46 46 51
51 49 48 47 48 45 46 45 45 45 43 42 42 42 41 40 38 37 36 33 32 33 33 33 34 34 34 33 36 34 36 31 31 29 31 32 33 37 38 35 36 40 40
52 50 47 47 46 44 43 45 45 44 42 42 41 40 39 39 38 32 32 30 30 30 31 33 34 35 39 38 37 34 31 29 29 29 27 28 28 30 31 32 30 32 35
50 50 52 44 43 43 45 43 43 42 41 40 39 38 36 39 34 34 31 28 30 29 28 30 31 34 35 37 35 35 34 29 27 26 26 25 25 27 29 28 29 27 27
49 50 45 44 43 43 43 43 43 41 38 37 36 36 35 31 34 34 34 29 28 27 27 28 30 34 32 33 34 34 33 34 34 28 26 26 26 28 28 26 26 26 25
45 46 45 43 42 43 43 43 41 40 37 35 34 34 33 35 35 36 33 27 27 28 29 30 29 29 30 31 30 29 29 29 30 31 28 29 29 30 30 31 29 28 27
43 43 43 42 42 42 41 41 40 37 34 34 34 32 31 31 36 34 31 26 27 27 30 30 30 29 32 33 29 27 27 28 34 35 36 34 32 34 34 31 27 25 23
43 42 42 41 41 40 40 39 36 36 36 33 32 32 33 29 34 34 31 24 22 24 26 28 30 30 30 29 27 24 22 25 27 27 27 29 31 32 34 32 30 27 25
43 43 42 41 40 40 39 38 36 33 31 28 29 29 30 30 29 31 31 24 24 24 24 25 27 29 30 30 30 26 24 27 27 25 25 25 27 29 30 31 31 29 27
42 41 40 40 41 43 37 36 35 30 29 25 21 21 24 25 31 29 30 29 29 22 23 25 25 29 29 29 28 29 29 27 22 22 23 24 25 26 29 31 32 32 33
39 38 38 40 41 40 37 33 31 28 24 23 24 17 20 23 21 28 28 28 28 24 24 25 27 27 27 26 27 28 26 26 25 23 23 24 26 28 30 29 30 31 32
36 36 36 34 35 36 36 32 29 22 21 25 22 19 17 19 17 20 22 21 25 25 24 24 24 25 24 25 25 25 25 24 24 23 23 25 27 27 27 28 27 28 28
35 35 32 30 31 32 33 30 27 28 27 21 19 20 8 7 16 28 27 25 24 24 23 20 21 22 21 22 23 23 23 24 22 22 23 24 25 26 26 27 28 27 27
32 29 28 28 27 30 30 28 33 33 33 32 30 21 14 25 29 30 30 30 29 27 22 19 18 18 18 20 19 20 21 22 22 22 22 24 24 24 25 27 26 25 24
31 31 27 28 26 25 24 24 20 28 34 33 31 31 29 29 30 30 29 28 28 25 18 17 15 15 16 19 18 18 18 21 22 21 22 22 23 24 24 23 22 21 22
31 29 25 24 23 24 29 31 29 27 25 27 29 29 29 30 31 29 28 25 14 19 17 17 15 15 16 18 18 18 18 20 19 20 20 20 22 22 20 22 21 20 23
31 26 22 20 20 26 29 28 27 27 27 26 24 24 23 30 31 30 28 10 8 10 16 18 17 15 16 17 15 15 14 16 16 16 17 19 20 22 22 18 20 20 18
28 25 24 22 22 29 28 27 27 27 27 26 24 18 19 15 8 7 6 3 4 7 7 15 17 17 14 15 13 12 15 15 14 15 15 16 18 21 21 20 19 20 17
24 23 23 22 24 28 28 27 27 27 27 26 23 15 15 13 9 9 9 5 5 6 5 8 12 12 12 12 16 13 12 10 12 12 13 14 15 17 20 22 17 17 21
28 25 25 24 28 27 28 27 27 26 26 26 25 17 14 8 11 15 11 8 6 7 7 7 8 12 13 13 13 10 11 7 8 11 12 13 14 16 16 17 19 11 13
20 19 24 28 25 20 24 27 27 27 27 27 27 23 20 18 16 15 13 9 8 7 6 6 4 7 11 11 11 11 10 10 11 11 11 12 14 15 12 11 11 12 8
17 17 22 27 18 18 20 27 27 27 27 26 26 27 20 20 16 13 13 11 8 6 4 5 6 8 9 11 10 12 13 10 11 11 10 12 14 14 11 13 12 11 9
20 18 23 28 18 20 18 22 28 28 27 24 23 23 25 22 18 16 13 13 11 7 6 4 5 7 8 9 12 12 12 14 12 13 11 11 9 10 10 11 8 11 7
23 23 26 28 16 18 22 18 23 26 26 26 26 24 25 21 18 16 14 10 10 7 6 4 5 7 8 8 12 14 12 12 12 13 12 13 11 10 9 8 9 8 9

GFSGL_sfc_temp_006.txt.gz
Temp
50 50 49 48 48 46 44 46 44 44 45 46 44 43 42 40 39 37 36 36 36 35 35 34 34 35 33 34 35 37 37 36 32 35 37 38 38 39 42 43 46 46 46
49 49 48 47 47 45 44 43 43 44 43 44 44 42 40 39 37 36 35 36 34 33 33 32 32 37 32 33 33 33 34 36 36 31 34 35 36 38 38 39 44 49 46
48 47 46 47 45 44 43 43 43 42 44 44 43 41 39 39 38 36 35 34 32 32 31 31 31 31 30 31 31 32 33 37 35 33 33 34 34 36 37 38 38 38 45
46 45 44 45 45 42 41 41 43 43 43 42 41 41 40 39 37 35 34 31 31 31 32 31 30 29 29 29 31 31 33 30 30 30 29 29 30 33 34 32 30 33 35
45 44 43 42 41 42 43 42 42 42 43 42 41 39 37 37 36 32 32 31 30 30 30 30 30 32 35 35 33 30 28 27 27 27 26 26 27 27 28 29 29 29 31
43 43 43 43 43 41 41 40 39 39 41 41 39 36 35 38 35 35 33 29 30 29 27 28 28 31 31 33 33 34 34 29 28 26 25 24 25 25 26 26 25 25 26
43 43 43 42 41 40 40 39 39 38 41 37 35 34 32 31 35 35 34 30 28 26 26 27 28 32 31 30 31 33 32 33 34 29 26 25 25 26 27 25 24 24 24
41 41 41 41 39 39 39 38 38 40 37 34 31 32 31 33 35 35 33 28 26 27 27 27 27 27 29 29 29 29 29 29 30 30 27 27 27 28 28 29 27 27 28
41 40 40 40 39 38 38 37 37 36 33 32 32 31 29 29 34 34 31 25 25 25 28 28 28 27 29 32 28 26 26 28 32 33 34 33 33 33 32 29 27 27 25
40 40 40 39 38 38 36 35 34 34 33 33 30 29 31 27 32 32 30 21 19 23 25 27 28 28 30 30 27 25 23 25 26 26 26 28 29 29 32 31 27 25 25
41 40 39 39 37 37 35 34 34 32 31 27 27 27 28 28 27 31 31 23 22 23 23 24 25 28 29 30 30 25 25 27 26 26 24 24 25 27 28 28 27 26 24
39 38 37 37 38 39 35 34 32 31 27 23 17 19 21 22 30 29 30 29 28 18 22 24 24 28 28 28 27 28 28 26 24 22 22 22 22 23 27 29 30 30 29
36 35 35 35 35 35 32 29 28 26 22 22 24 16 19 22 19 28 28 29 28 22 23 26 27 27 26 26 27 26 25 23 22 20 23 24 25 27 29 28 29 30 30
35 34 33 32 32 32 31 30 27 20 19 24 21 19 16 18 16 19 20 17 23 24 23 23 23 25 23 24 24 24 24 23 23 21 22 24 26 27 27 28 27 27 27
34 34 32 28 29 30 30 28 27 28 27 21 19 19 7 7 16 26 27 22 20 21 17 17 19 19 19 19 19 21 22 23 22 22 22 23 25 26 27 28 27 28 25
32 31 28 26 25 29 29 29 33 33 32 33 30 21 13 23 29 30 30 29 28 27 15 13 12 13 16 17 15 16 19 20 21 21 21 22 23 24 25 26 26 23 23
32 31 29 27 25 24 22 23 19 27 33 34 32 31 30 28 30 30 29 28 27 23 10 12 10 12 11 17 16 15 15 18 20 19 19 20 21 23 23 23 19 18 19
30 29 28 26 21 21 17 24 26 21 17 19 27 30 30 30 31 29 29 23 12 14 11 11 11 13 15 16 16 14 14 14 14 16 17 17 18 20 19 20 19 17 20
32 27 25 19 20 19 19 21 23 24 21 21 18 25 22 30 30 29 27 9 7 7 10 11 9 11 13 14 10 10 9 10 11 11 14 15 16 18 19 20 18 16 15
32 27 19 20 24 25 19 21 24 23 21 21 18 16 16 14 8 5 1 -1 -0 5 4 9 10 10 9 11 9 7 9 6 9 11 11 12 13 16 17 19 17 14 15
30 28 27 27 27 27 20 21 25 23 19 22 20 13 14 14 9 7 7 4 4 5 2 6 4 2 4 7 11 8 8 6 7 9 9 10 10 12 16 17 15 15 16
28 28 25 27 21 18 19 21 21 20 19 19 20 19 13 7 7 8 13 10 10 8 7 5 5 6 6 8 9 6 7 4 6 8 9 10 11 12 13 12 11 8 10
18 16 17 20 26 20 13 24 26 22 18 21 18 17 11 13 12 15 14 13 9 7 4 3 1 3 2 2 3 8 9 9 9 7 7 9 11 12 9 7 7 7 6
18 14 16 18 14 13 10 19 26 23 21 16 14 15 18 19 16 13 12 10 4 5 1 2 4 7 5 1 -1 4 9 8 9 10 8 8 9 10 8 9 7 5 4
21 19 16 18 23 25 12 14 25 25 21 16 13 12 16 13 13 12 15 8 10 5 8 3 3 5 5 3 4 7 5 10 9 10 9 9 8 8 7 8 6 7 5
30 28 24 23 23 18 16 17 19 23 22 25 21 18 16 14 13 10 12 7 7 7 5 2 5 5 4 5 7 8 8 8 9 11 9 10 8 8 8 7 7 6 8

GFSGL_sfc_temp_009.txt.gz
Temp
46 46 45 45 45 44 43 42 42 42 44 44 43 43 43 41 39 38 36 36 35 34 32 32 32 32 30 30 30 30 31 31 28 32 36 40 39 38 40 41 41 40 41
45 44 44 44 44 42 42 41 43 43 41 40 41 42 41 40 38 37 36 35 33 32 31 31 31 35 29 29 28 29 29 31 30 28 32 33 36 38 38 38 41 43 39
44 42 42 41 41 40 40 42 43 41 41 41 41 39 38 38 38 36 34 33 31 31 31 30 30 29 27 27 28 28 29 32 31 29 30 31 33 34 34 37 36 35 41
43 42 41 40 41 40 39 40 40 40 39 38 39 38 38 38 37 35 33 31 31 32 31 30 29 28 27 27 28 29 31 29 28 27 28 29 30 30 31 31 30 32 31
43 41 41 40 40 40 39 39 39 39 40 38 37 38 38 36 35 32 32 31 30 29 30 30 30 31 34 33 31 27 29 28 28 28 27 28 28 26 26 27 27 27 29
42 41 42 41 41 40 39 38 40 39 38 37 39 36 33 36 36 36 33 29 30 29 27 29 29 31 31 32 32 33 32 28 27 26 27 25 26 26 25 25 25 23 23
41 41 41 40 39 38 38 38 37 36 36 36 34 32 32 32 35 36 35 31 29 26 26 27 28 31 30 29 30 31 31 32 32 28 26 26 26 26 26 24 23 23 23
40 39 39 38 38 37 37 36 35 36 34 32 31 31 31 32 35 34 32 30 26 26 26 26 26 27 28 29 28 28 28 29 30 30 28 27 27 27 27 28 26 25 26
39 38 38 38 37 36 35 34 34 33 31 30 31 31 29 29 34 33 30 24 24 24 27 27 27 27 29 30 27 27 27 28 32 33 32 32 32 31 32 28 24 26 24
38 38 38 37 36 35 34 32 32 31 31 31 31 29 31 27 32 32 30 21 17 22 24 25 27 28 30 30 26 25 23 26 27 26 26 27 29 28 31 29 26 25 25
39 38 37 36 35 34 33 33 32 31 30 27 28 26 27 27 26 31 30 20 20 23 23 23 25 28 29 29 28 25 25 27 26 25 26 24 25 26 27 27 27 25 23
37 36 35 34 35 36 31 30 30 28 27 24 17 19 21 22 29 28 30 29 29 18 21 23 24 29 28 28 27 27 27 25 23 22 22 23 23 23 26 27 27 27 27
35 34 33 33 33 32 30 28 27 25 21 22 23 16 19 23 20 27 27 29 27 18 21 25 27 27 26 25 26 26 24 23 22 20 21 22 24 27 29 28 29 29 29
33 33 34 33 31 30 30 30 27 21 21 25 21 19 16 18 16 18 20 15 21 22 19 18 21 23 21 20 21 22 22 22 22 21 22 23 25 26 27 28 27 27 26
32 34 32 31 29 29 30 28 27 29 28 23 20 19 7 6 15 24 25 17 13 17 11 9 14 16 17 18 17 18 20 20 19 20 20 21 23 25 26 28 28 27 23
32 32 31 31 29 29 28 27 33 33 33 33 32 21 13 23 28 30 30 29 28 26 11 5 1 6 12 16 14 13 14 16 17 19 18 20 20 22 24 25 26 24 24
31 32 32 31 28 26 24 23 18 26 32 33 33 31 30 27 30 31 30 28 26 21 7 4 -0 1 9 16 15 14 12 12 15 16 16 16 18 20 22 22 22 22 22
32 28 29 27 28 24 23 20 18 18 16 17 25 31 31 31 31 31 29 23 12 13 9 5 3 3 8 14 14 13 12 9 6 11 14 14 14 17 18 20 21 17 19
32 31 28 27 25 22 24 20 19 18 17 16 17 21 22 30 31 29 27 11 8 7 8 9 4 4 7 9 6 8 5 5 4 4 7 11 13 14 16 18 18 17 16
32 30 26 26 25 27 25 19 21 20 17 15 14 14 14 13 8 5 2 0 0 6 4 8 9 6 3 3 -0 2 7 6 7 7 6 6 8 12 15 16 14 9 13
31 30 28 28 27 22 20 19 22 18 18 14 16 12 14 16 14 8 13 4 7 8 5 7 3 -0 -2 -1 5 1 3 3 7 7 7 8 6 9 12 12 13 12 14
30 29 28 28 28 23 19 17 16 19 20 15 15 14 13 7 11 11 13 12 11 11 9 7 7 6 5 6 3 -3 -0 -0 4 6 6 8 9 9 9 9 8 6 9
29 27 23 21 20 18 12 13 13 18 21 15 16 14 13 13 19 13 13 12 9 7 7 6 2 3 1 -1 -3 1 1 2 4 7 6 6 9 9 7 5 6 7 7
31 27 23 21 11 12 9 11 13 17 20 20 16 12 11 13 15 13 13 9 4 6 2 6 7 8 5 -1 -5 -2 4 0 0 4 6 7 8 10 7 7 6 5 4
31 27 23 21 21 20 18 17 17 20 22 22 20 15 16 11 10 11 11 9 7 2 6 5 5 7 7 5 2 4 2 5 1 2 2 7 6 6 6 7 5 7 5
31 29 28 28 26 25 24 23 23 23 22 22 22 22 20 17 17 14 12 10 8 7 6 3 3 7 5 5 4 5 3 4 1 3 0 4 7 6 6 6 7 7 8

GFSGL_sfc_temp_012.txt.gz
Temp
44 44 43 43 42 41 40 40 39 40 42 42 42 40 39 40 38 36 35 34 34 33 33 32 32 32 30 30 30 30 29 29 25 30 34 37 36 38 41 43 43 41 39
44 43 41 41 41 40 39 39 39 40 40 40 39 41 40 37 36 34 34 34 33 32 32 31 31 35 30 29 28 28 28 29 27 25 30 32 34 36 37 38 42 44 39
42 41 41 40 39 39 39 39 39 38 38 39 41 40 37 36 36 36 33 33 32 32 31 30 30 30 28 27 27 27 28 30 30 28 28 32 33 34 35 38 38 38 41
42 40 40 39 39 38 38 37 37 38 39 41 38 37 36 37 36 34 33 32 31 31 31 30 29 29 28 27 28 28 29 27 28 29 29 29 30 34 32 31 32 34 35
41 40 40 39 39 38 38 37 37 37 41 40 36 37 36 36 36 32 33 31 30 29 30 30 30 31 34 33 31 28 28 27 27 27 27 29 28 28 28 31 30 30 32
40 39 40 39 39 38 37 37 37 36 36 35 35 34 33 35 36 36 34 30 30 29 28 28 28 30 30 32 31 32 31 27 26 26 26 26 28 28 28 27 28 27 27
39 40 39 38 37 37 36 36 35 34 34 36 33 32 30 31 36 36 33 30 28 27 26 26 27 30 29 28 29 30 31 31 30 28 26 27 28 29 30 28 26 26 27
38 38 38 37 36 36 35 34 34 34 33 32 30 30 30 32 34 34 32 27 26 26 26 26 25 26 27 29 28 28 29 30 30 30 30 29 30 29 30 30 29 28 28
37 37 37 36 35 34 33 32 31 31 31 31 31 30 29 29 33 33 30 25 25 25 27 27 27 26 28 31 27 26 27 28 32 32 33 32 32 32 32 28 25 25 24
37 37 36 36 34 33 32 31 31 31 32 31 30 29 31 27 31 32 30 21 18 22 24 26 27 27 30 30 26 24 23 26 28 28 28 29 30 29 31 30 28 25 26
36 36 36 35 33 33 31 30 30 29 29 26 27 27 28 27 26 30 31 20 21 23 23 23 25 27 30 30 29 25 25 26 25 25 26 27 27 27 28 28 29 27 24
35 34 34 33 34 35 30 29 29 27 26 22 17 20 22 22 28 28 30 29 28 15 20 22 22 28 28 27 26 27 26 24 23 22 23 23 25 25 28 29 28 28 29
32 32 32 32 33 32 29 28 27 25 20 21 24 17 20 23 21 27 28 29 27 16 19 23 26 26 25 24 24 25 23 22 21 20 21 22 24 27 29 29 29 29 29
31 31 31 31 32 32 31 30 27 20 19 24 21 21 17 18 16 18 19 16 20 21 17 16 17 21 18 19 20 20 19 20 20 20 20 22 25 26 27 28 28 27 27
31 31 31 30 31 30 30 28 27 28 27 22 21 20 11 7 16 22 24 16 11 16 9 7 10 13 16 17 18 18 17 17 17 18 19 20 21 24 26 28 28 28 26
32 32 33 32 32 29 29 28 32 33 33 33 32 23 15 24 28 30 31 30 28 25 11 4 -1 -1 7 14 15 15 14 13 14 17 17 18 18 20 23 25 26 26 26
31 32 32 31 30 25 25 24 22 26 32 33 33 33 31 25 29 30 31 29 27 21 8 5 -2 -3 2 12 15 14 13 12 11 13 14 15 16 19 20 22 23 23 23
32 30 29 28 27 27 27 25 21 18 20 18 26 30 32 32 31 31 31 25 13 12 9 7 4 3 7 11 12 13 12 10 9 9 10 12 14 16 17 19 20 19 21
32 32 30 28 27 27 25 21 19 19 21 18 15 21 23 30 31 31 28 12 10 9 9 10 6 6 9 9 2 1 3 8 7 5 7 8 9 13 16 17 16 14 16
33 31 29 28 26 25 21 20 21 19 22 20 14 15 13 19 10 7 1 0 3 9 7 10 11 9 7 5 -1 -4 1 2 9 9 7 7 7 9 12 13 14 13 16
33 32 30 26 26 28 27 24 20 18 21 20 16 12 13 16 16 11 11 5 8 10 8 9 8 4 1 0 6 2 2 2 3 8 9 10 7 9 11 12 12 14 16
31 31 30 28 28 28 27 25 21 18 18 18 20 11 11 8 13 13 13 13 12 11 11 9 10 9 9 9 7 -2 -0 -2 0 2 6 9 10 11 10 10 10 11 13
30 30 29 27 27 26 18 19 19 16 16 17 19 18 13 14 14 14 18 14 11 10 9 8 7 7 6 3 2 5 5 6 5 1 1 4 9 11 10 9 10 11 11
32 31 30 27 24 21 17 15 16 15 18 20 19 19 19 18 16 16 15 13 9 7 3 6 9 9 9 3 -0 2 6 3 3 5 0 1 6 10 10 11 11 10 10
32 32 30 27 25 23 23 23 22 21 22 23 23 22 22 21 19 18 16 14 11 6 7 5 7 9 9 8 5 5 3 7 2 1 3 2 2 2 7 11 10 11 10
32 32 31 29 27 27 27 26 26 26 25 26 26 24 23 23 23 21 20 16 14 11 9 5 7 8 8 7 8 5 1 3 2 1 -0 6 3 4 5 7 10 10 11

GFSGL_sfc_temp_015.txt.gz
Temp
55 53 53 53 53 53 53 52 51 51 51 51 51 50 49 49 47 46 47 46 44 45 46 43 42 43 42 42 42 41 39 38 32 37 40 42 42 42 44 47 49 49 48
53 52 52 53 53 51 51 51 51 49 49 48 48 47 48 47 46 45 46 46 44 44 43 42 41 42 40 41 40 38 37 38 35 32 37 37 39 42 42 43 47 50 49
52 53 52 51 50 50 50 50 49 48 48 48 48 46 44 46 45 46 44 43 43 42 41 40 40 39 38 39 38 37 36 36 35 32 33 37 38 41 41 42 41 45 47
52 52 50 50 50 49 49 49 48 48 47 47 45 42 44 45 45 44 43 42 41 40 39 39 38 37 36 36 35 33 33 31 32 31 31 33 36 39 38 38 39 44 43
51 51 50 50 49 49 48 48 47 47 47 47 45 43 43 43 43 42 42 41 39 39 38 38 37 35 33 34 34 32 31 30 31 31 31 32 33 34 33 34 35 40 42
50 49 49 48 48 48 47 46 46 46 46 45 44 43 42 42 37 37 38 39 38 37 35 35 35 33 34 32 31 31 31 30 29 30 31 31 32 34 35 33 31 31 33
48 48 48 47 46 46 46 46 45 44 44 44 42 42 40 40 36 35 33 38 36 35 34 33 33 34 32 33 32 32 32 31 31 30 29 31 32 34 34 33 33 33 33
46 46 47 46 45 45 44 44 44 43 42 42 41 40 39 38 34 33 32 36 35 34 33 33 32 32 33 31 31 31 32 33 34 33 33 33 34 35 35 34 33 34 36
46 46 46 45 44 44 43 43 43 42 42 41 40 39 38 37 33 33 33 33 32 32 32 33 32 31 30 31 30 29 30 32 34 33 33 32 32 33 33 33 29 29 28
43 44 44 44 43 42 42 42 42 42 41 41 38 38 34 35 32 32 33 32 29 30 32 32 30 29 29 30 29 28 25 29 30 31 32 33 34 34 32 33 33 28 29
43 43 43 43 42 42 42 42 41 41 38 36 34 35 35 34 33 31 31 31 30 30 29 30 31 28 29 29 28 28 26 28 27 29 30 32 33 33 34 34 35 33 31
41 41 41 41 41 41 40 41 40 38 36 33 31 32 34 32 30 30 30 30 30 28 27 29 28 28 27 27 27 26 26 26 27 27 27 28 29 30 32 33 34 34 36
39 39 39 40 40 41 40 39 38 37 35 34 34 33 34 33 33 29 29 29 29 28 29 28 26 26 25 26 25 24 24 25 24 24 24 26 28 30 31 32 33 34 34
37 38 39 38 37 40 40 39 38 36 35 35 35 34 34 33 32 33 31 32 28 29 27 28 24 24 23 23 25 26 24 23 22 23 24 26 28 29 30 32 31 31 30
37 38 37 36 36 36 37 39 37 38 37 36 35 34 32 31 32 31 30 31 30 28 24 26 25 24 24 25 25 24 23 23 22 22 23 24 26 28 29 31 31 31 30
35 37 36 36 35 36 36 37 34 34 33 33 33 32 33 31 29 30 31 31 30 27 26 24 22 21 21 22 22 22 23 21 21 22 22 24 24 26 27 29 30 30 29
35 36 36 35 36 34 34 34 34 36 32 33 33 33 33 32 30 31 31 31 29 26 26 25 23 22 21 23 23 22 21 21 19 20 21 22 22 25 26 27 28 28 28
35 33 35 35 35 34 34 34 33 32 31 33 33 32 33 33 32 31 31 31 28 26 26 25 24 24 23 23 23 22 21 21 19 19 20 20 20 22 24 25 26 25 27
36 36 34 34 34 33 33 32 32 31 31 31 33 30 30 29 32 32 32 30 29 28 28 27 26 25 24 24 22 20 19 19 18 17 19 19 19 21 22 23 24 22 23
37 33 33 33 34 33 32 32 32 32 31 31 31 32 33 26 27 29 29 29 28 28 28 27 27 26 25 24 22 21 20 21 20 20 18 19 19 20 20 21 22 22 24
35 35 33 33 33 33 32 31 32 32 31 31 31 32 27 30 30 31 30 29 28 29 28 28 28 26 25 23 23 22 20 20 19 19 19 19 18 18 20 21 22 22 23
35 34 34 32 33 32 32 33 32 31 31 31 31 32 23 25 30 31 31 30 30 29 30 29 28 28 27 26 25 23 21 19 20 19 19 17 19 20 19 20 20 21 21
34 33 33 33 33 32 31 32 31 30 30 30 31 31 31 30 30 30 30 30 30 29 28 27 27 26 26 24 24 23 22 22 21 19 17 18 19 20 19 19 19 19 19
32 32 32 33 32 31 30 30 30 28 29 30 30 30 30 30 30 30 30 30 30 29 27 24 25 26 26 24 23 22 22 21 21 20 15 17 18 19 19 19 19 18 18
32 32 32 32 32 31 30 30 30 30 30 30 30 30 31 31 30 31 31 30 28 28 27 23 24 24 23 21 22 21 20 17 17 15 18 16 17 16 17 18 18 19 17
32 32 32 32 32 32 31 31 31 31 31 31 31 31 31 31 31 30 31 30 28 27 27 26 24 22 23 23 22 20 14 14 16 12 17 18 17 18 19 17 16 19 17

GFSGL_sfc_temp_018.txt.gz
Temp
62 62 61 61 61 60 59 58 58 57 57 56 56 56 55 53 52 53 52 50 51 51 51 49 49 50 49 49 48 47 45 44 38 43 45 47 46 45 46 47 48 50 51
62 61 60 61 61 59 58 57 57 56 56 55 54 54 54 53 53 50 50 52 51 50 49 49 48 49 47 47 47 44 44 43 39 36 40 41 41 43 45 44 46 51 51
62 61 61 60 59 57 57 57 56 55 55 54 54 53 53 50 49 50 51 50 50 49 48 47 46 46 44 45 44 43 41 40 37 35 36 39 41 42 41 43 44 45 48
62 61 60 58 58 57 56 56 55 54 53 53 53 53 51 51 51 51 50 49 48 48 46 46 45 43 42 41 40 40 39 36 37 36 35 36 39 42 41 38 39 43 43
60 60 59 58 57 57 55 55 54 53 53 53 52 52 50 49 48 46 48 47 46 46 45 45 44 40 35 35 36 35 35 34 32 33 32 33 34 35 36 39 38 40 42
59 58 58 57 56 55 54 53 52 52 52 52 51 50 48 49 36 37 38 46 45 44 42 43 42 39 38 34 33 33 33 32 31 31 32 31 33 35 37 36 36 33 34
57 57 56 55 53 53 53 53 52 51 51 50 50 49 47 47 36 35 34 44 43 42 41 40 40 40 37 37 35 33 33 33 33 33 31 31 32 35 37 36 36 35 34
55 54 54 53 52 53 53 51 51 51 49 49 49 48 47 44 35 34 33 43 42 41 40 39 39 39 37 34 33 33 36 38 39 38 35 35 35 35 35 35 36 36 38
53 52 53 51 51 51 50 50 50 49 49 49 48 46 45 44 34 33 34 40 39 38 39 39 37 36 33 31 31 32 34 36 37 34 34 33 33 33 34 35 32 31 30
50 50 51 51 50 49 49 49 49 49 48 48 46 45 38 42 33 33 34 39 35 36 38 38 34 32 29 30 30 30 28 32 32 33 34 36 36 36 34 35 34 30 31
50 50 50 50 49 48 48 49 48 48 46 44 41 42 42 40 39 32 32 35 35 34 35 36 36 30 29 29 28 30 28 30 29 30 32 34 36 36 37 37 37 33 31
49 48 48 48 47 48 47 47 47 46 44 41 36 38 42 40 34 32 31 31 32 31 32 35 33 29 28 28 29 26 26 27 30 28 29 30 31 32 35 37 37 38 37
46 46 46 46 46 46 46 46 45 46 43 41 40 39 40 40 39 31 31 30 30 31 33 31 28 28 28 30 28 26 27 30 28 27 27 28 30 32 34 34 36 37 38
44 44 45 44 42 41 42 43 44 43 42 41 39 40 41 39 38 38 37 36 31 31 33 33 30 26 28 29 31 31 31 29 27 26 27 29 31 32 32 33 33 34 33
44 44 43 43 41 40 40 39 41 45 42 40 40 40 36 34 36 36 35 36 35 33 29 31 32 31 31 31 31 31 31 29 28 27 27 28 29 30 31 33 33 33 33
40 42 43 42 41 40 39 40 36 35 34 34 34 34 36 34 32 32 32 31 32 30 30 30 30 29 28 29 29 29 30 28 27 27 26 27 27 28 29 31 32 32 31
40 40 41 39 39 39 39 38 37 38 35 34 34 34 34 34 33 32 32 32 32 29 29 31 29 29 29 30 30 29 28 28 26 26 26 26 26 27 28 29 30 30 30
40 35 40 40 39 39 39 38 37 36 35 36 34 34 34 34 34 32 32 31 31 28 30 30 30 30 30 31 30 29 28 27 27 26 25 25 26 26 26 27 27 27 28
40 39 38 37 35 35 36 36 36 36 35 35 37 35 34 32 32 33 32 31 31 31 33 33 32 31 31 31 29 28 26 26 24 24 25 25 24 26 26 27 27 26 27
41 35 35 38 37 33 34 35 35 35 34 34 35 36 38 32 31 31 31 31 31 32 33 33 33 33 31 31 29 28 27 26 26 26 25 25 25 25 25 26 26 26 28
42 40 36 37 38 37 37 36 36 35 35 34 36 35 34 35 33 33 34 33 32 33 33 33 33 32 31 30 30 28 28 26 26 25 25 25 24 24 25 25 26 27 28
39 36 36 35 36 35 34 35 34 34 34 34 35 35 33 32 33 34 35 34 34 35 36 34 33 34 33 32 30 28 27 26 26 26 25 24 25 26 26 25 24 24 26
37 35 35 36 36 35 33 33 33 33 33 33 33 34 35 33 33 34 34 33 34 34 34 34 32 32 33 31 31 30 28 28 27 26 23 23 24 25 25 25 24 23 23
37 34 32 32 33 34 33 32 32 32 32 32 32 33 33 33 33 33 33 33 33 33 33 32 32 32 33 31 30 30 30 28 27 26 22 23 23 24 24 24 24 23 23
33 32 32 33 32 33 32 33 33 33 32 32 32 32 33 33 33 33 33 33 33 32 32 32 32 31 30 30 30 29 29 24 24 24 24 22 22 21 22 23 22 24 22
33 34 33 33 32 32 32 32 31 32 32 32 32 32 32 33 33 33 33 33 32 32 32 32 31 31 30 30 29 28 26 21 21 18 23 24 23 23 24 22 21 22 23

GFSGL_sfc_temp_021.txt.gz
Temp
62 60 60 63 63 63 62 61 60 59 59 58 58 57 56 57 57 55 53 52 51 50 51 51 50 50 48 49 50 49 48 46 40 45 48 48 45 44 46 47 48 48 49
64 62 63 63 64 62 61 61 60 58 58 57 57 56 57 57 55 53 51 51 50 50 50 49 48 50 47 48 48 46 46 46 43 39 41 42 41 43 44 43 46 48 48
61 63 64 63 63 61 60 60 59 58 57 57 56 55 55 53 50 53 52 51 51 50 48 48 47 46 44 45 44 43 43 44 42 37 35 39 40 42 42 43 44 44 47
63 65 64 62 62 61 60 59 58 57 55 55 55 55 54 53 52 51 50 50 49 49 47 47 46 45 44 41 40 39 40 37 37 35 35 36 38 41 40 38 38 41 42
64 63 62 62 61 60 59 58 57 56 55 56 55 54 54 52 50 49 49 48 47 46 47 47 47 42 38 37 37 36 35 34 33 33 32 33 34 35 34 38 37 38 40
62 61 62 61 60 59 58 56 56 55 55 54 53 53 52 51 36 37 39 46 46 45 44 45 45 43 41 37 36 35 34 32 31 30 32 32 33 34 36 34 34 34 32
61 61 60 59 58 57 57 56 55 54 54 52 52 51 49 47 37 36 35 43 45 44 44 43 42 44 39 40 37 35 35 35 34 34 31 32 31 34 34 32 32 32 33
59 58 58 57 56 56 55 55 54 54 52 51 50 50 49 44 36 35 35 41 44 43 42 42 41 40 38 34 34 34 36 37 39 39 37 35 35 35 35 35 34 35 37
57 57 57 56 54 53 53 53 53 52 51 50 51 49 47 44 35 35 34 41 41 40 41 41 40 38 33 31 31 31 33 35 39 37 36 35 34 34 35 34 31 31 29
57 55 55 54 53 52 52 51 52 51 50 51 50 49 40 44 35 34 35 39 38 38 40 40 35 33 30 30 29 29 27 32 32 32 33 35 36 37 36 35 34 29 30
54 53 53 53 53 52 50 50 50 49 49 46 44 45 45 43 40 34 34 36 37 36 36 37 38 32 31 30 29 29 28 29 29 31 31 33 35 36 37 37 37 33 30
50 50 50 51 51 51 49 49 48 49 46 44 40 41 43 43 36 34 33 32 33 33 33 36 35 31 30 29 30 30 28 28 31 30 29 30 31 32 35 36 37 38 38
48 48 49 50 49 48 46 45 45 46 44 43 41 39 40 42 42 35 33 32 31 31 35 34 31 31 31 32 32 30 28 32 29 27 26 28 31 33 35 35 36 35 38
45 46 47 45 44 46 46 45 43 44 43 41 40 39 41 43 43 41 36 35 31 32 33 35 33 31 31 30 31 34 34 32 29 28 27 29 32 32 32 34 32 32 33
43 43 44 42 43 44 46 44 41 44 41 41 41 40 37 36 39 38 37 37 36 34 31 33 33 34 32 33 33 33 33 32 30 29 28 27 28 30 31 33 33 32 31
40 41 41 42 44 44 43 42 39 37 37 36 35 36 38 37 35 34 34 34 33 32 31 31 31 31 30 31 31 31 32 31 30 28 28 28 27 27 28 31 32 31 30
38 39 42 40 42 42 41 39 38 41 36 35 35 35 35 35 35 34 33 33 32 31 29 31 31 31 30 32 33 32 30 31 29 30 28 28 27 28 28 28 29 29 28
43 36 42 42 40 38 39 37 39 38 35 37 35 34 35 34 34 34 33 32 31 31 32 32 32 32 32 33 33 32 31 30 29 28 27 27 26 26 27 28 28 26 27
42 43 41 39 39 36 36 35 35 36 36 36 37 35 35 34 34 34 33 32 32 32 33 33 34 34 33 33 32 31 29 27 27 26 27 27 26 26 26 27 28 28 28
45 37 36 39 38 38 37 37 37 35 36 36 35 37 39 37 32 32 32 32 32 34 33 34 35 36 34 33 32 30 29 28 28 28 27 27 26 26 26 25 26 26 28
43 41 36 37 38 38 37 36 37 36 35 35 35 35 35 37 35 34 35 33 33 35 34 35 34 34 33 32 31 30 30 29 28 27 27 27 26 25 26 27 26 26 27
41 39 38 37 37 36 36 36 36 35 35 35 35 35 33 35 35 35 35 35 35 36 36 35 35 35 34 33 33 31 29 28 28 28 27 26 26 26 27 26 26 25 25
39 37 37 37 36 35 34 35 35 34 34 34 35 35 34 34 34 35 34 34 35 35 36 36 34 34 35 34 33 32 30 29 30 29 26 26 26 26 26 25 25 25 24
38 37 37 35 33 34 33 33 33 34 34 34 33 33 33 33 33 33 33 34 34 33 33 34 35 34 34 33 32 32 32 32 30 29 26 25 25 26 25 25 25 24 24
36 34 33 33 33 32 32 33 33 33 33 32 32 32 34 34 34 33 33 34 33 33 33 33 33 33 33 33 32 31 32 30 29 29 27 25 24 24 23 24 24 24 24
33 33 33 33 33 32 32 31 31 31 31 31 32 32 32 33 33 33 33 34 33 33 33 33 33 32 32 32 33 32 31 29 26 25 26 26 25 24 24 24 23 23 24

GFSGL_sfc_temp_024.txt.gz
Temp
60 58 56 57 58 58 56 55 54 53 53 52 52 51 50 50 49 48 46 46 45 43 43 42 43 44 39 39 39 40 38 37 33 37 40 38 37 37 39 40 42 41 42
60 58 57 58 58 56 56 56 54 53 53 52 52 51 51 50 48 46 45 46 44 43 43 42 42 46 40 39 38 36 35 36 34 31 34 35 34 36 37 37 41 45 42
61 60 59 58 57 57 56 55 55 53 52 51 51 49 49 49 48 47 46 44 43 43 42 41 41 40 36 35 34 33 33 37 33 30 30 33 34 35 35 36 37 37 42
61 60 57 57 56 56 55 54 53 53 51 50 50 49 49 49 49 48 47 43 42 43 42 41 41 39 34 32 33 30 32 29 30 29 29 30 31 33 33 31 32 34 35
58 58 56 58 58 56 55 54 53 51 51 50 49 48 48 48 46 43 43 41 40 40 40 42 40 39 38 35 34 29 28 27 27 27 27 28 28 29 28 31 29 30 33
57 56 59 58 57 55 54 52 51 50 50 49 48 47 46 47 38 38 38 37 39 39 36 37 38 40 37 37 37 36 33 26 26 25 26 26 27 28 29 28 27 26 26
57 58 58 57 55 53 53 53 51 49 49 48 47 47 45 38 37 37 36 37 36 36 35 35 37 41 34 32 34 34 33 35 35 30 28 28 27 29 29 27 26 26 26
56 56 55 55 54 52 50 50 49 48 47 46 44 45 45 40 37 36 35 33 35 36 35 35 33 33 28 30 28 27 29 30 32 34 28 28 29 30 29 29 28 28 29
53 52 53 53 51 50 49 47 47 46 45 44 46 45 43 36 36 36 35 32 33 34 36 35 35 32 31 32 27 26 26 28 35 34 33 34 35 35 35 30 25 24 23
49 50 50 51 49 47 47 46 46 45 46 45 44 42 40 34 35 35 34 29 30 30 32 33 33 31 32 31 24 24 22 25 26 27 28 31 32 33 36 32 28 24 24
47 49 49 48 48 48 46 45 44 44 43 39 38 38 38 36 33 35 35 30 28 29 29 28 29 32 31 31 30 25 24 27 27 26 28 28 30 31 31 32 32 30 27
48 47 46 46 47 48 44 43 42 42 38 38 35 35 35 36 36 35 35 33 33 26 28 28 28 33 32 31 30 30 31 27 22 20 24 26 26 27 30 31 33 33 32
44 42 43 45 46 45 42 40 39 38 37 35 33 33 32 33 33 35 34 34 33 25 27 30 32 32 32 30 33 32 26 23 20 16 21 25 26 29 31 30 31 33 34
41 42 44 42 42 42 42 41 39 34 33 34 34 32 32 32 33 30 30 29 30 29 29 29 27 27 25 26 24 28 26 24 22 18 18 23 26 27 27 28 28 29 29
42 41 40 37 38 40 41 40 35 37 36 36 35 34 33 30 32 34 33 32 32 30 25 23 23 25 25 24 24 25 25 26 22 19 17 20 24 26 26 27 29 28 27
38 38 36 35 36 39 39 38 40 37 37 37 36 34 33 36 36 36 35 35 34 31 23 20 19 21 23 23 20 21 22 22 22 20 18 19 19 23 24 26 28 26 25
36 36 36 34 35 35 33 35 33 37 38 36 35 35 35 35 36 35 35 34 33 29 21 20 21 22 26 24 22 22 20 20 20 21 18 18 18 20 22 24 25 25 24
37 36 36 37 35 34 33 34 35 32 31 33 35 34 35 35 35 35 34 33 28 29 26 25 25 24 24 24 23 22 20 19 18 18 15 21 17 17 17 22 22 22 23
38 38 37 35 34 34 35 34 34 32 32 32 34 32 30 34 34 34 34 29 27 27 28 27 27 27 27 24 22 20 20 17 16 13 17 20 20 20 19 17 20 20 21
41 36 36 36 35 34 35 34 34 33 33 33 33 33 32 32 30 30 29 29 28 29 29 29 28 26 27 26 23 21 19 17 22 20 18 15 19 14 16 19 15 18 21
40 39 35 34 34 34 34 33 34 33 32 31 33 33 32 33 32 31 30 30 30 30 30 30 30 30 29 28 25 24 21 19 18 17 18 17 13 12 20 19 20 17 22
38 38 36 35 35 34 33 33 32 32 32 32 32 33 32 33 33 32 32 32 33 33 33 32 32 32 31 29 28 25 24 20 18 17 16 18 15 15 18 18 19 15 15
35 35 35 35 34 32 32 32 31 32 32 32 32 32 31 32 32 32 32 33 33 33 33 34 32 32 33 32 31 29 26 25 22 21 16 15 15 15 16 13 18 15 12
33 33 33 33 33 31 31 31 31 30 32 32 32 32 31 32 32 32 32 33 33 33 33 33 33 32 32 32 31 31 27 28 23 20 17 14 14 15 15 14 13 14 12
33 32 32 31 32 32 31 29 29 28 31 30 30 30 30 31 31 32 32 33 33 33 33 33 33 33 33 32 31 30 29 27 25 20 19 14 12 13 11 12 11 13 14
30 30 31 31 31 31 30 28 27 28 27 28 27 28 27 27 28 28 28 28 29 30 31 32 33 33 33 32 32 30 29 28 24 22 22 19 15 12 11 12 13 11 13

GFSGL_sfc_temp_027.txt.gz
Temp
52 52 51 51 52 53 52 52 52 51 50 48 48 47 47 46 45 43 42 43 42 41 42 40 39 40 39 38 37 34 33 32 26 29 32 33 32 32 36 36 38 38 39
52 52 51 52 55 55 54 53 51 49 49 48 48 48 47 46 45 43 42 42 41 41 41 39 39 43 36 35 32 31 31 29 27 25 28 30 29 31 32 32 38 41 38
53 52 52 55 55 54 53 52 51 48 48 48 48 46 46 45 44 44 44 42 41 41 39 38 37 37 33 30 30 29 28 32 27 25 26 28 28 30 31 33 33 33 38
54 52 54 54 54 54 53 51 49 50 47 47 46 46 45 46 46 46 43 41 41 41 40 39 37 35 32 31 31 28 29 26 26 25 26 27 28 30 29 27 27 30 30
52 53 54 54 54 53 52 51 50 49 48 49 48 46 46 44 45 41 41 39 38 37 37 38 36 37 39 34 32 27 26 25 24 24 24 25 26 26 26 27 26 27 29
54 54 55 54 53 51 50 50 49 46 47 47 46 45 43 45 38 39 38 37 37 35 34 33 34 36 36 37 36 35 32 25 23 22 24 24 26 26 27 24 25 23 21
54 54 53 51 51 48 48 48 47 46 46 46 45 44 43 39 38 38 37 35 35 33 31 32 34 35 32 30 31 32 31 32 32 26 24 23 23 25 25 25 25 23 23
52 51 49 47 48 48 48 46 45 45 44 43 43 43 41 39 37 37 36 32 32 33 32 32 31 28 29 29 27 26 26 27 28 30 25 25 26 28 27 28 27 27 27
48 48 48 47 47 45 44 43 43 43 42 42 43 42 39 35 37 36 34 30 31 31 33 32 32 29 32 33 27 25 24 26 32 33 32 32 32 33 33 30 27 26 22
45 45 46 45 44 43 42 42 42 43 43 42 41 40 38 34 36 36 34 26 29 28 29 30 33 29 32 32 25 23 20 24 25 25 26 28 30 30 33 29 28 25 25
44 44 43 45 43 43 43 43 41 39 37 35 34 35 35 32 32 36 36 29 27 27 27 26 27 32 32 33 32 24 22 26 26 25 25 25 27 28 29 29 29 28 26
43 43 44 43 43 45 41 40 39 37 33 32 31 32 31 32 34 35 36 34 32 25 27 26 26 33 34 33 31 30 31 28 16 18 19 21 22 24 27 28 29 29 30
42 40 40 41 42 41 38 36 34 34 29 30 30 30 32 31 30 34 35 34 34 25 26 28 32 33 33 30 32 32 27 21 16 12 16 17 21 25 27 27 28 29 31
38 38 38 37 37 36 36 35 33 26 26 29 28 28 31 32 29 28 30 31 30 28 27 27 25 26 23 24 24 27 24 22 20 15 15 17 20 20 21 24 24 26 26
37 37 35 31 33 33 34 34 31 32 32 29 28 29 26 30 32 31 30 28 26 27 19 19 21 19 22 24 22 22 21 21 18 14 13 15 18 20 21 24 25 24 22
34 32 30 28 30 32 32 32 35 36 36 36 36 33 32 34 35 35 34 34 34 32 26 17 15 13 17 21 20 20 17 18 18 17 12 15 15 15 19 23 25 23 22
31 31 30 31 30 29 27 27 28 30 36 36 36 36 35 35 35 35 35 35 34 30 17 17 13 15 17 23 22 20 17 16 17 16 13 12 13 16 16 19 21 22 22
32 32 32 31 30 29 27 29 33 33 29 29 32 34 35 35 35 35 35 33 25 29 21 21 20 20 22 23 22 20 17 13 14 14 10 7 7 11 12 15 17 15 19
33 31 32 31 33 34 32 32 32 28 28 29 30 28 29 34 34 34 34 30 26 25 25 24 24 24 24 24 24 20 13 11 10 6 7 8 8 12 10 16 13 15 16
35 32 31 32 34 35 34 31 32 29 29 28 28 29 28 24 26 29 31 30 29 26 26 26 26 26 26 26 27 22 17 12 10 9 9 6 4 6 7 9 10 9 18
33 33 34 35 33 33 34 33 32 28 28 28 29 29 29 28 29 30 30 30 29 28 28 28 28 28 27 24 24 24 23 20 17 14 12 9 2 9 9 12 10 15 15
32 32 32 32 33 33 33 33 32 27 24 25 28 27 28 30 30 31 32 31 30 31 30 30 30 29 29 29 28 26 24 21 16 16 14 12 10 8 8 11 8 9 11
27 27 28 30 30 30 31 32 32 27 24 23 30 31 26 29 29 31 32 33 33 32 32 31 31 30 30 30 30 30 27 24 23 21 16 14 11 7 7 9 8 8 7
25 26 27 28 29 29 29 31 30 28 24 21 23 29 29 29 30 29 31 32 32 32 32 32 32 32 31 31 31 30 30 28 26 24 19 16 14 10 6 8 8 7 7
21 22 22 21 22 23 23 25 26 26 24 23 23 19 24 25 25 25 25 26 26 26 27 30 32 32 32 32 32 30 30 29 26 23 20 16 13 10 7 7 5 8 6
17 19 16 17 17 17 19 19 20 21 21 21 21 20 20 20 21 21 22 22 21 21 22 23 24 24 25 30 32 32 30 28 26 23 22 19 14 9 5 6 5 6 9

GFSGL_sfc_temp_030.txt.gz
Temp
52 50 51 52 51 52 52 51 51 51 51 49 47 48 46 45 44 41 41 41 41 40 39 38 39 38 36 35 34 34 33 33 27 27 29 29 29 29 32 33 35 34 35
53 50 50 50 52 53 52 52 49 50 49 47 46 46 46 46 44 42 40 42 42 40 40 39 39 42 36 35 33 31 30 29 27 24 25 26 27 28 30 29 34 38 34
52 51 49 51 52 52 52 49 48 46 46 45 45 45 45 45 45 44 42 41 39 40 40 37 37 37 34 32 31 29 28 32 26 24 24 26 26 28 29 30 30 30 35
52 51 50 53 53 50 50 47 46 46 47 45 45 45 45 44 45 45 42 40 39 39 39 38 37 35 33 31 30 28 28 25 25 24 24 25 25 28 27 25 27 29 29
52 51 52 53 52 50 46 46 46 46 46 46 44 45 44 44 43 42 41 38 36 36 36 37 35 36 39 33 30 27 26 25 24 23 23 24 25 25 24 26 25 26 28
53 52 53 52 50 48 47 46 45 46 47 46 44 43 41 43 40 40 38 35 37 35 33 32 33 36 36 36 35 34 31 24 22 20 22 22 22 23 24 23 23 22 21
51 52 51 49 47 46 47 46 45 44 44 44 42 42 42 40 38 39 38 35 34 32 31 31 33 35 33 31 32 31 30 31 31 24 21 21 22 24 24 23 24 23 23
49 48 48 46 45 45 44 43 42 42 42 41 41 41 40 40 38 38 37 32 32 32 31 31 30 29 29 29 27 26 27 27 27 29 24 24 25 26 27 28 27 27 27
45 45 44 43 43 42 41 40 41 41 40 40 41 40 39 36 37 37 35 30 31 31 33 32 31 29 31 34 28 26 25 25 31 32 32 32 32 32 32 29 24 23 22
42 43 43 42 41 40 40 40 41 41 40 38 37 37 37 34 36 37 35 27 29 28 29 30 34 30 32 32 25 24 20 24 25 25 26 27 28 28 31 27 27 23 23
43 43 42 41 41 42 41 40 38 36 35 32 32 32 32 33 32 37 36 29 29 28 28 27 27 33 33 33 33 24 22 26 26 25 25 24 25 26 28 28 27 25 23
42 41 41 42 42 41 37 36 36 33 31 31 27 30 29 32 34 35 36 34 32 27 28 28 27 33 33 33 31 31 31 27 18 17 18 20 21 22 26 27 27 27 27
39 38 38 38 38 37 34 33 32 31 26 29 28 26 28 30 32 34 35 35 34 28 29 29 31 32 33 31 32 32 27 21 16 11 17 17 19 23 26 25 27 27 28
36 36 36 34 34 33 33 32 31 26 26 29 28 28 27 28 29 28 31 32 32 30 28 30 27 26 22 23 22 27 24 22 20 17 14 15 18 19 19 22 22 24 23
35 34 33 29 31 31 32 31 31 31 30 28 28 28 25 26 29 33 30 29 30 29 26 21 20 20 22 23 22 23 22 20 18 13 13 14 16 18 18 21 21 22 19
33 32 29 28 28 30 30 31 34 34 35 35 35 32 31 33 35 35 35 33 33 31 25 24 24 21 20 22 20 20 17 17 18 17 12 14 13 13 16 20 21 18 20
31 31 30 29 29 29 30 29 30 33 34 35 36 36 36 35 35 35 35 34 33 31 28 27 26 20 19 21 21 20 20 17 17 18 16 11 10 13 13 16 17 18 19
32 31 30 31 31 31 30 31 31 31 31 27 31 34 35 35 35 35 35 34 31 31 26 24 21 20 20 22 21 20 19 15 15 15 11 6 3 9 10 11 14 9 15
32 29 29 33 33 33 33 32 31 32 32 31 29 27 27 33 33 34 34 32 30 27 27 26 24 23 22 23 23 19 16 16 15 10 8 7 2 9 8 10 9 11 10
31 29 29 31 31 31 33 32 32 33 32 32 28 31 29 21 27 28 27 31 31 28 28 28 26 26 24 23 23 23 20 20 18 12 8 5 1 4 6 6 5 11 13
25 26 26 27 27 28 29 31 31 31 31 31 31 31 25 25 28 25 26 28 31 31 29 28 28 27 27 26 26 24 23 23 22 19 15 11 2 6 7 5 7 16 14
23 24 25 26 26 25 26 27 28 28 29 30 32 28 25 23 27 29 29 29 30 30 31 31 29 28 28 27 26 25 23 24 22 20 17 13 11 10 6 7 5 5 9
21 20 20 22 22 22 22 23 24 24 26 28 27 26 27 28 28 28 28 29 29 30 32 31 31 29 29 30 30 28 25 25 26 24 20 15 12 10 5 5 6 5 5
16 16 15 15 16 15 17 18 19 20 21 22 22 22 22 22 21 21 22 20 22 23 24 25 26 30 30 30 30 30 30 29 29 25 24 19 16 12 5 5 6 4 3
11 12 10 11 10 11 13 13 13 15 16 16 16 16 17 18 18 18 16 18 17 18 20 22 22 22 25 22 28 30 30 29 28 27 24 21 18 13 11 9 6 6 4
10 11 9 8 7 9 9 8 10 10 10 11 13 13 13 13 14 13 14 15 13 14 16 18 20 20 21 21 22 24 29 30 28 27 25 22 19 15 11 11 10 5 6

GFSGL_sfc_temp_033.txt.gz
Temp
52 52 50 49 49 50 52 52 52 51 50 50 49 47 45 44 44 42 41 40 39 38 37 37 37 37 36 35 34 34 32 31 27 28 28 28 27 27 30 29 32 31 31
51 49 49 49 50 52 52 51 50 50 49 48 46 45 44 44 44 41 39 40 39 37 38 38 38 40 35 34 32 32 30 29 27 25 25 26 26 27 27 27 32 35 31
51 51 49 50 52 52 51 50 48 45 45 45 44 43 44 44 44 42 40 39 37 37 37 37 36 36 32 31 30 29 28 31 27 24 24 25 25 26 27 28 28 29 33
52 51 49 51 52 52 52 49 48 46 45 45 45 45 44 43 42 42 41 38 37 37 37 36 36 34 32 30 30 28 28 25 25 23 24 25 24 27 25 24 26 29 29
50 50 51 52 52 51 48 47 46 46 46 46 46 45 44 43 43 40 39 37 36 35 35 35 34 35 38 33 30 27 26 24 23 22 22 23 23 23 22 24 23 25 26
50 49 50 50 47 46 46 45 45 44 45 45 44 43 42 43 41 40 38 35 35 33 32 32 33 37 37 37 37 34 29 24 22 20 21 20 21 21 21 21 21 21 21
50 50 48 46 45 45 45 44 43 42 42 41 41 42 41 40 40 39 38 34 33 32 31 31 32 34 33 31 34 33 32 32 31 23 20 21 20 23 23 22 23 24 23
45 45 45 44 44 44 43 42 40 40 40 40 40 40 39 39 39 38 37 33 31 31 31 31 30 30 30 30 28 27 27 27 28 28 24 23 24 25 25 27 26 26 26
43 44 44 43 42 41 40 39 39 39 39 39 39 36 35 34 37 37 35 30 30 31 32 31 31 29 32 34 28 27 26 27 31 32 32 32 32 32 31 25 22 22 20
43 43 42 42 41 39 39 39 39 40 39 37 35 34 34 32 36 37 36 28 29 29 29 30 34 31 33 34 26 24 21 25 26 26 26 27 28 28 31 26 24 21 21
43 42 41 41 40 40 40 40 38 36 34 31 31 31 32 32 32 36 37 31 30 30 29 28 29 34 33 34 33 25 23 26 25 24 25 24 25 26 27 27 26 23 22
42 41 41 41 41 41 36 34 34 32 30 30 27 29 29 31 34 34 36 36 33 30 29 30 29 33 34 34 32 31 31 27 20 19 18 19 19 21 25 26 26 26 26
37 36 36 36 36 35 33 32 31 30 27 28 28 28 28 30 29 34 35 35 35 31 30 30 32 33 34 32 32 32 27 21 16 11 18 17 18 22 25 24 26 26 27
35 34 34 33 33 33 32 32 30 27 26 29 29 28 27 28 27 27 28 29 32 32 30 30 30 29 27 28 23 27 24 22 20 17 15 14 17 17 17 20 19 21 21
34 34 33 30 31 31 31 31 31 31 31 30 29 28 26 27 29 31 30 27 29 31 30 27 26 25 25 25 23 23 21 20 18 14 12 13 16 17 17 18 18 18 14
32 31 30 29 30 30 30 31 34 34 34 35 34 33 32 34 34 35 35 35 35 32 28 24 24 24 24 24 22 22 19 18 19 17 11 14 15 12 14 17 18 15 15
30 31 30 29 29 29 30 30 31 34 36 35 35 36 36 36 35 35 35 35 34 33 28 25 25 25 24 23 23 22 21 20 18 17 16 15 12 12 12 14 14 15 14
30 30 28 28 28 28 28 32 32 31 30 31 35 33 35 33 33 35 35 34 31 32 31 28 27 28 26 23 22 22 21 18 14 15 14 12 10 9 9 11 12 7 12
27 28 27 26 26 26 27 27 28 29 30 31 32 30 30 32 33 33 33 30 30 30 31 29 27 26 25 24 24 23 21 17 12 9 14 14 9 10 8 9 7 9 8
24 23 22 24 24 25 25 25 25 26 26 26 27 28 31 25 24 29 21 21 30 30 30 28 27 27 27 25 24 23 20 17 14 15 15 14 11 9 8 6 2 5 12
23 23 21 23 22 22 21 21 22 23 22 23 26 29 29 29 29 28 29 23 25 30 30 29 28 28 28 27 25 24 23 22 21 19 18 17 10 8 9 6 3 9 13
19 19 19 18 19 17 17 19 19 19 19 20 19 20 21 23 25 25 28 28 28 28 28 27 29 29 29 28 27 26 24 23 22 21 19 19 16 13 9 5 3 4 7
15 13 12 15 13 11 12 14 13 14 15 15 16 17 17 17 18 18 19 20 20 19 21 22 23 24 27 29 29 28 26 25 26 25 21 19 17 15 10 5 5 3 3
10 6 9 9 8 7 8 6 8 11 10 10 10 12 14 14 14 14 15 17 15 14 16 17 20 21 21 22 24 29 28 28 27 26 25 21 19 15 12 5 6 3 2
3 -1 -0 4 -1 3 4 3 4 6 4 5 6 8 10 11 12 12 13 14 13 12 12 13 15 18 20 20 21 21 22 28 28 27 25 24 21 18 16 11 6 5 1
3 2 1 -0 -1 -1 0 -1 1 2 0 3 4 4 6 7 9 10 11 12 11 11 12 11 12 12 16 19 20 22 21 22 26 28 26 25 22 19 16 14 11 10 7

GFSGL_sfc_temp_036.txt.gz
Temp
50 49 48 48 50 50 50 49 50 49 50 49 48 47 46 46 44 41 41 40 39 38 38 37 37 37 36 35 34 34 32 31 29 32 31 32 31 31 32 32 33 32 33
49 48 48 49 49 49 50 51 49 50 49 49 47 46 46 45 43 41 40 41 39 37 37 36 37 39 35 34 32 32 32 31 29 27 28 28 29 30 30 30 32 35 34
49 50 49 48 49 49 50 51 49 48 46 45 46 46 45 44 43 43 40 40 38 37 37 36 36 35 33 32 31 31 30 32 29 26 26 28 28 29 29 30 30 31 33
49 48 47 48 51 50 48 47 46 47 46 44 46 45 44 44 44 43 41 39 37 37 36 36 35 34 33 32 31 30 30 28 27 26 25 26 27 28 28 26 26 30 29
48 47 47 49 47 46 46 46 45 45 45 46 45 44 43 43 43 41 40 38 36 35 35 35 34 35 38 34 32 29 28 26 25 25 24 25 25 24 24 26 24 26 27
46 46 47 46 45 45 45 44 44 44 43 43 42 41 40 43 41 40 38 35 34 34 33 33 33 37 37 38 37 35 30 26 25 23 23 23 23 23 25 23 23 23 22
46 46 44 44 44 43 43 44 43 41 41 40 39 40 40 41 40 40 39 34 33 33 32 32 32 34 34 33 35 35 33 33 32 26 23 23 22 25 25 23 24 24 25
42 42 44 44 43 43 42 41 40 40 39 39 39 40 39 39 38 38 37 34 32 32 32 32 31 32 31 31 30 28 29 29 29 29 26 25 25 26 26 27 26 26 27
41 42 43 43 42 41 40 39 39 39 39 39 39 38 35 34 37 37 36 31 31 31 33 33 32 31 33 35 29 27 28 28 32 33 33 32 32 32 32 27 23 22 20
40 42 42 42 41 40 39 39 39 39 39 38 36 34 35 32 35 37 36 28 29 32 32 33 35 32 34 34 29 26 23 27 27 27 28 29 30 29 31 28 26 21 21
41 41 41 41 41 41 40 39 37 35 34 32 32 32 31 32 32 36 37 30 30 31 32 32 32 34 35 35 34 26 25 28 26 26 26 26 27 27 28 28 28 25 21
41 41 41 39 38 38 35 33 33 32 30 30 28 30 30 31 34 34 36 35 33 29 30 30 31 34 33 34 33 32 31 27 24 23 21 22 22 23 26 28 28 27 27
35 34 34 34 34 33 32 31 31 30 26 28 29 29 30 30 29 34 35 35 34 31 30 31 33 33 32 32 33 32 30 27 23 21 20 21 22 25 27 26 27 27 27
33 32 32 32 32 31 31 31 29 27 27 29 29 29 30 30 28 29 29 28 29 30 30 32 32 31 30 30 29 31 30 27 25 22 20 20 20 21 21 23 21 23 22
32 31 31 29 29 30 30 30 30 30 31 30 30 30 30 30 33 33 32 28 26 28 26 32 30 27 27 27 27 27 27 25 22 20 18 18 19 20 21 21 21 21 18
30 30 28 27 26 28 28 29 34 34 35 35 35 33 34 35 35 35 35 34 34 32 29 28 26 27 26 26 26 26 26 25 24 22 18 18 18 18 19 20 20 19 17
27 28 28 27 27 27 28 27 25 30 34 35 35 35 35 35 35 35 35 34 33 32 30 29 28 27 26 26 26 25 25 24 24 22 21 18 17 17 16 18 18 18 18
26 25 23 23 23 23 22 23 23 23 23 25 31 32 33 33 34 34 34 33 30 27 30 30 30 29 28 27 26 26 25 24 20 20 17 16 14 16 15 16 17 14 16
24 22 22 20 20 21 22 23 23 22 23 22 23 25 24 25 29 32 33 30 29 28 30 30 30 30 30 28 27 26 25 23 20 16 17 16 13 16 14 15 15 11 12
22 21 19 21 20 19 19 19 20 20 19 19 19 19 20 20 19 19 26 25 27 28 29 29 30 30 29 27 26 26 25 23 19 17 16 16 16 16 15 14 12 13 17
19 19 16 17 17 16 14 15 16 14 14 15 15 16 17 17 17 17 18 19 18 20 23 26 28 26 28 28 28 26 25 24 23 20 19 17 16 16 16 15 13 14 16
16 15 15 14 13 10 10 12 10 11 11 10 10 12 12 14 14 16 16 16 17 17 17 18 20 22 23 23 28 27 25 24 23 22 21 18 17 17 17 14 11 12 15
12 7 9 11 8 5 5 6 5 7 6 5 6 7 9 8 9 12 12 13 15 14 15 15 15 16 20 20 22 24 27 26 26 25 21 19 18 18 18 15 13 11 12
8 2 6 3 -1 1 -6 -6 -3 1 3 1 1 3 4 5 6 8 9 11 13 13 13 13 14 13 14 16 19 22 23 24 28 27 25 22 21 20 18 16 13 12 12
1 -6 -6 -4 -10 -9 -10 -7 -7 -6 -5 -3 -1 1 2 3 5 6 7 8 9 9 10 12 12 12 10 10 13 18 21 22 23 27 27 25 23 20 19 19 16 14 10
-0 -2 -4 -7 -9 -12 -14 -13 -11 -10 -9 -5 -3 -2 -1 1 3 3 5 6 6 6 8 10 11 11 11 11 14 18 19 20 21 22 26 26 23 20 19 19 16 16 14

GFSGL_sfc_temp_039.txt.gz
Temp
64 62 61 59 59 56 54 55 53 53 55 55 53 50 49 54 54 53 51 51 50 51 50 49 49 50 49 49 48 48 46 43 40 45 47 46 44 44 44 44 43 42 43
61 58 58 58 55 54 53 53 53 54 55 55 52 49 49 53 53 51 50 48 49 49 49 49 48 49 48 48 48 46 46 46 43 41 44 43 41 42 42 40 41 42 42
58 58 57 55 55 55 54 55 55 55 55 50 49 48 52 53 52 49 45 49 49 49 49 48 48 48 47 48 47 46 46 44 43 40 40 42 41 41 40 40 40 40 41
57 57 56 55 55 55 54 53 51 51 49 51 49 48 50 49 49 46 47 48 48 48 48 47 48 47 47 47 46 45 44 42 42 40 39 39 40 40 38 36 36 39 38
56 56 54 55 55 54 52 48 47 47 48 48 48 47 45 45 44 44 47 48 47 47 47 47 47 46 43 44 45 45 43 41 40 39 38 38 37 37 35 36 34 36 37
55 54 54 51 50 48 46 45 44 45 46 46 43 43 42 44 40 40 42 46 47 45 46 47 47 41 41 39 38 38 41 41 38 37 37 35 36 36 36 34 33 32 30
53 52 51 48 46 45 45 45 42 43 44 42 42 43 43 43 40 40 39 45 46 46 46 46 46 44 40 44 39 37 35 34 35 39 35 36 34 35 35 33 33 33 32
49 49 49 48 45 45 44 44 42 42 42 43 45 43 42 42 39 38 37 45 45 45 45 46 45 45 44 42 41 41 41 40 39 37 38 38 38 37 36 34 33 33 35
47 47 47 46 46 46 42 42 45 44 45 42 41 40 43 44 38 37 38 43 43 43 44 44 44 43 40 37 38 38 39 39 37 35 35 34 33 32 34 34 31 30 28
46 47 48 49 48 46 45 43 42 41 41 44 44 44 41 43 39 37 39 42 40 40 42 42 37 40 37 35 37 36 34 38 38 37 37 36 35 36 33 35 35 29 28
46 46 45 44 42 42 43 45 45 44 43 42 41 42 42 42 42 37 37 40 40 39 40 40 41 36 35 35 35 36 34 38 35 36 36 37 37 37 37 37 37 33 29
43 42 43 44 43 43 43 43 43 42 41 40 37 40 42 41 38 38 36 36 39 37 38 40 40 36 35 35 35 33 32 32 34 33 33 32 33 34 37 37 37 35 35
42 41 41 41 41 41 41 41 41 41 39 38 38 38 39 41 41 37 35 35 35 36 39 38 35 35 34 34 33 33 32 31 31 31 31 32 34 36 36 34 34 35 35
40 39 39 39 39 40 41 40 40 38 37 37 36 35 36 36 38 40 39 40 36 34 35 37 35 33 33 34 32 33 33 33 32 31 32 34 35 32 32 33 31 31 30
38 37 37 36 36 37 38 37 36 38 36 34 35 34 32 32 34 35 35 35 35 35 33 33 33 32 32 31 33 33 32 33 31 31 31 31 31 32 31 33 31 30 27
35 34 32 33 33 34 34 34 33 32 32 32 32 32 33 32 30 31 32 33 34 34 32 32 32 32 32 32 31 32 32 31 31 31 30 30 30 30 31 31 30 29 27
31 31 31 30 31 30 30 29 28 31 31 31 30 30 28 28 28 29 28 30 32 33 31 32 32 32 33 32 31 32 32 33 32 30 30 30 30 30 28 30 29 28 27
30 26 28 29 28 28 28 27 27 26 24 26 29 28 26 25 26 28 28 28 32 34 33 32 32 33 32 30 30 31 32 32 30 30 30 30 30 30 29 28 29 27 27
28 27 26 26 26 24 24 24 25 24 23 23 25 25 23 21 24 25 25 24 22 22 23 27 32 33 34 32 31 31 31 31 30 29 29 29 29 29 28 29 29 24 23
25 22 22 23 23 22 21 21 21 20 20 20 19 19 19 18 19 19 21 21 21 21 21 22 23 24 32 32 32 31 31 31 30 29 28 28 29 28 28 28 28 27 27
23 22 18 21 20 19 18 18 17 17 17 16 16 16 12 14 16 16 18 18 18 19 18 18 19 21 22 24 26 30 31 31 30 29 27 27 28 27 28 29 28 26 27
19 19 19 17 17 15 14 15 14 13 14 13 13 14 11 14 14 14 15 15 16 18 19 17 17 18 19 21 21 24 26 29 30 29 28 28 27 28 28 28 27 26 26
16 15 15 15 14 11 11 11 10 10 11 11 10 10 11 11 11 12 12 13 14 15 16 16 15 16 17 17 19 21 22 25 26 30 28 27 27 28 27 27 26 25 25
14 13 13 12 10 9 8 8 8 7 7 8 8 8 9 8 9 10 10 11 12 13 13 13 14 15 16 16 16 19 22 24 25 25 29 28 28 27 27 27 26 25 25
13 11 10 9 7 7 6 6 5 5 5 6 5 6 7 7 8 8 9 9 9 10 9 10 13 14 14 14 15 16 19 19 20 23 26 29 28 28 27 27 26 25 24
12 11 9 8 8 6 5 3 3 3 3 3 4 4 4 5 6 6 7 7 8 6 7 10 11 11 12 14 15 16 16 16 19 21 23 28 28 28 27 26 25 24 23

GFSGL_sfc_temp_045.txt.gz
Temp
75 73 73 72 70 67 65 64 64 62 60 60 60 58 56 56 54 53 52 53 54 51 50 49 53 56 56 57 57 56 54 53 48 53 56 57 55 55 55 54 53 52 51
73 72 72 71 71 64 63 62 62 61 62 62 58 55 55 55 52 50 52 53 53 48 47 49 51 56 55 54 54 54 54 54 51 48 52 53 53 54 53 51 51 53 51
81 74 69 65 62 61 60 59 58 58 58 56 55 56 53 52 52 50 50 47 46 48 48 49 51 53 53 54 53 53 55 55 53 50 49 53 53 53 51 51 50 50 51
77 76 71 64 62 61 59 57 55 54 54 55 54 50 52 50 50 49 46 46 49 50 47 50 52 52 52 52 54 54 54 52 52 50 49 49 51 52 51 47 46 49 47
72 72 66 66 66 64 62 60 58 57 55 52 51 52 49 47 47 46 49 52 49 47 46 49 53 52 48 48 52 53 53 52 51 49 47 48 48 47 46 48 45 46 46
69 66 66 65 64 62 61 59 58 57 55 52 47 47 46 50 44 42 44 49 46 45 44 50 54 51 50 43 43 42 43 47 48 47 47 45 46 47 47 45 43 41 37
65 64 62 61 59 57 57 56 54 53 53 49 49 50 50 53 41 40 39 44 43 44 49 51 53 56 50 54 46 40 40 38 38 44 43 45 44 46 46 43 42 41 40
63 61 60 58 56 57 56 55 54 53 52 51 52 53 52 48 40 40 38 44 48 50 51 52 52 52 52 50 51 50 49 49 46 45 44 45 47 47 46 45 42 41 41
60 59 59 59 57 57 55 53 53 52 52 50 47 48 47 50 41 39 40 48 48 48 51 51 51 51 46 43 46 45 47 47 47 42 42 41 37 36 37 42 37 35 33
59 59 59 59 57 54 52 51 50 50 51 52 52 53 48 52 42 39 42 46 44 45 47 49 44 45 42 40 44 43 41 44 46 46 44 41 38 40 35 37 38 33 34
59 57 55 55 53 53 54 55 55 54 54 51 49 51 51 49 49 39 38 42 40 38 39 41 44 40 38 38 37 41 41 43 42 42 41 39 40 42 41 39 39 37 35
54 53 54 55 55 55 54 53 53 53 50 48 47 47 49 49 40 39 37 35 35 37 36 40 41 38 37 37 36 35 35 35 39 38 35 36 36 38 40 41 40 40 42
55 53 53 53 54 54 53 51 52 51 47 45 44 43 44 45 45 36 36 35 35 35 37 36 34 35 36 35 35 34 33 35 34 34 34 36 39 41 41 37 36 42 42
52 52 52 51 50 51 52 51 49 45 43 41 40 40 40 40 40 36 34 35 34 35 34 35 33 32 32 34 35 37 35 35 34 33 34 38 40 35 34 35 33 37 36
51 50 48 47 49 48 48 45 42 38 35 36 37 36 33 32 32 29 29 30 31 31 29 32 35 37 37 38 39 39 39 36 33 35 34 35 35 35 34 35 34 35 33
46 46 44 44 44 47 46 41 32 33 32 31 30 30 32 30 28 27 28 29 29 29 31 32 31 31 31 32 33 33 36 34 34 34 35 36 35 34 33 33 34 32 32
44 42 40 41 42 41 41 40 40 32 32 31 30 29 28 27 26 26 28 28 29 31 30 30 28 28 28 30 31 31 28 34 34 34 34 35 34 34 32 32 32 31 32
39 33 41 41 40 39 39 37 37 35 32 34 31 30 28 26 25 26 28 28 30 30 29 28 27 27 26 26 28 29 30 29 36 35 34 34 34 33 32 32 32 31 32
39 38 37 36 34 32 34 34 33 32 32 31 33 32 31 26 26 28 28 27 25 26 27 26 26 27 25 25 25 26 26 26 29 33 33 33 32 33 32 32 32 31 32
31 28 31 33 32 32 32 31 31 30 29 29 29 28 27 23 22 25 26 25 24 24 24 23 24 24 23 23 24 24 24 24 26 26 32 32 32 33 32 32 31 30 31
33 29 26 30 30 29 29 28 28 27 26 26 26 26 19 19 21 24 24 23 23 22 21 21 21 21 22 22 22 22 22 23 22 25 27 29 32 32 33 32 31 31 32
29 28 28 27 28 26 25 26 26 25 24 24 25 25 22 22 23 22 22 22 21 22 22 20 20 20 20 20 20 20 20 21 21 22 24 25 27 31 32 31 31 31 32
26 26 26 27 25 21 23 24 23 22 22 22 22 22 22 21 20 20 20 20 20 19 19 19 18 18 20 19 20 20 19 19 21 21 20 21 23 27 30 31 31 30 30
25 24 24 24 23 20 22 20 21 20 20 20 20 20 20 19 19 18 18 19 18 18 18 17 17 16 17 18 19 19 19 20 21 21 19 19 21 24 26 30 30 30 30
24 23 22 21 20 20 19 20 19 19 19 18 18 18 19 18 18 17 17 17 16 16 16 15 15 17 16 15 16 17 18 19 18 18 18 19 20 21 25 27 30 30 30
23 22 20 20 19 19 18 17 17 17 16 16 16 16 16 16 16 15 15 14 14 13 12 15 15 14 14 16 17 18 16 16 16 16 17 18 20 22 25 28 30 30 29

GFSGL_sfc_temp_048.txt.gz
Temp
74 69 67 67 67 66 63 63 63 60 58 56 56 55 55 54 52 49 49 50 50 47 47 46 46 48 49 48 47 46 45 45 40 41 44 45 44 45 47 45 46 43 42
70 69 68 68 67 62 61 60 59 57 57 57 56 55 54 52 51 49 48 50 48 45 45 45 47 51 46 48 46 45 45 44 41 38 40 41 42 43 43 42 47 50 43
74 69 68 65 62 60 58 57 57 56 56 55 54 53 52 50 49 48 48 47 45 45 45 46 46 47 47 47 48 45 45 49 44 39 37 41 40 41 41 42 41 40 46
70 67 61 59 58 57 55 53 52 52 51 51 51 50 49 48 47 48 46 45 45 45 47 46 46 46 47 47 47 44 46 44 45 41 40 38 38 40 39 37 35 37 38
68 64 59 59 59 57 56 55 53 53 52 50 48 48 47 47 47 46 47 45 45 45 45 47 46 46 46 45 47 43 41 41 40 38 36 35 35 35 35 36 36 36 35
64 63 62 61 60 58 56 55 54 52 50 49 48 45 43 48 42 43 44 46 46 44 42 45 45 45 46 42 42 43 44 42 39 38 39 38 35 35 35 35 34 31 29
63 63 61 59 56 54 54 53 51 48 48 45 45 45 46 47 42 41 40 43 43 43 42 42 45 51 45 46 44 41 39 39 40 41 37 38 38 38 34 35 34 32 30
60 59 58 56 54 54 53 51 48 48 46 46 46 48 48 45 40 40 39 41 41 41 42 43 42 43 43 42 40 38 40 41 41 40 37 38 39 39 36 36 36 34 31
58 57 57 56 54 53 51 49 50 50 49 47 46 45 44 45 40 39 39 40 41 40 44 42 42 41 41 40 38 36 38 40 44 43 41 40 40 39 37 32 28 30 25
57 57 58 57 54 52 50 49 47 47 47 48 48 47 44 44 39 38 39 36 34 32 35 39 38 39 38 38 34 33 32 33 35 35 38 36 36 35 36 34 31 29 27
58 57 55 54 51 51 50 49 49 48 47 43 43 43 45 40 37 36 36 32 29 30 30 31 32 36 36 35 35 32 32 35 34 34 34 35 34 36 36 33 34 32 29
54 51 51 52 54 53 49 48 48 46 42 39 38 37 37 36 35 35 34 34 33 29 29 30 31 34 34 34 33 34 35 34 33 33 33 33 33 34 35 35 35 33 34
52 52 51 52 52 51 48 45 45 43 38 34 33 33 33 33 32 33 33 32 32 28 30 31 32 32 32 32 34 34 32 31 31 32 31 32 34 35 35 34 36 36 36
50 49 49 47 47 47 48 46 41 35 33 32 32 31 30 31 27 27 27 27 29 29 28 27 27 29 30 32 32 34 32 32 31 31 32 34 32 31 33 33 31 31 30
49 48 45 43 44 43 38 38 33 32 31 30 29 29 26 24 25 27 26 26 25 27 24 25 27 27 27 27 28 29 30 29 29 32 32 32 30 28 33 33 31 30 29
45 42 38 38 39 42 38 34 34 32 32 31 30 28 27 28 27 27 28 29 29 29 24 23 21 21 22 24 24 25 25 26 27 26 31 31 29 31 32 32 31 29 28
38 39 36 36 36 35 34 34 27 30 32 31 31 30 28 27 27 27 28 29 29 29 20 21 18 19 21 23 23 23 23 25 25 25 29 29 29 28 28 30 30 30 29
36 35 37 35 35 34 33 32 32 29 27 27 30 30 28 27 27 27 28 28 23 25 23 21 19 20 21 21 21 21 22 22 22 22 24 28 24 27 25 29 29 29 28
35 34 32 30 28 29 30 30 30 29 29 28 29 28 26 26 26 27 29 21 19 20 21 21 19 19 19 19 18 19 20 20 20 21 21 24 28 29 26 26 28 28 28
27 27 30 30 29 29 29 28 28 27 26 26 25 25 23 20 16 18 18 17 16 18 17 18 18 18 17 17 17 17 18 18 18 20 20 21 23 26 26 23 27 29 28
26 25 26 28 27 27 27 26 26 25 24 23 23 20 18 17 16 19 18 16 16 16 14 16 15 16 16 16 17 15 16 16 17 18 19 19 19 20 22 25 27 29 29
25 26 27 25 27 24 23 24 23 23 22 21 21 21 20 16 19 17 16 15 13 14 16 15 14 15 15 15 14 13 14 14 15 16 16 17 18 18 20 22 25 29 29
24 25 25 25 23 21 21 23 21 21 20 19 18 19 18 17 16 15 14 11 12 13 12 14 13 14 13 13 14 15 13 13 14 14 14 15 16 16 17 18 22 25 28
23 22 23 22 21 19 19 19 19 19 19 18 17 17 17 15 14 12 10 11 10 9 9 12 12 10 12 13 14 14 14 14 15 15 14 12 13 15 16 18 19 21 27
22 21 20 20 19 19 18 18 18 17 17 16 15 15 15 14 14 12 10 10 9 9 10 8 10 12 11 11 11 12 14 16 14 14 13 12 12 13 15 17 19 23 26
21 21 20 19 18 18 17 15 15 15 14 14 13 11 12 12 11 8 11 8 10 8 7 9 9 9 9 11 13 15 14 14 14 14 15 15 13 14 16 17 19 21 25

GFSGL_sfc_temp_051.txt.gz
Temp
69 69 67 64 60 61 60 60 59 58 56 55 54 54 53 52 51 49 49 48 48 46 46 46 46 47 46 46 44 43 41 40 36 38 40 42 40 41 44 41 43 43 42
67 66 65 62 61 60 59 59 59 57 55 54 54 54 53 52 50 49 47 49 47 45 45 46 47 49 45 43 42 42 40 43 40 40 37 38 40 41 40 39 44 47 42
68 66 62 61 62 60 58 57 56 54 55 54 54 53 51 50 49 49 48 46 45 45 46 45 46 45 43 45 45 45 45 47 44 42 41 38 41 39 39 38 40 39 43
67 62 58 58 56 56 55 54 53 54 53 52 52 51 50 49 48 47 46 45 45 45 45 45 45 44 44 44 42 41 41 37 38 40 39 40 37 42 39 39 36 36 36
61 58 56 55 55 55 53 52 52 51 51 50 49 47 47 47 47 45 46 45 44 44 45 45 44 45 44 42 43 41 37 37 37 36 37 33 34 35 36 38 35 34 36
57 56 57 57 56 54 53 51 51 49 48 47 46 45 45 47 41 42 44 43 45 44 41 44 44 43 42 41 41 40 39 36 34 33 36 35 37 31 32 32 32 33 31
57 58 57 55 53 53 53 51 48 44 42 41 41 42 42 43 41 41 40 42 42 42 41 41 40 45 41 39 38 38 37 38 37 34 33 34 35 35 32 32 34 35 32
54 54 54 52 50 50 49 47 43 42 41 41 41 42 42 43 40 40 39 41 38 38 38 38 36 35 36 37 35 33 34 36 37 38 33 34 35 37 36 37 36 36 33
52 52 51 50 49 47 45 44 43 43 42 41 42 41 42 43 40 39 38 37 37 34 37 36 36 34 37 37 33 30 31 32 38 39 39 38 37 38 37 35 31 31 29
52 52 52 51 49 46 45 44 43 45 45 43 43 42 39 36 37 38 36 30 29 28 31 34 35 34 35 35 30 28 26 28 29 31 33 34 35 35 36 35 34 29 29
53 51 49 48 46 46 46 44 43 42 41 38 37 37 36 35 34 36 35 29 27 27 28 28 28 33 34 34 34 29 29 31 30 30 32 33 34 35 36 34 34 33 31
49 48 48 48 49 47 43 42 42 40 36 34 33 31 30 30 33 33 33 32 31 27 27 27 27 32 32 32 31 33 34 32 30 29 28 29 31 32 34 36 33 33 34
47 47 46 46 46 45 42 39 39 36 33 31 31 30 27 27 26 30 30 30 30 26 27 28 30 30 30 29 32 32 29 29 28 26 27 29 31 32 35 34 33 32 32
45 44 43 42 41 40 41 38 34 29 29 30 29 28 27 24 24 25 26 24 27 27 26 25 25 26 25 25 26 28 27 26 25 24 24 25 31 33 32 33 32 31 29
44 42 40 38 35 33 33 32 29 30 31 28 27 28 25 23 25 27 27 26 22 27 23 20 22 22 24 24 24 24 24 23 22 22 22 24 26 31 30 30 30 31 29
39 37 33 33 34 34 31 30 33 32 33 32 31 28 27 28 28 28 28 29 29 30 21 18 14 12 18 21 20 19 20 20 21 21 21 22 23 27 29 31 31 30 28
34 35 33 33 33 32 31 28 26 29 32 31 31 31 29 27 27 28 28 29 29 27 18 17 11 10 14 20 19 18 17 18 20 20 19 20 22 22 28 30 29 30 29
34 32 32 31 30 30 29 29 28 26 25 26 30 29 28 27 27 28 29 28 21 23 21 18 14 14 17 17 17 16 16 17 17 17 17 19 20 21 20 27 28 28 27
31 29 27 27 27 27 28 28 28 27 26 26 26 26 24 26 26 26 26 18 15 17 19 18 13 12 14 15 8 8 8 13 13 12 15 17 18 18 18 20 26 26 28
27 27 27 27 26 26 26 25 25 25 25 24 23 22 21 18 12 10 12 10 10 14 13 15 15 13 8 9 4 5 10 11 13 12 14 14 16 17 17 17 20 25 26
24 25 25 25 24 24 24 24 24 23 22 22 20 17 17 17 15 15 17 11 12 12 8 10 8 2 2 3 13 9 8 11 10 11 11 11 13 14 16 17 17 20 22
24 24 24 23 24 21 21 22 21 21 20 19 19 18 18 13 14 15 13 9 8 8 8 6 5 6 7 9 8 3 9 9 10 10 9 10 12 14 14 14 15 17 19
22 22 22 22 21 20 19 20 19 17 16 15 16 17 16 13 12 12 9 5 6 4 2 2 -2 4 5 2 4 11 9 9 10 11 10 10 9 9 11 12 13 15 16
21 20 20 20 18 17 16 15 15 16 16 14 12 12 12 10 5 4 4 1 0 -3 -6 -2 0 2 6 8 5 8 11 11 12 13 9 10 9 10 10 11 12 14 16
19 18 18 18 16 15 14 15 14 11 11 10 7 7 8 6 6 0 -3 -3 -3 -5 -1 -2 -1 3 4 3 5 7 10 13 12 12 12 11 10 9 10 11 12 14 17
18 17 17 16 14 12 9 7 5 5 4 3 2 -1 -2 1 -0 -6 -4 -3 2 -2 -4 -4 -1 1 2 6 9 11 11 11 11 13 13 12 11 11 12 11 13 14 15

GFSGL_sfc_temp_054.txt.gz
Temp
66 66 65 64 64 60 60 60 59 59 57 56 56 54 52 50 49 51 50 49 48 46 46 46 46 47 46 46 45 44 43 41 40 40 38 40 39 40 43 41 43 41 42
67 68 65 64 61 60 59 59 60 58 57 56 54 53 52 50 49 49 48 49 47 45 45 46 46 47 46 45 44 41 39 39 37 38 37 36 37 40 40 39 44 45 43
67 65 63 61 61 60 60 60 58 56 55 54 53 52 51 50 49 49 48 47 46 46 46 45 46 45 44 43 41 40 41 44 42 40 39 38 36 38 40 39 41 40 45
66 62 62 60 60 62 61 58 57 56 54 53 53 52 50 49 48 48 47 46 46 46 46 45 45 45 42 41 40 37 39 36 36 36 37 37 34 36 35 36 36 34 37
63 62 58 60 60 59 60 56 54 54 53 51 49 48 48 47 47 46 46 45 45 44 44 45 45 44 43 42 40 37 35 33 34 34 33 33 31 30 31 33 32 37 35
61 60 58 56 55 55 53 52 51 50 50 48 47 46 45 46 41 42 44 44 44 44 42 43 43 43 42 39 39 38 36 31 30 28 29 30 33 32 31 33 33 28 32
58 57 56 55 53 52 52 50 48 47 47 44 44 45 45 45 40 41 40 43 42 41 40 42 41 41 37 35 35 35 34 36 36 31 29 30 31 31 33 31 30 31 32
56 55 54 53 52 51 50 47 45 46 44 43 43 44 43 42 40 40 38 38 37 37 36 35 34 33 34 33 31 29 30 31 32 34 31 33 33 34 34 34 33 33 35
51 52 52 51 49 49 47 46 43 41 40 40 40 39 39 39 39 38 38 37 34 33 35 34 33 31 35 36 30 28 28 29 35 36 36 36 36 36 36 33 31 30 29
50 49 49 49 48 45 44 42 40 41 41 41 40 40 39 39 37 37 35 31 29 28 30 31 33 32 33 34 29 26 26 27 28 30 32 31 33 32 35 34 32 29 29
50 49 47 46 44 44 43 43 43 42 41 36 34 34 33 34 35 36 35 29 28 28 28 28 29 32 32 33 33 28 29 29 29 28 28 29 30 31 32 32 33 32 30
48 46 45 45 46 45 43 40 40 38 35 32 29 27 29 30 33 34 33 31 31 29 28 28 28 31 31 31 30 31 31 27 25 25 24 25 26 26 28 32 33 34 34
46 45 44 44 44 42 40 37 37 36 33 30 29 26 25 26 27 31 31 30 29 26 28 28 29 30 30 29 30 30 26 23 22 20 22 22 24 26 27 31 33 35 34
44 42 42 40 37 37 37 36 34 30 31 31 29 26 25 24 24 25 26 26 27 27 27 26 25 26 25 26 26 26 25 23 21 21 20 22 24 24 24 29 31 32 30
42 40 35 34 34 32 30 30 30 30 31 30 29 29 24 23 26 28 27 26 25 27 23 21 21 23 22 23 22 22 22 21 19 19 19 19 20 21 22 25 29 29 27
37 34 31 31 31 31 30 29 33 33 32 32 31 28 27 28 28 29 29 29 30 29 23 20 16 15 17 19 18 18 17 17 18 18 16 17 17 18 19 23 24 29 28
34 33 32 31 30 30 30 29 26 29 31 31 30 29 28 28 28 28 28 29 29 26 20 18 14 12 14 18 17 16 15 15 17 15 14 13 16 17 17 19 20 24 28
32 31 31 30 30 29 29 27 27 26 24 25 28 28 28 27 26 27 29 27 22 23 21 18 16 16 17 16 16 14 14 12 11 13 11 11 13 13 15 16 18 17 24
29 28 28 27 27 27 27 27 27 26 26 25 25 25 24 25 25 25 25 20 18 18 18 18 16 15 14 14 9 6 1 4 6 2 6 11 8 10 12 16 16 16 18
27 27 27 26 26 25 25 25 25 24 24 23 23 21 21 20 16 15 16 14 15 16 15 16 15 13 10 9 3 2 1 -3 5 4 7 1 5 9 10 13 14 13 16
25 25 24 24 24 24 23 23 23 22 21 21 19 18 19 18 17 16 17 13 14 15 12 13 10 6 2 2 6 2 1 3 8 6 7 7 7 8 11 11 12 14 16
24 24 24 23 22 20 20 22 20 20 20 18 18 18 18 16 17 16 15 12 11 12 12 9 7 6 5 5 3 -4 3 -2 -0 5 7 8 9 9 8 9 11 12 14
22 22 22 21 20 19 19 19 18 18 17 16 16 16 16 14 13 13 11 8 10 5 2 1 -3 0 1 -4 -2 3 4 6 8 9 8 7 8 8 8 7 9 10 11
20 19 19 18 17 17 17 16 16 16 15 14 13 12 11 10 7 7 5 2 -0 -6 -8 -9 -6 -2 0 -3 -5 -0 7 8 10 11 9 8 8 9 8 8 8 9 11
18 17 17 16 15 14 14 13 12 11 11 9 7 5 6 4 3 -5 -7 -7 -6 -10 -7 -6 -6 -2 -1 -1 -0 2 5 9 9 9 9 9 9 8 8 9 9 9 11
16 15 15 14 12 11 10 8 6 4 2 1 -1 -4 -4 -4 -4 -11 -10 -7 -7 -7 -6 -6 -4 -2 -1 1 4 7 7 5 6 8 8 8 8 8 9 8 9 9 11

GFSGL_sfc_temp_057.txt.gz
Temp
61 62 61 61 61 61 60 61 59 58 59 58 57 56 55 53 51 49 48 49 49 48 47 47 46 47 46 45 45 44 43 42 38 40 40 40 38 39 42 41 41 39 40
62 63 62 62 62 61 61 61 60 59 59 59 59 56 54 53 52 51 49 50 48 47 46 46 46 47 45 45 44 43 42 41 36 34 36 35 36 38 38 37 43 45 40
63 63 62 62 61 61 61 60 61 61 59 57 56 54 53 52 51 51 50 49 48 47 47 46 46 46 44 43 43 42 41 41 36 34 36 35 35 35 36 36 37 38 41
63 63 62 62 61 61 61 61 61 62 58 55 54 53 52 51 51 50 49 47 46 47 46 46 46 45 44 43 42 40 37 34 33 32 32 32 32 34 33 32 35 34 36
63 63 63 62 60 61 60 61 60 57 56 54 53 51 50 49 48 47 47 46 45 44 45 45 45 45 43 42 41 36 32 30 30 29 28 28 29 28 29 31 31 34 35
63 63 62 60 59 59 60 57 55 53 53 51 49 48 47 47 42 42 45 45 45 44 43 43 44 42 39 38 38 38 35 30 27 26 27 27 27 28 28 28 31 31 29
62 60 58 58 58 57 54 52 51 51 49 47 47 46 46 46 40 41 41 44 43 42 42 41 41 40 37 36 34 34 34 35 35 28 25 26 26 27 29 29 28 27 27
58 57 57 56 54 52 51 49 47 47 46 46 45 46 45 43 39 39 39 42 40 38 38 38 36 34 34 32 30 29 30 30 31 32 28 28 28 30 30 31 29 30 32
55 54 54 53 51 50 48 47 46 45 45 44 44 43 42 40 38 38 38 37 35 34 33 32 31 30 35 35 30 29 28 30 34 35 35 35 35 35 35 31 29 28 26
52 52 52 51 50 48 46 45 44 45 43 42 40 41 38 38 37 38 36 32 30 29 30 31 33 31 33 33 28 27 26 27 27 28 29 30 32 31 34 31 29 27 27
50 50 49 49 48 47 45 44 44 43 38 34 31 32 34 35 36 36 36 33 29 28 28 28 28 31 32 32 32 28 27 26 26 25 26 26 27 28 28 29 29 29 27
46 45 46 46 46 45 43 42 41 36 33 31 29 29 31 32 34 34 33 32 32 29 28 27 27 31 31 31 29 30 29 26 22 21 22 23 23 23 25 26 27 28 31
44 43 44 44 43 42 39 37 35 34 31 31 30 27 26 28 29 32 31 31 30 28 28 29 29 30 30 29 29 28 25 23 20 18 19 20 21 23 25 24 26 27 31
42 42 42 37 35 36 36 36 34 34 32 31 29 25 24 24 24 25 26 27 28 28 27 27 26 27 26 25 25 25 23 22 20 18 18 19 20 20 20 22 21 23 24
40 37 35 33 32 31 31 33 32 32 33 30 28 27 23 23 25 27 27 26 25 27 25 24 22 22 22 22 22 21 21 20 18 18 17 17 17 17 18 20 20 21 20
35 34 33 31 32 32 30 28 32 33 32 32 31 29 28 29 29 28 27 28 29 28 24 20 17 16 18 19 18 18 18 17 17 17 15 15 13 14 15 17 19 18 19
32 32 31 31 31 30 30 28 25 29 31 31 30 29 29 28 27 28 29 29 29 26 20 18 15 14 16 18 17 16 15 15 15 14 13 12 12 13 11 13 15 17 17
32 32 31 30 30 29 29 28 28 26 24 24 28 27 28 28 27 27 27 27 22 23 21 18 16 17 17 16 16 14 14 12 10 10 10 6 7 8 8 9 12 13 15
30 28 28 28 28 28 28 27 27 26 26 24 24 24 25 25 24 24 23 20 19 18 18 18 17 15 15 15 12 9 7 6 4 -2 1 1 -1 5 6 8 10 11 13
27 27 27 26 26 26 26 25 25 24 24 24 23 21 20 19 17 16 16 15 16 17 16 16 15 14 12 11 8 4 4 0 -1 1 -4 -6 -4 1 5 7 8 7 12
25 24 24 24 23 23 23 22 22 21 21 20 18 19 19 18 17 17 17 15 15 15 14 14 12 10 8 7 8 3 0 -3 -1 0 2 4 -5 3 7 8 7 8 11
23 23 22 21 21 20 21 21 20 20 19 18 18 18 18 17 17 16 15 12 12 13 12 10 9 8 8 6 3 -8 -7 -7 -5 -1 2 4 6 7 7 6 6 6 8
21 20 20 19 19 18 18 17 17 17 16 16 16 15 14 13 12 11 10 9 10 7 6 5 -1 3 2 -7 -8 -5 -3 1 4 6 6 5 7 6 6 6 6 6 6
19 18 18 17 16 16 15 14 14 14 14 12 11 11 10 8 4 4 2 -0 -1 -4 -6 -7 -4 -4 -1 -6 -9 -5 1 5 7 8 5 5 5 6 7 7 7 7 6
16 15 14 13 12 12 11 10 8 7 7 5 2 1 3 2 1 -6 -9 -8 -5 -10 -7 -7 -8 -4 -4 -4 -4 -2 0 5 1 2 4 5 5 5 6 7 7 7 7
13 12 11 10 8 7 4 1 -1 -1 -3 -3 -6 -7 -4 -3 -4 -12 -10 -9 -10 -9 -9 -8 -6 -5 -4 -2 0 3 1 0 0 3 4 4 3 5 6 7 7 7 8

GFSGL_sfc_temp_060.txt.gz
Temp
56 57 57 56 56 56 57 58 57 58 58 58 58 57 57 55 55 54 52 50 50 49 47 48 47 46 46 46 46 45 44 43 39 42 42 41 41 41 43 43 43 42 42
57 58 57 58 58 57 57 58 57 58 59 59 60 59 58 56 53 52 51 51 50 48 48 48 47 48 46 46 45 43 43 42 40 37 39 39 38 40 40 39 42 45 42
59 58 57 57 58 57 58 58 58 59 60 58 58 58 57 55 54 53 52 51 50 49 48 48 47 46 44 44 43 42 43 44 40 38 38 37 37 37 37 38 38 39 42
59 59 58 58 58 59 59 59 59 59 60 60 58 59 57 53 52 52 50 49 49 49 48 48 47 46 45 43 43 41 40 37 36 35 33 33 34 36 34 33 34 36 36
59 59 59 59 60 60 59 59 59 59 60 61 59 55 53 51 50 49 49 48 47 46 46 46 46 45 43 43 42 38 37 35 34 33 30 30 30 30 31 32 31 33 34
59 59 60 60 60 60 59 58 58 59 59 59 55 54 50 50 43 43 46 46 46 45 43 43 43 41 40 39 38 37 37 33 32 29 29 28 29 29 30 29 29 29 27
59 60 60 60 59 59 59 58 58 58 55 53 51 50 49 47 41 42 41 46 44 43 43 41 40 40 37 36 35 35 35 35 34 30 28 28 28 30 28 28 28 28 28
59 59 59 59 58 58 57 55 53 52 52 49 49 48 47 43 40 39 39 42 41 41 41 39 36 35 35 34 33 32 32 32 32 32 29 30 30 30 30 32 30 30 32
55 55 55 57 57 53 52 48 47 48 47 45 45 44 43 40 39 38 39 38 36 34 35 35 34 34 35 35 32 31 30 31 34 34 34 34 34 34 33 31 28 27 26
54 54 54 53 51 50 48 47 46 46 43 42 41 42 40 39 37 38 38 35 32 31 32 33 33 33 33 33 30 29 28 28 28 28 29 29 30 30 32 30 29 24 25
51 50 50 50 49 47 45 44 43 41 38 35 34 34 35 37 36 37 37 35 32 31 30 29 30 32 33 33 31 29 28 28 26 26 26 26 27 27 28 28 28 26 23
48 47 46 46 46 44 43 41 39 37 34 32 31 30 31 32 34 35 35 34 34 31 29 27 28 32 32 31 30 30 28 26 24 23 22 23 23 23 25 26 27 27 28
46 44 43 43 43 42 40 38 36 35 33 31 30 28 27 29 30 33 33 32 31 29 28 29 31 31 30 29 29 27 25 23 21 19 19 20 21 22 24 24 25 26 26
43 41 40 38 37 37 37 37 35 33 32 31 30 27 27 27 27 28 28 28 28 28 27 27 27 27 26 26 25 25 23 22 20 19 18 20 20 19 19 22 20 21 21
39 38 35 35 34 32 31 32 33 34 35 32 31 29 26 25 26 28 28 26 26 26 25 24 23 23 23 23 22 22 21 20 18 18 17 17 16 16 17 19 18 18 17
34 33 32 31 31 32 31 29 32 32 32 32 31 29 28 28 28 29 29 29 29 27 24 20 18 18 19 20 18 18 18 18 17 16 15 15 14 13 14 15 16 15 15
32 32 31 31 31 30 29 28 25 28 30 30 29 29 28 28 28 29 30 29 28 26 20 19 17 16 17 19 18 17 15 16 16 14 13 13 12 11 11 11 12 12 13
31 30 30 29 29 28 27 26 27 25 23 25 28 28 28 28 28 28 29 26 22 22 20 18 16 17 17 17 16 15 15 14 12 11 10 10 8 8 8 8 9 8 10
30 29 29 28 28 28 28 27 27 25 24 24 24 24 25 26 26 25 25 21 20 19 19 19 17 16 16 15 14 12 10 9 8 6 6 6 5 5 6 7 7 7 7
26 26 26 26 26 25 25 25 25 24 24 23 21 20 20 20 17 17 17 17 18 18 17 17 16 15 13 13 11 9 7 7 6 6 6 3 1 1 3 4 6 6 8
23 23 23 23 22 22 22 21 21 21 20 18 17 19 19 18 17 17 17 15 15 16 14 14 13 11 10 9 10 7 5 3 3 3 2 3 -2 1 5 7 7 7 8
21 21 21 20 20 19 19 19 18 18 18 17 17 16 16 15 14 14 12 11 11 12 11 10 8 8 7 6 4 -2 -1 -2 -2 -1 0 1 4 6 7 7 6 6 7
19 19 19 19 18 17 16 16 15 14 14 13 13 13 12 11 10 10 7 4 5 1 1 1 -2 1 2 -3 -3 -1 -3 -0 2 4 4 4 5 5 5 5 6 6 7
17 16 16 15 14 13 12 11 12 12 11 9 7 6 3 -1 -5 -5 -8 -10 -8 -9 -10 -10 -6 -2 -1 -4 -6 -4 0 1 4 6 4 3 3 4 5 5 6 6 7
14 12 11 10 8 7 5 5 4 2 0 -2 -3 -6 0 1 -2 -13 -14 -11 -9 -13 -8 -9 -9 -5 -4 -5 -5 -3 -3 2 3 2 3 3 3 2 3 5 5 7 7
9 8 7 6 4 3 -0 -3 -5 -6 -10 -11 -13 -10 -7 -5 -8 -15 -13 -11 -10 -9 -9 -9 -7 -6 -6 -3 -1 0 0 -1 0 1 2 3 2 1 3 5 5 6 7

GFSGL_sfc_temp_063.txt.gz
Temp
62 62 62 62 62 62 62 63 64 64 65 65 66 66 66 66 64 62 59 58 57 58 55 54 55 55 53 53 54 55 55 50 48 47 50 49 49 47 50 55 54 54 55
62 62 61 61 61 60 60 62 63 64 65 65 65 64 60 60 60 57 57 55 53 53 52 51 53 51 51 53 50 48 52 47 44 43 46 46 46 52 52 51 53 54 53
62 62 61 61 61 60 61 62 63 63 64 65 65 64 64 62 60 58 57 55 54 55 52 51 52 51 50 47 47 45 47 48 51 45 47 48 45 51 50 50 49 50 51
63 62 62 61 61 62 63 62 63 63 63 64 65 64 63 63 60 57 55 53 52 52 52 51 51 49 47 46 46 44 49 42 41 44 38 40 45 49 47 45 45 47 46
63 63 62 63 63 63 63 63 63 63 64 63 63 64 64 62 59 57 56 55 53 50 49 49 48 48 45 45 45 41 41 39 37 37 37 39 41 44 43 45 41 43 45
63 62 64 64 64 63 63 63 63 63 64 64 62 62 59 56 47 47 51 52 50 48 46 46 46 43 41 40 39 39 42 38 35 36 37 37 40 42 42 40 39 38 38
64 64 64 64 63 63 64 64 63 62 62 61 60 59 57 55 44 45 44 49 48 46 45 43 41 40 38 37 35 35 35 35 37 39 37 37 38 40 38 37 37 37 37
64 64 64 64 63 64 64 63 63 61 59 58 57 54 54 50 43 41 40 46 44 44 43 41 37 36 36 35 34 34 34 35 35 35 37 39 38 39 38 38 37 37 39
63 63 64 64 63 63 62 62 55 53 50 49 48 48 46 42 39 39 41 40 37 36 37 37 36 35 35 36 35 33 33 33 34 33 33 33 33 33 33 36 34 33 32
63 64 64 63 61 56 52 49 47 48 44 43 42 44 40 39 37 38 39 37 33 32 33 33 34 33 33 33 33 34 32 32 32 34 34 33 32 33 30 33 33 29 31
57 56 56 57 53 51 48 46 44 41 39 36 35 36 38 38 37 37 37 36 33 32 31 30 32 33 33 33 33 34 32 33 29 30 31 31 31 31 31 31 31 30 28
52 50 49 48 47 47 45 43 40 38 35 33 32 31 32 34 35 35 35 35 34 32 31 31 31 33 33 31 32 29 28 28 28 28 27 27 27 28 28 29 30 30 32
48 45 44 44 44 43 40 38 36 35 34 32 31 29 29 30 32 33 33 33 32 31 31 32 32 32 31 30 28 27 27 27 26 25 25 26 26 27 28 27 28 30 30
43 42 41 39 38 39 38 37 36 34 33 32 31 29 28 28 28 29 30 30 30 30 30 31 30 29 29 28 28 27 27 26 26 25 24 25 26 25 23 25 24 25 24
41 39 36 35 34 32 32 34 33 34 35 33 31 30 28 26 27 29 29 28 28 27 28 28 27 26 27 26 26 26 26 26 24 24 23 22 22 22 22 24 23 23 21
36 37 36 35 33 32 30 29 32 32 32 31 31 29 28 29 29 29 29 28 28 27 27 25 23 24 25 26 25 25 24 22 22 19 19 19 19 19 19 21 21 20 19
34 34 34 34 33 31 30 30 27 29 30 30 30 29 29 29 29 29 30 29 27 26 24 23 22 22 23 23 22 21 19 20 18 18 18 18 18 18 16 17 18 18 18
31 30 30 29 29 29 28 27 27 26 25 26 28 29 29 29 29 29 28 27 26 26 25 24 22 22 22 21 20 20 20 19 18 17 16 16 15 15 14 15 16 15 16
29 28 28 28 28 28 28 27 27 27 26 25 26 26 27 27 26 26 26 26 25 24 24 24 23 22 22 21 19 18 17 16 15 14 14 14 14 14 13 14 15 13 13
25 25 26 26 26 26 27 26 27 26 25 24 23 23 24 25 23 22 23 23 23 22 22 21 21 20 19 18 17 15 15 15 15 14 14 13 13 13 12 12 13 13 15
23 23 24 24 24 24 24 24 24 24 22 22 21 21 21 23 21 21 20 19 19 19 17 18 17 16 16 15 15 14 13 13 12 12 12 12 11 11 12 13 13 14 14
24 23 23 22 22 21 21 21 21 20 20 19 18 17 17 19 18 17 16 16 15 16 16 14 14 14 13 12 12 11 10 9 10 10 10 10 10 12 12 12 12 12 13
22 21 20 19 19 18 18 19 18 18 17 17 17 16 16 15 15 14 12 12 12 12 11 12 10 10 11 10 10 9 7 8 9 9 8 9 10 10 10 10 11 11 12
19 19 18 16 16 15 15 15 14 13 14 14 14 13 12 11 10 9 9 10 10 10 9 7 7 6 6 6 8 8 8 8 8 9 9 8 8 9 10 10 10 11 11
15 14 13 12 12 12 11 11 10 10 10 10 10 10 10 10 9 8 8 7 6 6 6 5 5 5 5 3 3 3 4 3 6 5 6 7 7 7 7 8 9 10 11
12 12 11 10 9 9 8 8 6 7 6 6 7 7 7 7 7 6 5 5 4 4 4 5 4 3 2 3 4 3 1 1 1 2 4 6 6 7 8 8 8 10 10

GFSGL_sfc_temp_066.txt.gz
Temp
70 70 69 70 71 71 71 71 72 72 73 72 72 72 72 72 73 72 71 71 70 67 64 60 59 59 57 57 56 57 57 57 53 57 60 60 55 53 53 56 58 57 61
71 71 69 69 70 69 69 71 71 71 72 73 73 72 73 73 73 72 71 69 66 60 59 57 55 55 53 54 54 52 53 55 59 53 52 51 49 54 58 57 56 60 60
71 70 69 68 69 69 69 69 70 70 71 72 72 72 72 72 72 71 69 64 58 57 57 56 54 53 53 53 51 51 52 53 50 46 52 49 51 48 49 51 53 56 59
71 71 70 69 69 69 69 69 69 70 69 70 71 71 71 71 71 71 69 61 60 57 56 56 55 54 52 51 49 49 47 44 46 44 43 42 45 48 47 47 50 55 54
71 71 70 70 70 70 69 69 69 69 69 70 70 70 71 69 70 70 69 66 63 59 57 56 55 52 48 50 48 46 45 43 41 42 41 39 41 42 43 49 50 50 52
71 71 72 71 71 69 69 69 69 69 69 69 69 69 69 69 54 47 56 65 61 59 55 53 51 46 44 42 42 42 44 42 40 37 37 37 40 44 47 47 47 45 44
71 72 72 72 71 70 70 69 69 68 68 67 68 69 68 69 46 45 45 58 57 54 51 48 44 45 43 42 37 37 36 37 39 42 38 41 43 46 46 44 44 44 44
73 72 72 71 71 71 70 69 69 69 67 66 66 67 67 67 45 46 44 53 50 48 47 46 44 40 40 38 37 35 36 35 36 38 40 41 41 43 44 44 43 41 42
74 73 73 72 71 70 69 69 69 68 66 65 63 62 59 52 41 40 43 44 41 39 39 40 39 35 35 37 33 32 32 32 34 34 34 34 33 33 35 40 37 37 36
75 75 75 73 71 70 69 68 65 65 57 49 45 45 42 42 38 39 42 39 35 33 34 35 35 34 33 33 32 31 30 32 33 33 33 33 33 35 31 35 38 33 35
73 72 71 71 69 70 66 58 51 45 42 39 37 38 39 39 38 38 38 36 33 32 32 31 32 33 33 32 34 34 33 34 31 34 35 37 39 37 38 38 37 36 33
64 63 61 59 53 53 48 45 43 41 37 35 34 33 34 35 35 36 36 35 34 32 30 30 31 32 31 31 31 30 30 31 31 33 34 33 34 35 36 37 36 36 37
49 47 45 44 44 44 43 40 39 38 36 34 32 31 30 32 32 33 32 32 31 30 30 31 31 31 31 29 28 27 28 30 30 30 30 31 33 35 34 32 33 34 34
43 42 42 40 39 40 40 38 37 35 34 33 32 29 28 28 28 29 29 29 30 30 30 30 31 30 31 28 27 29 31 30 29 30 30 32 32 30 29 30 28 29 28
40 39 37 36 34 32 32 34 34 35 36 33 31 30 27 25 27 29 29 28 28 28 29 30 29 29 31 32 31 30 31 31 30 29 27 26 26 27 28 28 27 27 25
36 36 35 34 34 32 31 30 32 32 32 31 31 30 29 30 30 30 30 30 29 29 30 29 29 30 30 30 30 30 30 26 28 26 25 25 24 24 25 26 26 25 24
32 32 33 33 34 31 30 28 26 29 30 30 30 30 31 30 30 30 29 28 27 29 30 29 28 28 27 28 27 27 26 25 24 25 24 23 23 23 22 23 23 24 23
31 30 30 29 29 28 28 27 27 26 24 26 29 29 30 29 29 28 28 28 28 29 29 28 26 26 26 26 26 26 25 24 23 22 21 21 20 21 21 21 22 21 22
29 29 29 29 28 28 28 28 27 26 25 25 26 26 27 27 27 28 29 29 28 27 28 26 26 25 25 25 23 22 21 21 19 19 20 20 19 19 19 20 20 18 18
27 28 29 29 29 28 28 28 27 26 26 25 25 25 27 28 26 25 26 26 25 24 25 24 23 23 22 21 21 20 20 20 19 19 18 18 18 18 17 17 18 18 19
29 28 28 28 27 27 27 26 26 24 24 23 21 22 24 25 24 23 22 21 21 21 21 22 21 20 20 20 20 19 17 17 17 16 16 16 16 15 16 17 17 17 17
28 27 27 26 26 25 25 25 25 23 23 21 20 21 22 22 21 20 19 19 19 19 20 19 19 19 19 17 16 15 14 14 14 14 14 14 14 15 15 15 15 15 15
27 26 25 25 24 23 23 24 23 22 21 21 21 20 20 19 19 19 17 17 18 17 16 16 15 15 16 15 15 14 13 13 13 13 12 12 13 14 14 13 13 13 14
24 23 22 21 21 21 20 20 19 18 20 19 19 18 17 17 16 15 15 15 15 15 15 13 13 12 11 11 13 13 14 13 12 11 11 11 11 12 12 12 13 13 13
21 20 19 18 18 18 17 17 17 16 16 16 16 16 16 16 15 15 14 14 12 12 12 11 12 11 10 7 8 8 9 7 7 7 8 9 10 10 10 11 12 13 13
18 17 17 17 15 15 15 14 14 14 13 14 14 14 14 14 14 12 12 11 10 9 10 11 10 9 7 9 9 7 4 2 3 3 5 7 8 10 11 11 11 12 12

GFSGL_sfc_temp_069.txt.gz
Temp
74 72 68 69 69 70 71 72 72 71 71 70 70 70 70 70 71 71 71 72 71 70 70 70 68 67 64 62 61 59 56 55 52 55 52 58 58 61 57 59 59 59 59
76 74 72 71 71 71 71 73 74 73 74 73 74 73 73 73 73 72 71 73 71 70 70 70 66 64 63 61 56 55 56 55 54 52 52 53 56 57 53 54 59 62 61
76 75 73 72 72 72 72 73 74 73 74 74 75 73 74 73 73 73 73 72 71 71 70 70 65 61 56 56 55 55 54 54 54 52 49 48 52 49 50 54 52 53 59
76 75 73 73 73 73 73 73 73 73 73 73 73 73 73 73 74 73 73 71 71 71 70 69 64 60 57 56 54 54 53 51 50 48 45 45 44 44 46 45 45 51 54
75 75 74 74 74 73 73 73 72 72 73 73 73 72 73 73 73 72 73 71 70 68 67 65 61 60 54 55 55 53 51 48 46 44 41 39 40 41 41 44 41 45 51
76 75 76 75 75 73 73 72 72 71 72 72 71 71 70 72 58 51 60 70 68 68 64 62 62 52 50 45 45 45 48 46 45 44 42 41 38 40 39 39 40 41 43
76 76 76 76 75 73 73 72 71 70 70 70 70 70 70 70 52 49 47 66 66 62 58 61 57 53 47 49 40 38 35 38 38 43 39 37 36 39 40 39 41 42 42
78 77 77 76 75 75 73 72 71 71 69 68 69 70 70 70 50 46 43 63 66 65 64 60 53 46 45 41 38 34 33 33 34 35 34 33 34 37 41 42 43 43 43
78 77 78 78 76 75 73 71 72 71 70 69 69 68 67 68 44 42 44 54 46 40 41 41 41 38 38 39 34 32 32 31 33 33 33 32 32 32 34 40 37 37 35
81 80 80 79 77 75 74 72 71 71 69 67 55 49 42 50 41 42 44 41 36 34 34 35 35 36 35 37 35 33 29 28 29 28 29 32 34 32 32 35 38 34 34
73 76 77 78 77 76 75 74 72 63 49 42 39 38 38 38 39 39 39 37 34 33 32 32 32 34 34 34 34 32 30 30 29 32 34 35 36 37 38 37 38 37 33
61 59 56 56 58 60 59 53 50 46 40 37 36 34 34 35 35 35 35 35 35 32 30 31 32 32 32 31 30 30 30 30 30 30 33 34 36 36 38 39 38 37 38
48 47 45 44 44 44 43 42 40 40 38 36 33 31 30 31 32 33 33 33 32 31 31 31 31 30 29 28 29 29 29 30 31 31 32 33 35 36 36 34 34 35 35
39 38 38 37 37 37 38 38 36 35 34 33 31 29 29 29 29 30 31 31 31 30 29 29 29 28 27 27 28 29 29 29 29 28 29 32 34 32 31 32 30 30 29
36 35 35 34 33 31 30 32 32 33 34 32 30 30 28 26 28 30 31 30 30 28 29 30 29 29 28 29 29 30 30 31 30 30 28 27 28 28 28 30 29 28 25
34 33 32 32 32 31 30 29 32 32 32 31 31 30 30 31 31 31 31 31 31 31 31 31 30 30 30 30 30 30 30 28 28 27 26 26 25 25 25 27 27 25 24
32 32 31 30 29 29 29 28 26 29 31 31 31 31 31 30 30 30 30 30 30 31 29 29 28 28 27 28 27 27 26 26 26 26 25 25 24 24 22 23 23 23 23
30 30 30 30 29 28 27 26 26 25 25 26 29 29 29 29 29 29 29 30 28 28 28 27 26 26 26 26 26 25 24 24 23 23 22 22 21 21 20 21 22 21 21
30 31 29 30 29 28 28 27 27 26 25 25 26 26 27 28 28 28 29 27 25 25 25 25 25 25 25 24 23 23 22 22 21 21 22 21 20 19 18 19 19 18 18
30 30 30 29 29 29 29 27 26 25 24 24 25 26 27 26 23 23 23 24 24 23 24 23 23 23 22 22 22 21 21 21 20 20 19 18 18 18 16 17 17 16 17
30 30 28 29 29 28 27 26 25 24 22 22 22 23 24 24 22 21 20 21 21 21 21 22 22 21 21 21 20 19 19 18 18 17 17 17 16 15 16 17 16 16 17
30 29 28 27 27 27 26 26 25 24 23 22 22 23 23 23 22 20 20 19 20 20 21 20 20 19 19 18 17 16 16 15 15 15 15 14 15 15 16 15 15 14 15
27 26 26 26 25 25 24 24 23 23 22 21 21 21 21 20 19 19 18 18 18 18 17 17 16 16 17 15 16 16 14 14 14 14 12 12 12 13 14 13 13 13 13
26 26 25 23 23 23 22 21 21 21 21 20 20 19 19 18 18 17 16 16 16 16 16 15 15 14 12 12 14 14 14 13 12 11 11 10 11 12 12 12 12 12 13
23 22 22 21 21 21 20 20 19 20 19 19 18 18 18 18 17 16 16 15 14 14 14 14 14 13 12 10 10 10 10 7 7 6 7 8 9 9 10 11 12 13 13
21 20 20 20 19 19 18 18 17 17 16 17 16 16 16 16 15 15 14 14 11 11 12 13 13 11 10 11 12 9 5 4 4 4 5 6 7 8 10 11 12 11 12

GFSGL_sfc_temp_072.txt.gz
Temp
64 63 62 63 65 65 66 66 66 65 66 65 64 64 64 64 65 65 65 65 63 64 63 62 62 62 61 61 60 59 58 57 54 57 55 55 53 54 51 54 55 52 49
68 65 63 63 64 64 65 65 65 65 66 66 66 65 65 65 65 64 63 65 64 63 64 62 62 63 61 61 60 58 58 58 56 54 56 52 52 53 50 51 55 58 55
72 69 66 64 64 64 64 66 66 66 66 66 66 66 66 65 65 65 65 64 64 64 64 63 63 63 61 61 60 58 58 57 56 54 55 49 49 48 48 49 48 50 55
73 72 68 66 65 66 66 66 66 68 67 67 67 66 66 66 67 66 66 65 65 65 65 64 64 63 62 60 59 57 56 55 54 53 53 44 46 45 48 46 44 46 47
72 72 70 69 69 68 67 67 67 67 68 68 67 67 67 68 69 67 68 66 65 66 65 65 65 63 56 57 57 56 55 53 53 51 50 41 41 39 43 44 43 41 42
72 71 72 71 70 68 68 68 67 67 67 67 67 67 66 68 58 52 59 66 66 65 64 64 64 52 51 47 46 47 54 54 52 50 49 45 45 41 38 37 36 35 32
72 72 72 72 70 69 69 68 67 66 66 65 66 66 66 66 52 49 48 64 64 63 62 62 61 58 49 55 45 40 36 36 40 48 45 37 35 37 37 34 33 32 32
75 74 73 72 71 71 69 68 67 66 65 65 64 65 65 66 50 48 45 57 61 62 61 60 55 54 50 46 38 34 33 34 35 36 35 34 35 36 36 34 32 32 32
73 74 75 73 72 70 69 68 67 66 65 64 65 63 63 63 48 46 45 54 57 43 40 40 43 41 39 39 35 33 31 30 33 34 34 34 34 34 34 33 31 30 30
59 62 64 73 72 71 69 68 67 67 65 65 60 47 40 48 39 41 44 43 37 34 34 35 35 36 36 36 35 33 30 28 29 28 28 30 30 30 31 32 31 29 30
54 54 52 54 55 60 67 66 65 63 47 41 37 36 37 38 38 39 40 38 35 32 32 32 33 34 35 34 34 31 29 30 30 29 29 29 30 31 32 33 34 31 29
45 43 42 42 44 47 50 47 46 43 39 36 34 32 33 34 35 36 36 35 35 32 31 31 32 33 33 32 31 31 31 30 29 28 28 28 29 31 33 33 33 33 34
40 38 37 37 36 37 38 39 39 39 36 34 32 30 30 32 32 34 34 33 32 31 31 31 31 31 31 30 31 31 30 30 29 28 27 28 28 30 31 31 32 32 32
38 36 35 33 32 32 33 34 33 34 33 32 31 29 29 29 30 31 30 30 30 29 29 27 27 27 28 28 27 28 27 27 27 26 26 27 28 28 27 29 27 27 25
36 35 33 32 31 30 30 30 30 31 33 30 29 29 28 27 29 31 29 28 28 28 28 28 27 27 27 27 27 27 27 27 25 25 25 25 25 26 25 26 25 23 19
33 32 31 30 30 30 29 29 31 32 32 32 31 31 30 31 32 32 32 32 32 31 30 29 28 28 27 27 25 25 25 23 24 25 23 23 22 22 22 23 24 22 21
31 31 30 30 29 28 28 27 25 28 30 30 31 31 31 31 31 31 31 31 31 30 26 25 24 24 24 24 24 23 22 23 24 22 20 20 20 20 20 20 20 20 19
31 30 29 29 28 27 27 26 26 24 23 24 28 29 29 30 30 30 30 29 25 26 24 23 22 22 22 21 21 21 21 21 19 18 16 15 15 16 15 16 16 14 15
30 30 30 29 28 28 27 26 26 25 24 24 25 25 25 27 27 27 27 23 22 21 21 20 20 20 20 21 20 19 18 17 16 14 15 14 9 13 11 12 12 11 12
28 28 29 28 27 26 25 24 23 22 21 21 22 22 23 22 19 19 20 20 19 20 20 20 20 19 18 18 17 16 15 14 14 12 9 7 7 8 8 7 7 9 13
28 27 27 27 26 25 24 23 22 21 20 20 20 21 21 19 18 18 17 17 17 17 17 18 17 17 16 15 15 13 13 10 10 9 10 10 2 4 9 8 9 11 12
26 26 25 24 24 24 24 24 23 21 21 20 19 20 20 19 18 17 16 15 15 15 16 15 15 14 13 12 11 7 7 4 5 6 4 3 5 6 8 9 7 5 9
25 24 23 23 23 21 20 21 20 20 19 18 18 17 16 15 14 14 13 13 14 13 13 12 11 11 9 8 9 10 6 7 7 4 0 0 4 6 6 4 7 6 6
22 22 22 20 19 19 19 18 18 16 17 17 16 15 14 13 13 11 10 8 8 9 9 5 10 6 5 3 2 4 8 4 3 3 1 0 2 5 3 5 5 4 7
20 19 19 18 18 17 16 16 16 15 15 14 14 14 14 14 12 11 9 10 8 5 6 6 5 5 5 0 2 4 1 -2 -5 -4 -3 1 -1 -2 1 5 7 9 8
18 17 16 16 15 15 14 13 13 13 12 12 12 12 12 11 9 9 8 5 2 3 6 4 6 3 3 5 5 1 -3 -2 -4 -2 -5 -0 -2 -1 3 5 5 5 7

GFSGL_sfc_temp_075.txt.gz
Temp
60 61 62 63 63 64 63 62 62 63 63 62 63 62 63 62 63 62 62 61 60 61 61 60 60 59 59 58 59 59 58 57 55 58 58 58 55 57 58 58 58 57 56
60 60 60 62 63 63 63 63 62 62 64 62 62 62 62 62 62 61 62 64 61 61 61 60 60 60 58 60 59 58 58 58 56 55 58 56 52 54 57 52 54 57 52
61 60 59 59 62 63 63 64 63 63 62 63 63 61 62 62 62 62 62 62 62 61 61 59 59 58 58 59 58 58 59 59 58 57 57 58 55 49 50 49 51 52 53
63 62 59 59 60 62 64 63 64 62 63 62 63 62 61 62 62 63 63 62 62 62 61 60 61 61 59 59 58 58 59 58 58 56 56 55 51 48 50 51 45 48 49
66 64 61 61 61 61 61 62 62 62 63 63 63 63 63 63 63 62 63 62 61 60 61 62 62 60 55 58 60 59 58 57 57 55 53 53 46 40 44 48 48 48 42
66 66 66 64 62 61 61 62 62 62 63 63 62 62 62 63 55 50 57 62 62 61 60 61 62 53 53 49 48 50 57 57 56 55 54 52 52 49 46 41 37 36 35
66 67 67 65 64 63 63 63 62 62 62 62 62 63 62 63 50 48 47 62 61 61 61 61 60 59 51 58 45 39 37 37 39 50 52 51 43 38 37 35 34 34 33
59 60 63 62 65 65 64 64 63 63 62 62 62 62 63 64 49 47 45 56 61 61 61 60 59 58 54 51 40 35 33 34 35 37 37 35 35 36 37 36 34 32 32
53 53 52 54 55 63 62 63 64 63 62 62 63 61 60 62 47 47 46 56 57 58 43 42 46 48 43 41 37 33 31 31 34 35 35 34 34 35 35 35 32 31 29
49 48 48 47 48 48 51 53 59 61 62 61 58 49 40 51 39 41 42 51 46 37 35 35 36 38 36 37 35 33 29 28 29 30 30 30 31 32 33 32 32 29 29
46 45 43 42 43 42 45 46 45 50 50 45 42 37 37 37 38 39 40 41 41 34 33 32 34 35 36 35 35 33 30 30 29 30 30 30 30 31 30 30 30 30 28
42 41 39 38 39 39 38 39 40 40 40 37 35 32 33 33 34 35 35 35 35 32 31 32 32 33 33 32 31 31 31 30 30 29 28 28 28 27 28 28 30 31 32
38 36 35 35 35 35 34 33 33 36 35 33 32 31 32 32 32 33 33 32 32 31 31 31 32 31 31 30 31 30 30 30 29 27 26 26 27 28 29 29 29 30 31
35 33 33 32 31 32 33 32 31 32 31 31 31 29 29 30 29 29 29 29 29 28 28 28 28 28 27 27 27 28 28 27 26 25 25 26 27 26 25 27 26 26 26
34 33 31 31 30 30 30 30 30 30 32 30 29 29 28 27 28 30 29 28 28 28 28 28 27 27 26 25 26 25 25 25 24 24 23 23 23 23 23 25 25 24 21
31 30 30 29 30 29 29 28 31 32 32 32 32 32 31 32 32 32 32 32 32 31 28 26 24 24 24 24 22 21 22 23 23 22 21 21 20 21 21 22 23 21 19
29 29 29 28 28 28 27 27 24 27 30 30 31 32 31 31 31 31 30 30 29 28 24 23 22 22 22 22 21 21 19 20 21 20 20 19 19 19 18 18 18 17 16
29 28 28 27 26 26 25 25 25 23 22 22 26 28 29 29 29 29 28 26 22 23 22 20 20 20 20 20 20 20 19 18 18 18 16 15 15 15 14 14 14 11 13
28 28 27 25 25 24 24 23 22 22 22 21 22 22 22 25 25 24 24 20 19 19 19 18 18 18 18 18 17 16 15 14 14 13 13 12 10 12 11 11 10 9 10
26 26 26 25 24 22 21 21 20 20 19 19 18 18 19 19 17 16 17 17 16 17 17 17 16 15 15 14 13 13 12 12 11 11 7 5 4 6 5 5 5 4 10
23 23 23 24 23 23 22 20 20 19 17 17 17 19 18 17 15 14 13 12 12 13 13 13 12 12 11 11 11 9 8 8 7 6 4 3 -8 0 4 3 4 7 9
23 23 22 21 21 20 21 20 19 18 17 16 14 14 14 13 13 12 12 10 10 10 11 10 9 8 8 8 7 3 4 3 1 -1 -1 -0 1 1 2 0 -2 -3 4
22 20 20 20 20 19 17 18 17 16 14 12 12 12 10 7 7 7 6 8 9 5 6 6 3 5 4 3 2 2 3 -0 -4 -8 -9 -8 -3 -2 -4 -5 -1 -1 -2
18 17 18 17 17 16 15 14 14 14 13 12 11 11 10 9 5 -1 -1 -4 1 -2 -5 3 1 2 1 -5 -8 -1 -0 -8 -7 -8 -13 -13 -6 -1 -5 -1 0 -2 0
14 13 13 13 13 11 11 10 10 9 7 7 8 8 9 7 8 2 -3 -3 -1 -2 4 4 2 -1 -3 -4 -2 -3 -6 -5 -11 -8 -10 -10 -11 -11 -7 -2 0 5 -1
13 11 11 10 9 9 6 4 4 6 2 2 1 5 2 2 1 3 -4 -3 -3 -1 -2 -4 -2 -2 -2 1 1 -2 -7 -5 -7 -6 -10 -8 -9 -7 -8 -6 -4 -3 1

GFSGL_sfc_temp_078.txt.gz
Temp
62 62 62 62 62 62 60 59 60 60 60 60 61 60 61 61 61 60 61 61 60 60 60 58 58 60 60 59 59 60 58 57 55 58 58 57 53 55 56 55 56 57 57
60 60 61 62 62 61 62 61 61 60 61 61 61 61 61 62 62 61 61 61 58 59 59 58 58 59 57 59 59 58 57 58 56 54 58 56 53 56 56 54 56 57 57
60 59 58 59 61 61 62 62 62 61 60 61 61 60 61 61 61 60 60 60 60 59 60 58 59 58 57 58 58 57 57 57 56 55 56 58 58 53 53 53 55 55 55
59 58 58 58 59 60 62 62 62 62 62 61 61 61 61 62 61 61 60 59 59 60 60 60 59 59 58 58 57 57 57 56 56 56 56 57 58 56 53 55 52 51 52
60 59 58 59 60 60 61 61 63 62 62 62 61 61 61 61 61 60 61 60 59 59 60 60 60 58 54 56 59 58 57 56 56 56 56 57 57 45 48 54 50 53 43
60 59 59 59 59 58 59 60 61 61 62 62 61 61 59 61 52 49 55 59 60 59 58 59 60 52 52 47 47 49 56 56 55 56 56 55 57 56 52 51 52 38 40
59 60 59 60 59 59 59 59 59 59 60 59 60 60 60 60 49 47 46 59 59 58 58 58 58 59 51 57 49 44 43 40 42 56 57 57 57 58 54 38 36 36 33
51 51 51 51 53 55 60 59 58 59 58 58 59 60 60 61 47 46 45 56 60 60 60 60 59 59 58 56 55 46 41 35 36 38 40 40 36 38 40 39 36 33 32
48 48 47 49 49 50 50 50 56 59 59 59 60 59 59 60 44 45 45 56 58 58 60 60 57 57 54 46 49 38 32 32 35 35 34 34 34 35 36 36 33 34 30
43 43 43 44 45 44 45 45 46 48 53 57 47 39 36 39 36 37 40 51 54 53 41 37 36 38 39 40 49 37 31 30 30 30 30 31 31 32 33 32 32 30 29
40 40 38 38 40 40 41 42 42 44 41 38 35 34 34 34 34 36 36 38 42 34 33 32 33 34 35 34 34 33 30 31 30 30 29 29 29 29 29 29 29 29 28
36 35 34 34 36 36 35 36 38 38 36 35 34 31 31 31 33 34 34 34 34 32 31 31 32 33 33 32 31 31 31 30 29 28 27 26 26 27 28 29 29 29 29
33 31 32 32 32 33 31 31 33 34 33 32 31 30 29 30 30 31 32 32 32 30 30 31 31 31 31 29 30 30 30 29 27 25 25 25 26 27 28 28 28 28 28
33 31 31 31 30 31 32 31 30 30 30 31 30 29 28 28 28 29 29 30 29 29 28 28 28 27 27 26 26 26 26 26 25 24 24 25 26 24 24 25 24 25 24
32 31 31 30 30 29 29 29 30 31 31 29 29 29 28 27 29 30 30 29 29 28 28 27 26 25 23 23 23 24 24 24 23 23 22 22 21 22 22 24 23 22 19
30 29 29 29 29 29 28 27 30 31 31 32 32 31 30 31 32 32 31 31 30 29 26 23 23 22 21 21 21 20 20 21 21 20 20 20 19 19 19 20 20 18 16
28 28 28 28 27 26 26 26 23 25 28 29 29 30 30 30 30 29 28 28 27 26 22 20 19 19 19 20 19 19 18 19 20 18 17 17 17 17 16 16 15 15 14
25 24 24 24 23 23 24 23 23 21 19 19 24 25 27 27 27 27 26 25 20 21 20 18 18 18 18 18 18 17 17 16 16 16 14 13 13 14 12 12 12 8 11
26 24 22 21 21 20 20 20 20 19 18 18 19 20 20 23 23 22 22 18 17 16 17 16 16 15 15 15 14 14 13 12 11 10 10 8 2 7 6 8 7 6 7
21 22 20 20 19 18 18 18 18 18 17 17 16 16 17 17 13 13 13 13 13 14 14 13 13 12 11 11 10 9 9 8 7 8 3 1 -2 3 2 4 4 3 8
19 20 19 20 20 20 19 18 17 16 15 14 14 15 15 13 11 11 10 10 10 10 9 9 7 5 5 5 6 4 3 2 2 -0 -0 0 -8 -0 4 3 4 6 8
20 20 19 18 18 18 18 17 16 15 14 13 12 12 12 11 11 10 9 7 7 9 9 7 6 6 4 2 1 -4 -3 -8 -7 -6 -6 -4 -2 -2 -1 -2 -4 -6 2
17 15 16 16 16 14 14 15 13 12 11 10 10 11 9 7 7 6 5 2 3 1 2 2 1 -0 -3 -8 -6 -4 -5 -7 -8 -12 -14 -14 -7 -7 -9 -9 -5 -7 -4
14 13 14 12 11 11 10 10 10 9 9 9 9 7 7 5 1 -2 -3 -6 -6 -4 -5 -9 -5 -3 -3 -12 -12 -6 -4 -12 -10 -11 -16 -14 -10 -7 -11 -7 -5 -7 -5
11 10 9 8 6 2 2 4 5 2 2 0 4 3 3 4 -2 -10 -10 -6 -4 -6 -2 -3 -3 -3 -5 -7 -5 -3 -7 -7 -12 -10 -13 -13 -14 -15 -11 -7 -8 -4 -7
10 8 7 7 4 2 -2 -3 -6 -7 -10 -11 -9 -11 -11 -4 -5 -12 -10 -8 -7 -6 -5 -5 -0 -3 -3 -3 -2 -5 -9 -8 -12 -11 -18 -12 -15 -14 -14 -13 -10 -8 -3

GFSGL_sfc_temp_081.txt.gz
Temp
61 61 60 60 60 60 57 55 56 56 57 57 58 59 59 60 61 60 61 60 59 60 58 57 57 60 58 58 58 58 57 57 54 58 61 57 54 56 57 57 57 56 56
60 61 60 61 61 60 58 56 55 56 56 57 58 59 60 59 59 60 59 60 57 58 58 58 58 59 58 59 58 58 58 58 56 54 59 58 53 56 57 56 56 57 57
58 58 57 59 60 60 60 60 59 57 57 57 58 58 58 58 58 58 59 60 59 59 59 58 59 58 57 58 57 57 57 57 57 55 56 60 59 52 52 52 55 56 56
57 56 56 56 57 58 61 61 61 61 60 58 58 59 59 59 59 59 59 58 59 58 58 59 58 57 57 57 56 57 58 57 57 55 55 56 56 57 54 56 55 53 54
57 57 57 56 57 57 57 58 59 61 61 61 60 60 59 59 60 59 60 59 58 57 57 57 58 57 53 56 59 57 56 55 54 55 54 55 54 55 50 56 54 55 56
57 56 57 57 57 57 57 57 57 57 58 59 60 60 59 60 51 47 53 59 58 57 57 57 58 51 51 47 46 48 56 55 53 54 54 54 54 56 57 55 54 53 48
53 53 54 56 57 56 57 57 57 56 57 57 58 59 59 60 48 47 46 58 58 57 57 57 57 58 51 56 48 43 44 44 48 57 55 55 54 56 57 55 53 53 52
47 47 48 50 51 53 54 57 57 57 57 57 58 59 59 59 43 44 44 54 58 58 58 58 57 58 58 56 55 54 51 51 45 44 49 49 44 40 44 43 39 33 33
43 42 43 45 45 46 46 47 49 50 54 57 58 58 54 44 37 37 39 51 55 57 58 58 49 53 50 45 52 51 41 32 35 36 35 35 35 35 36 37 34 34 32
38 39 40 41 40 39 41 41 43 46 44 42 36 35 35 35 35 36 38 42 48 50 39 36 35 35 35 36 39 47 36 30 30 30 30 30 31 31 32 30 32 31 29
36 35 35 36 37 37 37 39 39 39 37 34 32 32 32 33 34 36 37 36 34 34 33 32 32 34 35 35 34 33 31 30 29 29 28 28 29 29 29 29 29 29 25
34 33 33 33 34 35 34 35 35 35 34 33 32 31 31 31 33 34 34 34 35 33 31 31 32 32 33 33 32 32 31 30 28 27 26 25 26 26 27 27 28 28 28
33 31 31 32 32 33 32 31 31 32 32 30 30 29 29 30 30 32 32 31 31 30 30 30 30 30 30 29 30 29 29 27 26 24 23 23 24 25 26 26 27 27 27
32 31 31 30 30 31 32 31 30 30 29 29 29 28 28 28 28 29 29 30 29 29 28 27 27 27 26 25 25 25 25 25 24 23 22 23 23 23 22 23 22 24 23
31 30 30 30 29 28 28 29 29 30 31 29 29 29 28 28 29 31 29 27 26 27 26 25 23 22 21 21 21 21 22 22 20 21 20 20 20 21 20 22 22 21 18
29 29 28 28 28 28 26 24 29 30 30 31 31 29 28 30 30 30 30 29 29 27 22 20 20 20 19 19 18 18 19 19 19 19 18 19 18 18 18 18 19 17 16
26 27 25 25 25 25 23 23 20 23 27 28 29 29 29 29 29 28 27 27 26 24 19 18 17 18 18 18 18 18 16 17 18 16 15 16 16 16 15 14 14 15 15
21 22 21 20 19 18 18 18 17 16 15 16 22 24 26 26 26 26 25 23 18 18 17 15 14 16 16 16 16 15 14 14 14 13 11 11 12 13 12 11 11 10 12
22 20 17 17 17 16 17 16 15 15 14 14 15 16 17 22 21 21 20 15 14 13 14 13 13 13 13 13 12 11 10 9 8 7 6 7 4 8 6 8 8 8 9
18 20 16 17 16 16 15 15 14 13 12 12 11 12 13 13 10 10 10 10 11 11 11 10 10 9 9 9 7 7 6 5 4 3 -4 -4 -4 2 -0 1 1 2 7
14 16 16 18 17 16 16 14 13 12 11 10 9 10 9 9 7 7 7 7 7 7 6 8 7 7 7 6 6 3 2 1 0 -0 -0 -0 -10 -2 2 -0 -1 2 5
16 16 16 15 15 13 13 12 11 10 10 8 7 7 6 6 6 5 4 3 3 6 6 6 5 5 4 4 2 -4 -7 -11 -10 -9 -10 -9 -6 -6 -5 -5 -8 -8 -1
13 12 13 12 13 9 10 10 8 7 6 4 5 5 4 0 -1 1 -0 -4 0 -1 -0 0 -3 -2 -1 -5 -6 -5 -5 -10 -10 -16 -17 -17 -9 -10 -12 -10 -7 -8 -7
10 8 11 8 6 6 4 2 4 4 5 3 0 2 0 -5 -10 -8 -6 -5 -3 -5 -7 -11 -8 -6 -6 -13 -14 -9 -5 -13 -12 -13 -17 -16 -12 -8 -13 -8 -6 -9 -9
6 4 4 2 -1 -3 -2 -2 -4 -4 -2 -3 -4 -4 -0 -2 -4 -12 -12 -10 -6 -8 -5 -7 -7 -6 -9 -10 -8 -7 -9 -9 -14 -13 -15 -15 -16 -16 -13 -10 -12 -8 -10
5 3 2 0 -3 -5 -7 -9 -13 -13 -13 -13 -14 -15 -12 -9 -10 -16 -13 -12 -11 -11 -9 -10 -7 -8 -7 -4 -2 -4 -9 -9 -12 -12 -20 -13 -16 -16 -16 -15 -12 -10 -6

GFSGL_sfc_temp_084.txt.gz
Temp
59 57 59 58 57 56 55 54 55 55 57 59 59 59 59 59 59 59 59 59 58 58 58 57 57 59 58 58 58 58 57 56 53 57 60 60 55 58 61 60 59 59 59
56 57 59 58 58 58 58 56 54 55 55 56 58 59 59 59 59 59 58 59 57 57 58 58 58 59 57 59 57 57 57 58 57 55 60 60 55 59 58 59 60 60 59
56 58 58 58 58 57 56 56 54 54 55 55 56 57 57 58 58 59 59 58 57 57 58 59 58 58 57 58 57 57 58 58 58 56 57 61 59 59 56 55 57 58 58
55 55 54 55 57 58 59 57 56 56 54 54 56 56 56 56 57 58 58 58 58 58 59 59 59 59 58 59 57 57 57 57 56 55 55 56 57 59 56 55 55 55 54
55 54 54 54 55 55 55 56 57 57 57 56 56 56 56 56 57 56 57 56 56 56 56 56 57 57 52 55 59 57 56 55 55 55 55 55 55 55 54 57 55 56 57
55 55 58 55 55 54 54 55 55 55 55 55 55 57 57 58 50 47 53 58 58 58 57 57 57 50 50 46 46 48 56 58 54 54 55 54 54 56 58 56 55 53 51
51 51 51 54 56 55 56 56 56 56 56 55 56 57 57 57 45 46 45 58 59 58 58 57 57 57 50 55 48 43 44 44 47 57 55 54 54 56 55 55 54 53 52
45 45 46 47 48 49 50 49 52 55 56 56 56 57 58 41 37 37 37 49 57 58 58 58 57 57 57 54 54 53 52 49 39 43 44 41 35 35 39 43 40 33 34
39 40 41 42 43 43 42 43 45 48 46 40 39 41 40 37 36 36 37 45 50 53 53 38 38 39 38 39 42 46 41 32 34 34 34 33 33 33 34 37 34 36 32
35 36 38 39 39 38 39 39 41 40 37 37 34 34 34 34 35 36 37 41 41 37 34 34 34 34 35 36 39 39 33 30 30 30 30 30 31 30 31 30 31 30 29
34 35 35 36 36 36 37 37 37 36 35 33 31 31 32 32 33 35 36 35 34 33 32 31 32 33 33 34 34 33 32 31 30 29 28 28 27 27 27 27 27 28 25
33 33 33 33 34 35 34 34 35 34 32 31 31 30 30 31 33 33 33 33 33 30 29 29 30 31 31 31 30 30 30 29 27 25 24 24 24 24 26 26 26 27 27
32 31 31 32 32 32 31 31 31 32 31 30 30 29 29 30 30 32 32 30 30 28 28 29 29 29 28 27 28 27 27 26 24 22 21 21 22 24 25 26 27 27 25
30 29 30 29 29 30 31 31 30 30 30 30 29 28 28 29 28 27 27 27 27 26 25 24 25 25 23 23 23 24 23 23 22 21 21 22 23 22 21 24 22 24 22
30 30 28 28 27 27 28 28 28 29 30 27 27 28 26 26 28 30 27 24 23 24 23 23 21 21 20 20 20 20 21 21 19 20 19 19 20 20 20 21 21 21 18
28 28 27 26 26 24 24 24 29 29 30 30 30 28 27 29 30 30 29 29 28 26 21 18 17 17 17 18 17 17 17 17 18 19 18 18 17 17 17 18 19 18 17
24 25 23 22 23 21 20 19 16 21 26 27 28 28 28 28 28 28 27 26 25 22 16 15 15 15 16 17 16 16 14 16 16 15 15 15 16 16 15 15 15 15 14
19 18 17 16 16 15 14 14 14 13 12 14 20 23 25 25 25 25 23 20 14 16 14 13 13 13 14 14 13 13 12 12 11 11 10 10 11 12 12 12 12 11 12
19 17 15 15 14 14 14 14 13 12 10 10 12 13 14 20 19 19 18 11 10 9 10 10 9 10 10 11 9 9 7 7 6 5 6 7 7 10 9 9 10 9 9
15 17 16 15 14 13 12 12 11 10 9 8 7 7 9 9 6 6 6 6 6 7 7 7 7 7 6 7 3 3 5 4 4 5 4 2 2 6 5 6 6 7 8
14 14 14 14 14 13 12 11 10 9 7 6 5 5 5 6 3 3 4 3 3 4 2 4 3 1 3 2 4 1 -1 -1 -0 -0 0 1 -3 1 3 3 4 6 7
13 14 14 12 12 10 10 9 7 7 7 5 4 3 2 2 2 2 0 -4 -4 2 3 1 1 2 1 1 -1 -5 -6 -7 -5 -5 -5 -5 -3 -2 -1 0 -0 -0 3
10 9 10 10 10 5 5 7 4 2 1 -1 1 1 -0 -6 -6 -2 -4 -8 -2 -4 -2 -2 -3 -1 -2 -4 -3 -2 -2 -3 -4 -8 -8 -8 -4 -4 -5 -2 -1 -1 -0
7 5 8 4 2 1 -3 -5 -3 -0 -0 -6 -9 -8 -9 -13 -16 -12 -12 -10 -7 -10 -11 -10 -4 -2 -1 -7 -6 -2 -0 -5 -5 -6 -10 -8 -5 -4 -5 -3 -2 -4 -3
1 -0 -2 -3 -6 -8 -9 -9 -12 -14 -12 -14 -13 -11 -6 -8 -8 -17 -17 -14 -11 -15 -9 -8 -7 -5 -5 -7 -7 -5 -8 -8 -12 -12 -10 -11 -11 -11 -8 -5 -6 -3 -4
1 0 -2 -4 -9 -12 -14 -17 -18 -18 -17 -18 -19 -18 -16 -13 -13 -20 -16 -13 -12 -12 -8 -8 -8 -9 -8 -4 -1 -2 -9 -9 -11 -13 -14 -7 -9 -9 -9 -8 -7 -4 -2

GFSGL_sfc_temp_087.txt.gz
Temp
60 62 60 60 60 61 61 62 60 59 59 59 59 59 59 59 59 59 59 60 59 59 59 58 57 58 57 57 57 58 60 60 57 59 63 60 58 60 62 64 62 62 64
61 63 61 60 59 59 60 61 61 63 64 62 60 59 58 58 59 59 59 61 59 59 59 59 59 59 57 58 58 57 57 59 57 57 65 68 66 67 67 66 67 71 70
62 62 60 60 59 59 59 59 59 61 63 63 63 62 62 59 58 59 59 60 59 59 59 58 58 59 58 62 63 62 60 60 60 59 62 68 69 69 67 67 67 69 71
63 64 61 60 61 60 60 59 59 60 62 63 64 64 64 64 64 61 60 60 60 59 60 61 62 62 62 62 59 59 58 58 58 57 57 58 62 67 65 64 64 66 65
62 63 63 63 64 64 64 63 63 62 62 62 63 64 64 64 64 64 62 60 60 60 61 62 65 63 54 58 64 64 63 61 59 59 58 59 58 59 59 62 58 60 65
60 58 60 61 62 62 62 62 62 62 63 62 62 62 62 60 49 47 55 60 60 61 61 63 64 52 52 46 46 48 56 60 57 56 56 55 56 57 59 57 57 55 52
49 49 50 53 53 53 57 58 59 59 60 59 60 60 59 53 38 40 41 60 61 60 60 59 59 59 52 59 49 43 44 42 43 53 54 54 54 53 51 53 55 55 53
43 43 45 46 46 47 48 48 50 49 46 48 45 49 42 39 37 37 37 50 54 57 50 44 45 46 40 41 46 50 47 35 36 38 36 34 33 35 37 39 39 34 34
38 39 41 42 42 42 41 42 44 42 39 38 37 38 37 36 36 36 40 48 48 40 37 36 37 37 36 37 40 40 33 32 34 35 34 33 33 32 32 37 35 35 34
35 36 38 39 39 38 39 38 38 38 36 35 33 34 34 34 35 36 39 43 37 34 33 33 33 34 34 35 37 38 33 32 32 30 30 30 30 29 30 30 31 32 31
37 37 36 37 37 37 37 38 37 35 34 32 31 32 32 33 33 35 35 35 33 31 30 30 31 32 33 33 33 31 31 30 28 28 28 28 28 28 28 29 29 30 27
35 34 35 35 36 37 36 35 35 35 33 32 32 31 31 32 33 33 33 33 33 30 29 30 30 31 31 31 31 30 30 29 28 26 26 25 26 27 28 28 28 28 28
33 32 32 33 34 35 34 34 34 34 33 32 31 30 31 32 31 31 30 30 30 30 29 29 29 29 29 29 28 29 30 30 29 28 27 26 27 28 30 30 30 30 29
32 31 32 32 33 34 34 33 32 32 32 32 32 30 31 32 32 32 31 30 29 29 28 28 27 27 26 27 28 29 29 29 28 27 26 27 29 28 28 29 28 29 27
31 31 30 31 31 30 30 31 31 31 32 29 29 30 29 28 29 31 30 30 30 27 29 29 28 28 27 27 26 26 27 28 26 27 27 26 26 27 26 27 27 27 24
30 29 28 29 29 30 29 27 28 29 30 30 30 30 29 29 30 29 29 28 27 28 27 25 24 24 23 24 23 23 23 23 24 25 24 25 24 24 24 25 26 24 23
26 27 27 27 27 26 26 26 22 22 25 26 27 28 28 28 28 27 26 25 25 26 23 22 21 21 22 22 22 21 20 21 21 21 21 21 22 22 22 21 22 22 21
23 21 24 24 24 23 23 22 22 22 20 19 21 22 24 24 24 24 24 25 23 22 21 20 20 20 21 20 20 19 19 19 18 19 18 18 19 19 19 19 19 17 20
25 23 22 22 21 21 21 21 20 19 18 18 20 19 17 19 19 19 20 19 18 17 18 18 18 18 18 17 16 15 15 14 14 14 15 15 15 18 16 17 17 13 15
22 20 21 22 21 21 20 19 18 17 17 16 15 15 18 18 15 14 15 15 15 15 16 15 15 15 15 15 14 14 14 13 13 14 13 12 14 15 14 14 14 15 16
22 21 19 22 21 20 19 18 17 17 15 14 12 10 9 14 13 13 13 12 13 13 13 14 13 13 14 13 13 12 10 10 9 10 10 11 10 12 13 14 14 14 14
21 21 21 19 19 18 17 17 16 15 14 13 12 10 9 13 12 12 11 10 11 12 13 12 12 12 11 11 10 10 8 7 7 7 7 7 8 10 10 11 11 12 13
19 18 18 17 17 14 15 15 14 14 12 12 12 11 10 10 9 9 8 9 10 10 10 11 10 9 9 8 9 9 8 6 6 5 5 6 7 8 9 9 10 10 10
17 17 16 14 14 13 13 12 12 10 11 10 10 9 8 8 7 6 6 7 8 8 8 7 8 8 8 8 9 10 8 6 6 6 2 3 5 6 7 8 9 7 8
14 13 12 12 11 11 11 10 10 9 10 10 9 9 9 9 8 6 6 5 5 6 5 6 6 6 5 4 4 3 2 1 2 -2 4 3 3 1 3 5 5 7 6
12 12 11 11 10 10 10 9 8 8 8 7 7 7 7 7 6 5 5 4 4 5 4 6 5 3 3 6 5 1 0 0 1 -2 1 4 3 3 4 3 3 6 6

GFSGL_sfc_temp_090.txt.gz
Temp
65 66 67 65 66 64 63 61 59 59 59 58 57 58 58 57 58 57 58 60 61 61 62 64 66 67 62 63 63 63 59 62 57 65 70 73 69 69 71 66 64 67 71
64 65 64 63 66 64 64 63 59 60 60 61 59 59 59 58 57 57 59 60 59 59 66 61 62 61 59 58 57 57 57 59 56 55 62 63 62 65 67 70 74 75 74
63 65 63 63 65 65 66 67 67 64 61 61 59 59 59 58 57 57 58 58 60 63 62 62 62 61 59 59 58 58 60 65 62 61 63 68 71 73 72 72 71 72 75
63 65 64 64 63 63 64 65 66 68 66 66 64 62 61 60 60 59 58 60 60 64 63 61 61 60 60 60 60 61 59 60 61 58 58 61 65 70 70 69 69 73 70
65 64 63 63 64 63 63 63 62 62 65 68 67 66 66 64 64 61 62 60 60 64 66 67 67 60 54 59 65 63 63 63 63 64 61 62 63 65 63 65 61 63 66
66 63 66 66 67 67 65 65 64 62 63 63 64 65 66 66 39 41 56 65 64 64 63 64 65 53 54 47 47 48 55 63 60 58 57 55 56 57 59 58 57 56 54
50 49 50 52 52 52 58 62 63 64 65 62 62 62 50 46 37 38 38 59 62 61 61 60 60 59 51 58 48 43 43 37 38 47 50 51 46 39 40 44 43 40 38
43 44 45 46 46 48 48 48 46 45 44 44 43 42 40 39 36 37 37 53 58 43 41 42 44 43 39 40 45 41 36 35 35 37 34 32 32 33 35 39 39 37 35
38 39 41 42 42 42 41 41 41 39 37 37 38 37 37 35 36 37 42 45 39 36 35 35 37 36 35 37 42 36 32 32 34 34 33 32 32 33 34 39 34 36 36
36 37 39 39 39 38 38 37 37 37 35 35 34 34 34 34 35 37 41 39 33 32 32 32 33 34 34 35 41 36 31 31 30 30 30 31 32 32 32 32 37 33 33
34 36 37 38 37 38 37 37 36 34 34 32 32 32 33 34 34 35 36 35 32 31 30 30 31 32 33 33 33 32 30 30 30 30 30 31 32 31 32 32 32 34 33
34 36 37 38 39 39 38 37 37 35 34 33 33 32 33 33 33 33 34 34 35 33 31 31 31 32 32 32 32 31 32 32 32 32 32 31 31 31 32 32 31 32 32
34 34 37 38 38 38 38 37 37 37 36 35 34 33 33 35 34 31 31 31 32 32 32 30 31 32 32 31 31 32 33 33 32 31 30 30 31 32 34 34 34 36 35
32 34 34 33 34 36 36 35 35 35 35 35 34 33 33 33 33 33 33 33 31 32 31 32 31 31 31 32 32 32 32 32 31 31 31 32 34 34 33 35 34 36 35
32 32 32 34 33 31 30 31 32 31 32 32 31 32 31 29 29 30 32 32 32 32 33 33 33 33 32 32 31 31 31 32 31 31 31 32 32 33 32 34 33 34 31
31 31 30 31 32 32 30 27 28 29 29 29 30 30 29 29 29 29 29 29 30 32 32 30 28 29 29 29 29 29 29 28 29 30 30 30 30 29 30 31 32 30 29
30 31 31 32 31 31 32 31 27 25 25 26 27 27 28 27 27 28 28 28 30 32 29 27 26 27 28 28 28 27 26 26 27 27 27 26 27 28 27 27 27 28 27
28 29 30 30 29 29 29 28 28 27 25 24 23 23 24 24 25 26 28 31 29 28 28 26 26 26 26 26 26 25 25 25 24 25 24 24 24 25 25 25 25 22 25
29 28 28 27 27 28 28 28 27 27 26 25 26 25 24 23 23 24 26 26 25 25 25 25 25 25 25 25 23 22 21 20 20 21 21 21 21 23 22 22 23 19 19
27 26 27 28 28 27 27 27 26 26 25 23 21 21 26 26 23 22 23 23 23 23 23 23 23 23 22 22 21 21 21 20 20 20 19 19 19 21 20 20 20 20 22
28 28 26 28 27 27 26 25 25 24 23 21 18 16 17 22 21 20 20 19 20 20 20 21 20 20 20 20 20 19 17 18 16 17 17 17 16 17 19 20 19 20 20
28 27 27 26 26 25 25 25 24 23 22 21 20 17 17 20 20 19 18 17 18 19 20 19 19 18 17 17 17 17 16 14 14 14 15 14 16 17 17 17 17 18 18
26 25 25 25 24 22 23 23 22 21 20 19 19 18 18 17 17 17 16 16 17 16 16 17 17 16 16 15 16 16 14 13 13 11 10 12 14 15 15 16 16 15 16
24 24 23 21 21 22 21 20 19 16 19 19 18 17 16 16 15 14 14 14 14 15 14 14 14 12 13 13 15 16 14 11 12 12 9 9 11 12 12 13 14 14 13
22 21 20 20 19 19 19 19 18 18 17 17 17 17 17 16 15 14 14 13 11 12 11 12 12 11 10 9 9 9 6 5 6 3 9 10 10 8 10 10 11 12 12
19 19 19 19 18 18 18 17 16 16 15 15 16 16 15 15 14 13 12 11 11 11 9 13 11 8 8 12 10 7 5 4 5 3 5 8 9 9 10 10 9 10 12

GFSGL_sfc_temp_093.txt.gz
Temp
72 69 68 68 68 67 67 61 59 58 58 58 58 58 58 58 59 60 63 62 63 62 60 60 61 64 67 69 64 63 67 64 62 67 70 71 64 67 70 69 68 69 69
70 67 67 68 67 66 65 61 60 58 58 58 57 57 56 56 57 58 58 58 57 57 58 61 62 65 65 63 65 63 64 64 59 57 63 61 62 65 66 68 70 73 71
66 65 67 67 65 64 64 63 60 59 58 58 58 57 57 56 56 57 56 56 57 58 61 64 66 65 65 65 63 60 59 59 58 56 57 64 67 69 68 68 68 70 74
66 65 66 68 67 67 68 66 62 63 60 60 60 60 59 58 58 57 56 56 57 59 62 65 68 65 65 65 61 59 58 57 59 59 57 58 62 67 67 66 66 69 69
63 65 65 68 68 68 67 67 68 66 64 63 63 62 61 60 59 57 58 57 57 59 62 66 66 62 54 58 62 62 61 59 61 59 58 60 62 63 63 65 61 62 61
64 62 65 68 65 65 66 65 64 65 66 65 65 65 63 49 38 40 51 59 59 61 59 62 67 54 54 47 47 47 50 56 58 56 56 55 57 58 56 52 50 51 50
49 50 52 54 54 54 59 58 57 59 60 56 55 49 44 42 37 39 39 56 58 54 52 51 56 49 44 50 46 39 37 36 37 45 48 45 41 36 37 42 44 43 42
43 44 46 48 47 47 48 46 44 43 43 43 42 43 41 39 37 38 38 52 43 40 39 41 41 41 38 40 45 38 34 34 34 35 34 32 32 33 35 38 37 36 34
38 39 40 42 41 41 39 39 39 38 36 36 36 37 37 36 37 38 44 43 38 35 35 35 36 35 35 38 40 34 32 31 33 34 34 33 33 34 35 41 36 37 35
35 37 38 38 37 36 36 35 35 35 34 34 33 33 34 34 36 37 38 36 32 31 32 32 33 33 34 37 36 33 30 29 31 31 31 32 33 33 34 33 36 35 35
35 35 37 37 36 36 35 35 34 33 33 32 31 31 31 32 34 36 35 34 32 31 30 30 31 33 33 33 33 31 30 31 31 32 32 33 33 33 33 33 33 32 33
33 34 34 35 37 38 38 34 34 34 33 32 32 31 31 31 33 34 34 34 34 32 30 31 32 33 33 33 33 33 33 33 33 33 32 32 32 32 32 33 32 34 34
31 31 32 33 32 32 34 35 34 37 35 34 33 32 32 34 33 32 32 32 32 32 32 32 33 33 33 32 32 32 33 33 33 32 31 31 32 34 36 37 38 40 38
31 30 29 29 29 31 32 32 30 32 32 32 33 32 32 31 32 33 33 33 32 33 33 33 32 32 32 32 33 33 33 33 32 31 31 34 36 36 35 36 36 36 36
31 31 31 31 29 27 27 29 29 29 30 30 29 29 29 27 28 31 32 32 32 32 33 33 33 33 32 32 32 32 32 33 32 32 32 33 33 34 34 35 34 34 32
29 30 31 32 31 28 26 24 28 28 29 29 29 30 29 29 30 31 31 32 33 33 32 30 29 30 30 30 30 30 30 29 31 31 31 31 31 30 31 32 32 31 30
31 32 32 31 30 29 30 27 22 24 26 27 27 28 28 28 29 30 31 31 33 33 29 28 27 28 29 30 29 29 27 27 29 29 28 28 28 29 29 28 28 28 28
31 30 30 30 30 30 30 29 29 27 24 23 25 25 26 27 28 30 32 33 30 31 29 28 27 28 28 28 27 26 26 26 26 26 25 25 25 26 25 25 26 23 23
29 29 29 29 29 29 29 29 29 28 27 26 27 28 27 27 27 28 29 28 27 27 27 27 27 27 27 27 25 25 23 23 23 23 23 23 22 24 23 23 24 22 22
29 28 29 29 29 29 28 28 27 26 25 22 21 22 27 28 24 24 25 25 25 25 26 25 25 25 24 24 23 22 23 22 21 22 21 21 20 22 21 21 22 21 22
31 30 29 29 29 28 28 27 27 26 24 22 19 20 22 24 23 23 22 22 22 23 23 23 23 22 22 22 23 21 20 20 19 18 19 18 18 19 20 21 21 21 22
30 30 29 28 28 26 27 28 26 26 25 24 23 21 22 23 23 22 21 20 20 21 22 22 21 20 19 19 19 19 18 16 16 15 15 16 17 19 18 19 19 19 19
29 28 28 27 27 27 26 26 25 25 23 23 23 22 21 20 20 20 19 19 19 18 18 19 18 18 18 18 18 18 16 14 14 14 11 13 14 16 15 16 16 16 16
27 26 26 25 23 24 24 23 22 20 22 22 21 20 20 19 18 17 16 16 17 17 16 16 15 13 14 14 16 16 14 11 11 12 9 11 13 14 12 13 14 14 14
24 24 23 23 22 22 22 22 21 21 21 20 20 20 20 20 18 17 16 16 14 15 14 15 14 13 13 11 12 11 7 7 7 7 9 9 11 11 12 12 13 13 13
22 22 22 22 21 20 20 20 20 19 18 18 19 18 18 18 18 16 16 15 13 13 13 15 14 11 11 14 9 8 6 6 6 4 5 8 10 11 11 10 9 10 11

GFSGL_sfc_temp_096.txt.gz
Temp
67 66 64 65 65 65 64 61 59 58 58 57 57 57 59 60 60 60 60 61 60 60 60 60 60 61 60 61 61 61 60 57 54 58 61 62 60 60 61 60 62 64 64
65 65 64 63 64 64 62 60 58 58 58 58 58 57 57 58 60 60 59 60 60 59 58 58 58 59 58 59 60 60 58 59 57 55 59 57 59 60 60 61 64 67 65
64 63 63 62 63 63 62 60 58 58 58 58 57 56 55 55 55 57 57 56 56 56 57 57 57 58 58 59 59 58 58 59 57 54 54 59 60 61 60 62 62 64 68
63 63 62 62 62 62 62 60 59 58 57 57 57 56 56 55 55 55 54 54 55 55 55 56 57 58 59 59 58 58 57 56 55 54 55 56 57 60 59 58 58 61 61
61 62 62 63 63 64 63 61 61 60 59 59 58 58 57 56 56 55 55 55 54 55 56 57 60 59 54 57 61 58 56 55 55 55 55 57 56 56 56 58 57 57 47
58 59 61 63 64 63 62 63 61 60 60 60 59 59 56 45 39 41 52 55 55 55 55 57 59 52 51 47 44 38 43 53 56 55 55 55 54 45 45 45 46 46 46
49 50 51 53 52 51 52 51 49 51 49 47 46 44 41 41 37 39 43 55 55 52 51 52 51 46 45 48 37 36 36 36 36 45 48 39 40 36 37 40 42 42 41
41 43 45 46 45 44 44 42 41 41 41 40 40 40 39 38 37 39 41 44 40 38 39 40 41 40 37 44 38 35 33 33 34 35 34 32 32 33 35 38 37 35 33
37 37 39 41 40 39 37 37 37 36 35 34 35 35 35 35 37 38 41 38 35 33 34 35 35 35 36 41 36 33 31 30 34 34 34 34 34 35 35 38 34 34 32
34 36 37 37 37 35 35 34 35 34 33 32 32 33 34 33 35 36 37 35 32 32 33 33 34 34 36 37 34 33 30 30 31 31 32 32 33 33 34 31 32 33 32
34 34 34 36 35 35 35 35 34 33 33 31 30 30 31 33 34 35 35 33 32 31 30 31 32 33 33 33 33 32 30 31 31 32 32 32 31 31 28 27 28 28 30
31 31 32 32 33 34 34 34 35 34 33 32 31 30 30 31 33 33 33 33 32 30 29 30 31 33 33 33 33 33 33 33 33 31 30 29 30 30 25 25 25 25 25
29 28 27 29 30 30 29 30 32 33 32 31 30 29 28 31 31 32 32 31 32 30 31 32 33 33 33 32 33 33 33 32 31 30 29 29 29 25 27 28 29 31 31
29 28 26 26 26 27 28 27 27 29 28 29 29 27 27 28 30 31 32 32 32 32 31 31 31 31 32 31 31 31 31 31 30 29 29 27 25 25 25 26 25 26 26
30 30 28 27 25 25 26 26 26 27 28 26 26 27 25 25 28 32 32 31 31 31 32 31 30 30 29 28 26 26 26 26 25 24 23 24 25 26 26 26 26 25 22
29 29 29 30 27 25 24 23 28 28 28 29 30 28 28 30 32 33 33 34 33 33 29 27 26 27 26 25 24 22 22 22 24 24 22 24 24 23 25 26 26 23 21
28 29 29 30 29 28 26 24 21 24 26 26 27 28 29 30 31 32 33 32 33 31 26 25 24 24 23 24 23 21 20 20 23 22 21 20 21 23 21 22 22 21 21
29 28 28 28 28 27 27 26 26 24 21 21 26 27 29 29 30 30 31 30 26 27 25 24 23 23 23 22 21 20 19 18 18 19 15 15 15 18 16 18 19 12 17
28 28 29 28 28 28 27 26 25 23 21 20 22 24 27 28 28 28 28 24 22 22 22 22 22 21 21 20 19 19 13 12 12 10 13 14 11 16 13 15 15 13 12
28 28 28 28 27 26 26 25 24 22 19 17 17 18 23 23 20 19 20 20 20 20 21 20 20 19 19 18 16 14 15 13 13 15 10 8 8 12 9 10 11 9 15
28 27 26 26 25 25 25 24 24 22 19 17 16 17 20 20 19 18 17 17 17 17 17 18 17 16 16 15 17 13 12 13 12 11 11 10 6 11 12 11 10 11 14
27 26 26 25 24 23 24 24 22 22 21 20 18 18 18 19 18 17 16 15 15 15 17 15 15 14 13 13 13 9 10 6 7 6 5 6 8 11 8 9 8 6 10
26 25 24 23 24 23 21 20 20 20 19 18 18 17 17 15 14 15 13 13 14 12 11 13 11 12 11 12 11 12 8 6 7 5 -1 3 5 5 3 4 7 6 7
24 22 23 22 20 20 20 20 18 16 18 18 18 16 15 14 13 12 9 9 11 10 7 10 8 5 5 3 5 8 6 1 2 2 -3 3 4 7 1 5 4 3 2
21 20 20 20 18 19 18 18 18 17 17 16 15 15 15 15 14 12 8 9 5 6 7 7 4 5 4 2 4 2 -2 -1 -4 -3 -1 -2 -0 1 5 3 3 4 6
19 18 18 18 17 16 16 16 16 14 14 12 13 12 11 11 12 8 7 8 4 4 6 7 8 3 3 8 5 -0 -2 -1 -4 -4 -6 -0 3 2 0 -2 0 -1 4

GFSGL_sfc_temp_099.txt.gz
Temp
65 64 63 62 62 62 61 59 58 58 57 57 58 58 59 60 60 60 60 60 59 60 61 60 60 59 59 58 58 58 57 56 55 58 58 58 58 59 59 59 59 60 61
62 63 61 61 62 61 59 57 58 57 57 57 57 57 58 59 60 60 59 59 59 59 59 59 59 59 58 58 58 58 57 57 56 55 57 56 56 59 60 57 61 64 62
61 61 60 61 61 60 59 58 58 57 57 57 57 56 56 57 59 59 60 59 60 59 59 59 59 59 57 57 57 58 58 58 57 55 55 57 58 58 57 57 59 61 64
60 60 59 59 60 60 60 58 58 58 57 57 57 56 56 55 56 58 58 58 58 58 57 58 58 57 56 57 57 57 56 56 55 55 52 53 55 56 57 55 53 57 55
58 60 59 60 61 60 59 58 58 58 58 58 57 56 55 55 53 55 56 56 56 55 55 56 56 54 50 53 58 56 56 56 55 54 52 52 52 53 53 54 53 53 44
47 53 58 59 61 60 59 59 58 58 57 57 57 56 48 45 39 42 51 54 54 54 53 55 56 50 49 43 40 39 46 55 53 52 52 51 52 47 45 46 47 47 46
40 43 48 49 49 49 50 48 48 46 45 44 43 43 41 41 38 40 42 54 54 53 52 53 53 46 46 42 37 37 35 36 37 48 51 43 42 38 38 41 44 43 40
36 37 40 42 42 42 42 40 39 39 38 38 38 38 38 38 38 39 39 41 38 37 37 39 41 40 40 41 37 34 33 34 34 35 33 32 32 33 36 38 38 34 33
33 35 36 37 37 36 35 35 36 35 34 34 35 35 35 35 37 37 38 36 34 33 34 35 36 37 38 39 35 32 31 31 34 35 34 34 34 34 36 37 34 34 32
32 32 34 36 35 34 34 33 33 33 32 32 32 33 34 34 36 36 36 35 32 32 32 33 34 35 35 35 34 32 30 30 31 31 31 32 32 32 33 32 33 32 32
30 32 32 32 34 35 35 34 34 32 32 31 30 31 32 33 34 35 35 33 32 31 31 31 32 34 35 35 34 32 31 32 31 31 31 31 31 30 30 29 29 29 23
28 28 28 29 30 32 32 33 34 33 31 30 30 30 30 32 33 34 34 33 33 31 30 31 32 34 34 33 33 32 32 32 31 30 29 28 28 24 23 23 23 25 26
27 26 26 26 27 28 28 30 30 30 29 28 28 28 29 31 31 32 32 32 32 31 31 31 32 32 32 31 32 32 32 31 30 28 26 23 20 21 25 25 27 29 29
27 26 25 25 25 26 26 27 27 26 26 27 26 26 27 29 30 31 32 31 31 30 30 29 29 28 28 27 27 28 28 28 26 25 23 20 23 25 26 25 25 25 25
29 28 26 25 24 24 25 26 26 27 27 26 26 27 26 27 30 32 31 30 30 30 30 29 28 27 24 24 23 24 25 25 23 23 23 23 23 25 25 25 25 24 21
27 28 28 27 25 24 23 23 28 28 29 30 30 28 28 31 32 32 32 32 32 31 27 24 22 22 22 22 21 21 22 22 23 23 21 22 22 22 23 24 23 21 19
27 27 28 28 27 27 25 23 20 24 28 28 28 29 30 31 30 30 30 29 30 28 23 22 21 21 20 21 20 19 19 21 22 20 19 18 19 21 20 21 20 19 18
27 27 26 26 25 25 24 23 22 21 19 20 26 27 28 28 29 29 28 26 22 23 22 21 20 20 21 20 20 19 18 19 18 18 16 15 15 17 16 16 16 11 15
26 25 25 25 25 24 23 21 19 18 17 17 19 21 24 26 26 26 25 21 19 19 20 19 18 19 19 18 17 16 15 14 14 14 13 13 11 13 13 14 13 12 13
23 24 23 22 22 21 21 20 18 16 15 15 15 16 20 19 16 16 16 17 17 17 17 17 16 16 16 16 14 14 13 12 11 12 10 10 9 11 10 11 11 10 14
19 20 19 20 20 20 20 20 19 16 15 15 15 17 18 16 14 14 14 13 13 14 15 14 13 12 13 13 13 10 9 8 8 7 7 7 4 9 9 10 11 11 12
20 20 20 19 20 17 18 18 17 15 15 13 14 15 14 14 13 12 12 10 10 12 13 13 11 11 11 10 9 8 4 3 3 1 2 3 5 5 4 3 2 -0 7
18 16 17 17 18 15 12 13 12 14 11 9 9 10 10 5 6 8 7 8 9 8 8 7 7 5 7 7 6 4 2 0 1 -6 -6 -4 0 2 -4 -3 -1 -2 -2
16 14 16 12 12 10 8 7 9 9 9 12 10 5 3 -0 -0 -2 -4 -6 3 -5 -3 -1 2 1 2 -3 -4 0 1 -7 -5 -6 -10 -9 -4 -1 -3 1 0 -4 -5
8 8 10 14 8 8 12 12 3 0 6 -0 -1 2 4 8 6 -4 -6 -5 -4 -6 -2 0 -3 -2 -3 -1 -4 -3 -5 -6 -10 -8 -10 -10 -10 -1 -1 -2 -7 -4 -5
8 7 5 5 3 3 1 -1 4 3 -1 -2 6 7 6 8 5 -0 -2 -4 -5 -5 1 -1 -0 -1 1 -1 -2 -4 -7 -6 -10 -9 -13 -9 -6 -6 -9 -9 -6 -5 -2

GFSGL_sfc_temp_102.txt.gz
Temp
59 59 60 60 61 60 60 59 58 58 57 58 59 59 60 60 61 60 60 61 60 60 61 60 60 61 59 58 59 58 59 56 55 54 58 58 58 59 59 59 58 59 59
56 58 59 61 61 60 59 58 58 56 57 58 56 57 58 58 60 59 59 60 60 59 59 59 59 59 59 57 57 57 57 57 55 54 56 56 57 58 59 58 59 61 61
50 58 59 60 60 59 58 58 57 57 57 57 57 57 57 57 58 59 60 59 59 59 60 60 60 59 58 57 57 56 57 56 57 55 55 57 57 57 56 57 58 58 58
49 59 59 59 59 59 59 58 57 57 57 57 57 56 56 55 56 58 59 59 59 59 59 60 60 60 59 57 56 56 56 55 55 54 54 54 55 56 56 54 54 56 50
44 47 52 59 59 59 58 58 57 58 57 57 57 56 55 53 49 50 58 58 58 58 58 58 59 57 51 54 57 56 56 55 54 54 53 52 53 52 53 53 53 50 43
40 41 44 49 58 58 58 58 56 54 55 54 54 53 48 46 38 40 50 56 57 56 56 57 55 49 48 45 43 40 48 55 54 54 53 53 52 51 48 49 50 48 43
37 38 39 41 44 46 47 45 44 43 43 41 42 42 41 40 38 40 42 51 47 49 52 53 50 47 45 41 37 37 35 36 37 52 53 48 45 42 43 43 44 43 37
35 35 36 37 38 39 39 38 37 37 36 36 36 37 38 38 37 38 38 40 38 38 39 41 45 43 42 41 37 34 33 33 33 35 34 32 33 34 39 40 39 33 32
31 32 33 35 35 35 34 34 34 34 33 33 34 34 35 35 36 37 38 36 35 34 35 37 38 38 38 39 35 32 31 31 34 35 34 34 35 35 37 38 34 34 31
28 30 32 33 33 33 33 32 33 33 32 32 32 33 34 33 35 36 36 35 32 32 33 34 35 35 35 36 35 33 31 30 31 31 31 31 32 32 33 33 34 33 30
28 28 28 29 31 32 33 33 32 32 31 31 30 31 32 33 33 35 35 33 32 31 31 32 33 34 34 34 34 33 31 32 31 31 30 30 30 29 29 30 30 31 27
27 26 26 27 28 29 30 31 31 31 30 30 30 30 31 32 33 34 34 33 33 31 30 31 32 34 34 33 32 32 32 31 31 29 28 27 28 28 27 27 27 28 29
27 25 25 26 27 27 27 27 27 28 28 28 29 29 29 31 31 32 32 32 31 29 29 29 30 30 30 29 30 30 30 30 28 26 24 24 25 27 29 29 29 30 29
27 25 25 24 24 26 27 27 27 26 26 26 27 28 29 29 30 31 31 31 30 29 28 26 26 26 25 25 25 26 25 25 25 24 24 25 27 26 25 27 26 27 27
28 27 25 25 24 24 25 26 26 28 28 26 27 28 28 28 30 31 30 29 29 28 27 26 24 23 22 22 23 24 25 25 23 23 24 24 25 25 24 25 25 24 22
26 27 27 27 25 24 23 23 28 29 29 30 30 30 29 31 31 31 30 30 29 28 24 22 21 21 20 20 20 20 21 21 22 22 21 22 22 22 23 23 23 22 20
26 26 26 26 26 25 24 23 21 24 26 28 28 29 30 29 29 29 29 28 27 25 21 20 19 19 19 20 19 19 18 19 20 19 18 18 20 21 20 20 20 20 20
24 23 23 23 23 22 20 19 18 17 17 18 24 26 27 27 27 27 26 24 20 21 20 19 18 19 19 18 18 17 17 17 17 16 15 14 16 17 16 17 17 15 18
23 21 20 20 20 20 19 17 16 16 16 16 18 20 21 24 24 23 23 18 17 17 18 17 17 17 17 17 15 14 13 13 12 11 11 12 11 14 13 14 14 13 14
16 19 17 17 18 16 16 14 14 14 15 15 15 15 17 16 13 13 13 14 15 15 15 14 14 14 14 14 13 11 10 10 9 9 8 7 6 9 8 9 9 7 12
13 15 14 17 17 17 15 13 12 12 12 13 13 14 14 13 12 11 11 10 11 12 11 11 11 11 11 11 10 7 5 4 4 5 5 6 3 5 8 8 7 10 10
15 15 17 18 15 11 14 16 13 12 12 11 9 9 8 9 9 10 9 7 7 10 10 8 7 8 8 7 6 1 1 -2 -4 -3 -1 1 3 4 2 3 0 2 6
13 11 13 14 14 10 8 9 9 9 8 3 3 6 6 1 0 3 1 -1 2 2 4 4 3 4 4 -0 -2 0 0 -2 -3 -6 -9 -7 -1 -2 -3 -2 -1 -2 -3
11 8 13 8 6 11 6 1 1 6 10 7 5 3 -0 -5 -8 -7 -8 -8 -7 -9 -9 -7 -2 0 -2 -8 -7 -2 0 -7 -5 -8 -13 -13 -8 -4 -6 -4 -4 -7 -8
2 -0 1 1 -1 -3 1 6 0 -5 -5 -4 -5 -2 4 4 -1 -11 -13 -11 -9 -11 -5 -8 -6 -4 -5 -8 -7 -4 -7 -9 -11 -11 -13 -13 -12 -10 -9 -7 -10 -6 -8
4 3 0 -0 -4 -6 -7 -7 -6 -7 -7 -7 -3 -2 2 4 1 -7 -8 -7 -8 -7 -5 -4 -5 -5 -4 -5 -5 -6 -8 -8 -12 -12 -18 -11 -13 -13 -13 -12 -9 -9 -5

GFSGL_sfc_temp_105.txt.gz
Temp
50 57 60 60 59 59 59 58 59 59 59 60 60 60 60 60 61 61 61 61 60 60 61 60 60 61 59 59 59 58 59 56 54 55 57 56 56 58 58 58 59 58 58
48 52 59 59 59 59 58 58 58 58 58 58 58 58 58 58 59 60 60 61 60 60 60 60 60 60 59 59 58 58 58 58 55 53 54 54 55 57 57 57 58 60 58
47 52 58 58 58 58 58 58 58 57 57 56 57 56 56 57 57 58 58 59 59 59 60 59 59 59 58 58 58 57 58 57 56 54 53 56 56 56 55 56 57 54 50
44 45 47 55 58 58 58 58 57 58 55 56 57 56 56 55 55 56 57 58 59 60 60 60 60 59 59 58 57 57 57 56 55 54 53 53 54 55 55 55 54 54 47
41 41 42 48 57 58 57 57 57 56 57 57 56 56 55 53 48 44 49 57 58 58 58 59 59 58 52 56 58 57 56 55 54 53 52 52 52 52 53 53 54 48 44
36 38 40 42 44 45 52 56 53 51 51 50 49 49 47 46 38 39 43 53 56 58 57 58 59 51 49 46 47 47 53 55 54 53 53 52 52 53 51 52 51 46 43
34 36 37 38 38 38 40 41 42 42 41 40 41 41 40 38 37 39 41 47 46 44 47 54 51 47 44 42 38 37 36 36 42 54 53 51 50 49 48 46 46 46 40
31 32 34 36 35 35 35 35 35 36 36 36 36 37 37 37 36 38 38 40 38 38 38 40 45 44 43 42 38 35 34 34 34 36 40 36 34 38 43 44 41 32 33
29 29 30 33 34 33 32 32 32 33 33 33 34 34 34 34 36 36 37 37 35 34 35 37 38 38 38 40 37 33 32 32 34 35 35 35 35 36 38 39 34 36 30
27 28 29 30 31 31 31 31 32 32 31 32 32 33 34 33 35 36 36 34 32 33 33 33 34 35 35 36 35 34 32 31 32 31 31 31 31 32 33 33 35 34 30
26 27 28 29 29 29 30 31 31 31 31 31 31 31 32 33 33 35 34 33 32 31 31 32 32 34 34 34 34 33 31 32 30 30 29 28 28 28 28 29 30 32 28
25 25 25 27 28 28 28 28 29 29 29 30 30 30 31 31 33 33 33 32 32 30 29 30 31 33 33 32 32 32 31 30 29 28 27 27 26 26 27 27 27 28 28
25 23 24 25 27 27 27 27 27 28 28 28 29 29 29 30 31 32 32 31 30 28 28 29 30 30 29 29 29 29 29 28 26 25 24 23 25 27 28 28 29 31 30
26 24 24 24 24 26 27 27 27 27 27 27 27 27 28 29 29 29 29 28 28 27 26 26 26 26 25 25 25 25 25 25 24 23 23 24 26 25 25 28 27 27 26
26 26 25 25 23 23 24 25 26 27 28 27 27 27 26 26 28 30 28 26 25 25 25 24 23 22 22 22 22 22 23 23 22 23 24 24 24 25 24 26 25 25 22
25 25 24 24 23 23 23 23 27 27 28 29 29 29 28 29 30 30 29 28 27 26 22 20 19 19 19 19 19 19 20 20 21 22 22 22 22 22 22 23 23 22 20
22 24 23 23 21 20 19 18 17 22 26 27 27 28 28 27 28 28 27 27 26 24 20 19 18 18 18 18 18 18 17 18 19 18 18 19 20 20 19 19 19 20 19
20 18 19 20 18 16 14 14 15 15 15 16 22 23 26 26 26 25 25 23 19 20 18 17 17 17 17 16 16 15 15 15 15 15 15 15 16 17 16 16 17 16 18
20 17 15 14 15 14 13 13 13 13 13 14 15 17 18 22 22 21 21 16 15 15 16 15 16 16 15 14 13 12 11 11 11 11 11 12 12 14 13 14 15 14 15
12 15 13 12 11 10 10 10 11 11 12 11 11 11 14 13 10 10 11 11 12 12 13 13 13 13 13 12 10 10 9 9 9 9 7 7 8 10 9 11 11 11 12
9 12 11 12 11 11 10 10 10 8 8 9 8 5 9 10 8 7 9 8 9 9 9 10 9 9 10 8 8 4 3 2 3 5 5 5 1 6 8 8 9 10 11
12 13 14 13 12 9 11 11 7 6 7 6 3 4 4 4 6 6 5 2 2 6 6 6 7 7 6 5 4 -1 -3 -5 -4 -3 -0 -0 2 0 2 2 1 0 5
11 9 11 12 13 8 6 9 4 0 -1 -3 -1 2 1 -6 -6 -1 -3 -9 -1 -3 -2 0 1 2 -0 -3 -2 -2 -2 -5 -7 -10 -10 -7 -3 -4 -6 -5 -4 -5 -5
8 5 10 7 7 6 -2 -4 4 7 7 1 -6 -6 -6 -10 -13 -11 -13 -14 -11 -13 -13 -10 -3 -2 -3 -11 -11 -5 -3 -11 -10 -12 -16 -13 -8 -5 -8 -6 -6 -10 -10
-2 -4 -4 -4 -7 -8 -5 3 -2 -3 -1 -1 -1 -1 3 -0 -4 -12 -15 -14 -11 -13 -8 -10 -9 -7 -9 -10 -8 -5 -7 -9 -14 -13 -14 -14 -13 -13 -11 -9 -11 -7 -10
1 1 -0 -3 -5 -9 -10 -11 -11 -13 -11 -8 -7 -6 -1 -0 -2 -11 -11 -11 -9 -9 -9 -10 -8 -7 -8 -8 -7 -7 -10 -10 -14 -15 -19 -13 -14 -14 -14 -13 -10 -10 -7

GFSGL_sfc_temp_108.txt.gz
Temp
48 51 59 61 61 61 61 61 61 60 60 60 61 60 60 60 60 60 61 61 60 61 61 61 61 61 60 59 59 58 58 56 56 56 57 57 58 59 59 59 59 59 58
47 51 59 59 60 60 59 59 59 59 59 59 59 59 59 59 59 60 60 60 60 60 61 60 60 60 60 59 58 57 57 57 54 53 54 55 55 58 59 57 58 59 55
45 46 49 52 59 58 58 58 58 58 58 58 58 57 57 57 57 57 57 57 58 59 60 60 60 60 59 58 57 58 59 59 57 54 53 55 55 57 56 56 56 50 49
42 43 43 45 52 58 58 58 58 58 57 56 57 56 56 56 55 54 54 54 56 58 59 60 61 60 60 59 58 58 58 57 56 56 53 53 54 55 57 55 52 50 46
39 38 39 41 43 46 53 56 56 56 56 57 56 56 54 51 45 44 48 50 53 55 58 59 60 59 54 57 59 58 58 56 55 55 54 53 53 53 54 55 53 48 44
35 36 37 38 38 39 40 42 43 43 45 47 47 47 44 45 37 39 40 51 51 48 52 57 59 52 50 47 47 49 55 57 55 55 55 54 54 54 52 54 49 46 44
31 32 34 34 33 36 37 36 36 36 37 37 38 40 38 38 37 39 38 46 44 42 43 45 50 50 50 48 40 39 38 39 48 57 55 55 52 53 53 50 50 48 45
30 30 31 32 32 34 34 33 34 34 33 34 34 35 36 36 36 37 37 40 38 37 37 40 42 41 39 43 40 36 34 34 35 38 45 38 37 44 52 51 48 34 33
27 28 30 31 30 31 32 32 32 32 32 32 32 33 33 34 36 36 37 37 35 34 35 36 37 37 37 40 37 34 33 32 34 34 34 35 35 36 38 42 37 39 32
25 27 29 30 30 29 30 31 32 32 31 32 31 32 32 32 34 36 35 34 32 32 33 33 34 35 35 36 36 36 33 32 32 32 32 31 32 32 33 33 36 39 32
25 27 27 28 29 30 30 30 31 31 31 31 30 31 31 31 32 33 33 32 31 30 30 30 32 34 34 34 34 33 32 32 31 30 28 28 28 28 28 29 30 32 30
25 24 25 27 27 28 29 29 30 30 30 29 29 29 30 30 31 32 31 31 31 28 28 29 30 32 32 32 31 31 31 31 30 28 26 25 25 25 26 26 26 27 27
25 23 23 23 24 27 26 27 28 29 28 28 28 27 28 29 29 30 30 29 28 27 27 28 28 29 29 28 29 29 28 28 27 25 24 24 25 26 27 28 29 29 29
25 24 23 23 22 24 25 26 26 26 25 25 26 26 26 27 28 28 27 26 26 26 25 25 25 25 24 24 25 25 25 25 25 24 23 24 25 25 25 26 25 26 25
24 22 21 21 20 20 23 24 24 26 27 25 24 25 25 24 27 29 28 26 24 24 24 23 22 22 21 21 21 21 22 23 23 23 23 23 23 23 23 25 24 23 20
21 21 19 19 18 18 17 17 26 27 28 28 29 27 25 28 28 28 28 27 26 25 22 19 18 19 18 19 18 18 19 19 21 22 22 22 21 21 22 23 23 22 19
19 21 19 19 17 16 15 15 13 17 24 25 25 27 27 27 27 27 26 25 25 23 18 18 16 16 17 17 17 16 16 17 19 19 19 20 20 20 20 20 21 21 19
17 15 15 14 12 11 10 11 12 12 10 11 18 20 24 24 24 24 24 22 18 18 17 16 15 15 15 15 14 14 14 14 15 16 16 17 18 18 18 18 18 18 18
17 14 11 9 9 8 9 10 10 10 10 10 11 12 13 20 20 19 19 13 13 13 14 14 14 14 14 13 12 12 11 11 11 11 12 13 14 16 15 16 16 15 16
10 13 10 9 8 7 7 8 8 7 7 7 7 7 10 10 7 7 8 8 9 10 11 11 11 10 10 10 9 9 9 9 9 9 8 9 10 12 12 12 13 13 13
9 11 10 11 10 10 9 8 7 6 5 5 3 -1 3 6 4 4 6 5 5 6 5 8 7 6 7 6 6 4 3 3 5 6 6 6 4 7 9 10 10 11 11
11 12 13 11 11 8 9 9 5 4 5 4 1 2 0 0 2 2 0 -5 -4 2 5 4 4 3 3 3 2 -1 -3 -4 -1 0 2 3 5 5 6 5 5 5 8
9 7 9 10 10 7 3 6 3 -1 -2 -5 -3 1 0 -8 -8 -3 -5 -13 -4 -5 -3 -1 -2 -1 -3 -4 -1 -1 -1 -3 -4 -6 -3 -0 2 2 1 2 3 2 3
7 3 8 4 1 2 -5 -6 -3 4 3 -2 -9 -5 -6 -10 -14 -13 -13 -14 -10 -12 -14 -12 -5 -3 -3 -9 -6 -2 -2 -6 -5 -7 -8 -4 0 0 0 1 1 -2 -1
-2 -5 -4 -5 -9 -10 -11 -7 -6 -9 -7 -6 -5 -4 -0 -5 -4 -12 -15 -13 -10 -13 -8 -9 -8 -6 -8 -9 -6 -4 -7 -11 -11 -11 -7 -6 -5 -5 -3 -2 -3 -0 -3
0 -0 -1 -5 -6 -10 -12 -10 -5 -10 -12 -11 -11 -13 -12 -4 2 -11 -11 -11 -9 -8 -6 -8 -6 -7 -8 -6 -5 -7 -10 -10 -11 -15 -10 -5 -5 -5 -4 -4 -4 -2 -2

GFSGL_sfc_temp_111.txt.gz
Temp
45 48 54 62 64 65 65 68 69 66 65 65 66 67 64 62 63 63 63 62 61 62 62 63 62 63 62 63 63 65 60 59 56 64 59 58 59 59 61 64 67 67 67
45 47 49 53 61 61 61 61 62 62 64 65 64 62 61 61 62 61 60 61 61 62 63 63 62 62 61 63 61 60 61 60 60 56 56 56 57 59 61 63 65 68 69
43 44 45 46 51 59 59 59 60 60 60 60 61 61 60 60 59 59 60 59 60 60 61 61 63 64 61 60 60 59 59 59 59 58 54 56 57 58 58 60 63 63 60
40 40 42 42 45 48 56 57 58 58 58 58 59 58 58 56 54 54 56 56 57 58 60 61 60 60 60 60 60 60 59 57 57 56 55 54 56 56 59 56 52 53 51
36 37 38 40 41 43 43 45 47 46 46 48 52 50 49 45 42 42 49 53 55 57 57 58 60 60 54 56 60 59 59 57 56 55 55 55 54 54 54 57 54 49 47
33 34 36 38 38 37 38 39 40 40 40 40 40 40 39 41 37 38 40 48 53 52 51 53 56 51 50 46 46 48 55 57 56 55 55 54 55 56 56 55 50 46 44
30 31 32 34 34 33 36 36 35 34 36 34 36 36 35 36 36 37 37 45 44 42 43 44 47 50 44 47 40 40 41 43 51 58 56 56 56 56 56 54 51 51 48
29 30 30 31 32 32 33 32 32 33 32 33 33 34 33 34 35 36 37 39 37 36 37 38 40 41 41 42 39 36 34 34 36 40 51 43 42 56 57 56 54 38 35
27 28 30 30 30 31 31 32 32 32 32 32 33 32 31 32 34 35 36 36 34 33 34 35 36 37 36 39 36 34 33 32 34 35 35 35 35 36 40 47 42 42 33
26 27 29 31 30 30 31 31 32 32 31 32 31 31 32 31 33 33 33 33 31 31 32 33 33 34 35 35 38 36 33 32 33 33 33 33 33 33 34 33 41 45 33
27 27 27 29 29 30 31 32 32 32 32 31 30 31 30 30 31 32 32 29 28 28 28 28 30 32 33 33 33 32 31 32 32 32 32 31 29 28 28 29 31 34 33
27 26 26 27 28 29 30 31 31 31 31 31 31 31 32 31 31 31 30 29 29 27 25 27 28 30 30 30 30 31 31 31 30 28 27 25 25 25 25 26 27 27 28
25 24 24 26 27 28 28 28 29 29 29 28 29 28 29 32 32 30 30 29 28 27 27 27 28 28 27 26 28 28 28 28 27 25 24 24 25 26 27 26 26 27 26
23 23 24 23 24 26 28 28 28 27 27 27 26 27 28 29 30 31 31 29 29 28 27 26 26 26 25 24 24 25 25 25 24 24 24 25 26 25 25 26 24 24 23
24 23 23 24 23 24 24 26 26 26 26 26 26 26 26 26 27 29 28 28 28 26 28 27 25 25 23 23 22 22 23 24 24 24 24 23 24 24 24 25 24 23 21
24 24 23 24 24 24 24 24 25 25 26 26 27 27 27 27 28 28 28 27 26 27 26 24 22 22 21 20 20 20 21 22 23 24 24 24 23 23 23 23 24 23 21
23 24 24 24 23 22 22 22 20 23 23 23 23 25 26 25 26 26 26 25 25 26 23 22 21 20 19 19 19 18 18 19 21 22 22 23 23 23 24 23 23 22 21
22 18 22 22 21 21 20 20 20 18 17 18 21 20 22 22 22 22 23 25 23 23 22 20 20 20 19 18 18 18 17 18 18 19 19 20 21 22 21 21 21 20 19
23 22 21 21 20 19 20 20 19 18 17 17 18 19 18 19 20 19 20 19 18 18 19 19 19 19 19 19 17 17 17 16 17 17 18 19 20 21 20 20 20 20 20
20 17 18 21 20 20 20 19 18 18 17 16 15 15 18 18 15 15 15 15 16 16 17 17 17 16 16 16 16 16 17 16 16 17 16 17 19 20 19 19 19 18 18
21 20 16 20 20 20 19 18 18 18 17 16 15 12 10 15 14 13 13 13 14 15 14 15 15 14 15 14 15 14 14 14 14 15 16 16 16 17 18 19 18 18 18
19 20 20 18 19 18 18 18 17 17 16 16 16 15 9 15 14 13 12 11 12 13 14 14 13 13 12 13 12 12 11 10 12 13 14 14 16 16 16 16 16 16 17
18 18 18 18 17 15 16 16 16 16 16 15 14 14 14 13 12 13 11 10 11 11 11 12 11 10 10 9 11 10 9 8 8 9 12 13 14 14 15 14 13 13 13
17 16 16 16 15 15 14 14 14 13 13 14 14 14 14 13 12 11 10 11 11 11 9 9 9 9 8 8 10 10 8 7 8 8 8 12 12 13 13 12 11 9 11
16 16 16 15 13 13 12 13 13 13 13 13 13 13 14 13 13 13 11 11 9 10 9 8 9 6 6 4 4 5 1 0 3 0 9 8 8 8 9 10 10 10 9
16 16 16 15 15 14 14 13 13 13 12 12 12 12 12 12 13 13 12 10 10 11 8 10 8 3 2 6 4 1 0 -0 2 -3 7 9 9 9 10 7 5 10 8

GFSGL_sfc_temp_117.txt.gz
Temp
38 40 42 47 50 54 64 71 75 76 76 75 72 67 67 66 66 66 66 65 65 65 66 65 67 70 68 65 65 68 68 66 60 66 71 72 71 67 65 63 64 62 61
36 39 44 45 47 50 58 71 74 73 74 74 73 71 69 65 65 64 64 64 64 64 64 64 64 66 67 66 64 63 63 64 63 60 67 66 67 70 67 63 61 64 62
36 38 41 41 43 43 45 49 51 65 66 61 63 58 59 61 62 63 63 64 64 64 64 62 65 64 62 62 65 66 66 65 66 63 61 64 64 68 64 62 61 61 62
34 36 38 38 39 40 42 42 45 46 46 46 44 44 44 44 46 51 59 60 60 60 61 61 62 62 61 58 62 62 65 64 61 60 61 60 61 62 63 58 57 59 58
32 33 35 37 38 38 38 38 39 40 40 42 44 43 42 41 42 43 53 56 56 57 54 55 52 48 43 45 52 54 53 54 57 58 58 58 58 56 56 59 57 57 51
32 31 33 34 35 36 35 35 36 36 36 36 38 38 39 40 40 40 46 48 47 45 44 45 49 47 46 43 42 41 41 46 49 53 56 56 57 58 58 56 56 48 45
31 31 32 32 32 32 33 33 32 32 34 33 33 34 33 35 37 37 38 39 38 36 36 39 42 43 41 44 45 42 39 36 36 39 43 49 51 55 57 56 55 52 53
32 31 32 32 32 32 32 32 31 31 31 31 31 32 31 33 34 34 34 34 33 33 33 34 35 36 36 37 43 44 39 38 37 37 36 34 34 35 38 54 57 54 40
30 31 32 32 31 31 31 31 32 32 31 31 31 31 30 31 33 33 33 32 31 30 31 32 33 33 34 36 40 38 34 33 35 36 35 35 34 35 35 42 50 43 34
30 31 33 34 32 32 32 32 32 32 32 32 31 32 32 31 32 32 31 30 28 29 31 31 32 32 33 33 32 33 32 31 31 32 31 32 32 31 33 33 35 45 35
30 32 31 32 31 32 32 33 33 33 33 33 32 31 31 31 32 33 32 30 29 28 27 27 28 31 31 32 31 30 29 31 30 29 29 29 29 30 29 30 31 32 35
30 30 31 30 31 31 29 31 31 31 31 31 32 32 32 32 32 32 33 32 32 30 29 30 30 31 30 30 29 30 30 30 29 27 26 25 25 26 28 29 29 29 31
30 29 30 31 29 30 29 26 27 29 29 29 29 30 31 31 31 31 32 32 32 32 32 32 33 33 33 32 31 30 30 29 27 25 24 24 25 26 28 28 29 29 28
30 31 31 30 31 29 30 29 25 24 25 25 26 24 27 28 28 29 30 31 31 32 33 33 33 32 33 33 32 32 32 31 29 28 27 27 27 26 25 27 26 27 25
32 31 32 33 31 32 27 27 27 25 25 24 24 26 22 22 25 28 29 29 31 31 33 32 31 31 30 31 31 31 31 31 30 31 31 31 30 29 27 27 26 26 24
32 33 32 33 33 33 32 31 29 28 27 26 26 25 25 26 26 28 30 30 30 32 31 28 27 27 27 27 27 27 28 28 28 29 30 31 29 29 28 28 27 26 24
31 32 33 32 32 31 30 30 28 31 31 28 26 26 26 26 26 27 29 31 30 31 28 28 27 27 27 27 27 26 25 26 28 28 28 28 30 29 28 27 26 24 23
29 29 31 31 30 30 30 29 29 27 26 27 28 26 26 27 26 26 27 29 28 29 27 26 25 26 26 27 26 26 26 26 26 26 26 26 27 27 26 26 25 23 23
28 28 29 30 29 29 29 29 29 28 27 27 28 25 24 26 27 26 26 24 23 24 25 26 25 25 25 25 24 24 25 25 26 26 25 26 26 26 25 25 24 22 22
29 26 28 29 28 28 28 28 27 27 27 26 26 22 23 25 24 23 23 22 21 22 22 23 24 23 22 22 23 23 24 24 24 24 24 24 25 27 26 26 26 25 24
29 29 27 28 28 27 26 26 26 26 25 25 25 23 20 22 22 22 22 20 19 20 19 20 21 20 20 20 21 20 20 20 21 22 22 23 24 24 26 26 26 25 26
29 28 28 27 27 25 26 26 26 24 24 23 23 24 22 23 22 21 21 19 19 19 19 19 18 19 18 18 18 17 17 17 17 17 20 22 23 24 24 24 24 24 24
28 27 27 28 26 25 25 24 24 23 23 22 22 21 21 20 20 20 19 19 19 18 19 18 17 15 17 17 17 17 14 13 15 15 16 19 20 20 22 21 21 21 20
27 26 26 26 25 24 23 22 23 22 22 21 20 20 20 20 20 20 19 19 18 18 18 17 16 15 13 13 14 15 12 10 13 14 16 17 18 18 20 20 19 17 18
26 24 24 24 23 22 22 22 22 21 21 21 20 20 21 20 20 20 20 19 18 17 17 17 17 15 14 13 12 10 8 7 8 8 14 17 15 16 15 17 16 18 16
25 24 24 23 22 22 21 21 21 21 20 20 21 20 20 20 20 19 18 18 18 17 17 17 17 15 15 15 13 9 7 7 8 8 12 15 14 15 14 15 14 17 15

GFSGL_sfc_temp_123.txt.gz
Temp
34 35 37 39 41 42 43 45 46 48 49 51 52 53 57 61 62 60 62 65 65 64 64 64 65 66 65 64 64 62 60 59 58 58 60 60 60 61 60 60 60 60 60
34 35 35 37 39 40 39 41 43 44 49 52 54 54 58 56 57 57 58 62 58 63 63 64 64 65 64 64 62 62 62 60 57 57 58 58 58 59 61 59 59 61 61
33 33 34 35 35 36 37 38 39 40 41 43 44 43 44 45 47 50 57 60 63 64 64 63 64 64 63 63 60 59 58 59 58 57 58 58 58 59 57 58 58 59 61
32 32 32 33 34 34 36 36 36 37 37 37 38 39 39 39 42 46 53 61 63 62 58 56 52 53 58 60 60 59 57 57 57 57 56 57 57 58 58 58 57 59 59
31 30 31 32 34 34 34 34 35 35 35 36 35 35 37 37 37 39 43 44 44 45 45 42 41 42 42 43 51 51 53 52 51 53 52 54 54 55 54 56 56 56 58
29 28 30 31 32 32 33 32 32 32 32 32 33 33 33 33 35 35 35 34 37 38 38 37 39 39 41 39 38 38 37 46 47 48 49 49 50 47 42 44 48 53 53
28 29 28 29 29 30 32 32 30 30 30 30 30 31 31 32 33 33 34 32 32 33 33 34 35 37 39 42 38 37 35 35 35 39 41 38 38 35 35 37 41 42 46
27 27 28 26 27 28 29 29 30 29 28 28 28 29 31 32 33 33 33 31 31 31 31 31 32 32 34 38 37 34 32 33 32 33 32 31 32 33 33 35 35 36 38
27 26 28 26 25 25 26 27 27 28 27 26 26 27 27 30 34 33 32 31 30 30 31 32 31 31 33 33 32 31 30 29 32 33 33 33 33 33 33 33 31 31 34
26 26 27 27 25 23 24 24 26 25 25 25 24 25 28 26 32 33 32 31 30 30 31 31 32 32 32 32 29 28 26 26 28 28 28 29 30 30 31 29 28 28 31
25 27 26 26 25 24 24 24 24 25 24 23 23 23 24 27 28 32 33 30 30 29 29 30 31 33 33 33 32 30 28 28 27 27 27 27 28 28 28 29 28 26 26
21 22 24 24 24 23 22 22 22 22 21 21 21 22 23 25 30 31 32 32 32 28 27 29 30 32 32 32 30 31 31 30 29 28 27 26 26 26 27 28 29 28 28
23 21 19 22 22 22 20 20 21 20 19 19 19 19 20 23 25 30 31 31 30 28 28 30 31 30 30 28 30 29 28 27 27 27 26 26 27 28 28 28 29 29 29
22 21 22 18 20 19 20 21 20 19 19 19 18 19 20 21 23 26 26 26 27 27 26 26 26 28 26 26 26 26 25 25 25 24 24 27 28 27 26 26 22 24 24
22 23 22 25 21 18 21 20 21 23 23 20 19 20 20 19 23 28 28 25 25 25 23 23 22 22 21 21 22 23 24 24 23 24 24 24 25 25 24 25 24 21 20
25 25 23 24 23 24 22 22 29 28 28 28 28 25 22 28 28 27 28 28 27 26 20 17 16 17 17 18 18 19 21 21 22 23 23 23 23 22 22 23 22 19 19
23 25 24 24 23 22 22 21 17 19 28 27 26 27 28 28 27 26 25 24 24 22 16 15 13 14 15 16 17 17 17 18 21 20 20 20 22 23 21 21 21 20 19
21 19 19 20 17 18 16 17 17 17 15 13 22 24 26 26 26 24 23 20 15 16 15 14 13 13 14 14 14 14 15 15 15 16 17 17 18 20 19 20 19 17 19
23 17 15 14 14 14 14 14 14 13 12 10 10 16 15 24 24 22 21 12 11 11 12 12 13 13 12 13 11 11 12 11 10 10 11 13 15 17 17 17 16 16 17
14 16 13 12 13 13 13 14 14 13 11 10 11 9 15 15 12 7 1 -2 2 9 7 11 12 11 8 9 10 8 9 8 8 8 8 9 12 15 15 15 13 9 16
12 16 14 15 13 13 12 11 13 12 10 10 8 4 8 9 5 4 7 2 2 4 1 4 2 -0 1 3 9 5 3 1 2 4 6 8 10 12 15 14 15 14 14
16 18 19 16 17 13 14 17 13 12 12 10 8 9 9 5 6 6 5 3 1 3 5 3 3 4 2 2 3 -6 -7 -10 -4 1 2 4 6 11 12 12 9 8 11
16 13 15 16 15 13 11 13 10 10 11 7 7 12 12 6 3 5 4 2 4 1 1 3 -3 3 -0 -4 -4 -3 -5 -5 -3 -7 -3 2 4 8 8 8 4 2 3
14 10 15 11 8 10 6 6 6 9 10 9 6 4 3 7 7 8 8 0 1 -2 -3 -1 -0 5 2 -4 -8 -4 -1 -7 -7 -6 -2 2 4 8 6 7 8 1 -1
9 7 6 6 4 4 1 3 4 3 2 3 10 10 12 10 9 7 12 13 12 -2 2 -1 -1 4 2 -2 -2 -1 -4 -4 -8 -8 -3 1 1 -0 3 2 4 5 -3
10 10 8 8 6 3 3 6 4 -1 0 7 9 8 7 9 10 7 6 8 9 12 8 1 2 4 2 1 1 -0 -4 -4 -7 -6 -8 -3 -6 -4 -1 -0 2 7 2

GFSGL_sfc_temp_126.txt.gz
Temp
34 34 35 36 37 39 40 40 41 43 44 47 50 50 50 52 52 54 58 61 61 60 60 60 61 63 63 60 61 64 63 59 57 57 58 58 60 61 61 60 61 60 60
33 34 34 35 35 36 36 38 39 39 40 41 42 43 45 46 49 50 53 59 60 59 58 62 63 64 63 62 61 63 63 61 58 59 56 56 58 61 61 59 60 61 61
31 31 32 33 34 33 34 35 37 37 38 38 39 39 39 40 45 48 50 54 55 55 55 57 59 58 60 63 63 63 62 61 59 56 56 57 57 57 58 58 59 59 60
29 29 29 30 32 32 33 34 34 35 35 36 36 37 37 38 39 41 42 44 43 43 43 42 43 46 53 63 63 62 61 60 59 58 55 54 56 56 56 56 56 58 58
27 27 26 28 31 32 32 31 31 31 32 34 34 35 36 36 36 37 38 37 38 38 39 40 40 40 40 41 54 50 58 59 57 56 54 54 55 55 54 53 55 55 57
26 26 26 27 28 29 30 30 29 29 29 29 31 32 32 33 35 35 36 35 35 34 34 36 38 39 40 37 37 38 38 45 50 51 51 50 46 43 42 43 45 48 50
25 26 25 25 25 27 27 28 27 26 26 27 27 29 31 32 34 34 34 32 32 32 32 33 33 35 36 37 36 35 34 34 34 41 39 35 36 34 36 38 41 41 43
26 25 25 23 22 24 25 24 25 24 24 24 26 27 29 31 33 33 32 31 31 31 31 31 31 32 32 33 33 32 30 32 32 33 31 31 31 32 32 34 35 35 35
25 25 25 24 22 21 21 22 23 23 22 22 24 26 26 30 34 34 32 31 30 30 30 31 31 31 33 33 30 29 28 28 31 32 33 32 32 32 32 33 30 31 33
23 25 26 26 23 21 20 21 22 22 22 23 22 24 29 27 33 34 31 30 28 28 29 30 31 30 32 31 29 29 27 26 27 28 29 29 30 30 31 29 28 28 29
20 24 24 24 23 23 23 22 22 22 22 22 22 23 24 28 29 32 32 28 27 27 26 26 28 31 31 30 30 27 27 29 29 29 28 28 28 28 28 29 28 26 25
15 15 18 19 21 21 21 22 22 21 21 21 21 22 24 25 30 30 30 30 29 25 24 25 27 30 29 29 27 29 29 27 27 27 26 25 25 26 26 27 29 29 28
19 16 10 14 18 17 19 20 20 20 20 20 20 20 20 23 25 28 29 28 27 23 24 26 27 27 27 25 28 27 25 24 24 23 23 24 25 26 26 26 27 26 27
21 20 21 18 18 16 19 21 21 20 19 19 19 19 19 20 22 23 23 23 22 21 21 21 22 23 21 21 21 22 22 22 22 22 22 24 25 25 24 25 23 23 22
21 21 21 22 20 20 22 22 21 23 23 20 20 20 19 18 20 25 23 21 20 20 18 17 16 16 15 16 17 18 18 19 19 20 20 21 23 23 22 23 23 21 18
24 23 20 20 20 20 18 18 27 27 27 27 28 25 20 25 25 25 24 24 23 21 15 12 10 11 11 12 13 13 15 14 15 17 17 18 18 21 21 22 22 20 18
22 24 22 21 21 19 18 16 11 16 25 26 25 27 26 26 25 24 22 21 21 17 11 11 9 9 10 10 10 11 10 11 12 12 13 13 16 18 18 19 18 18 18
19 15 16 14 13 12 8 11 9 10 9 8 18 22 25 24 24 22 21 18 12 13 11 9 8 8 9 9 9 8 9 8 8 8 8 9 10 14 15 16 16 10 14
21 13 10 8 7 8 8 10 9 8 5 4 7 11 11 23 21 20 18 7 7 8 10 9 8 7 8 8 6 3 1 2 2 2 5 7 7 11 13 14 13 11 12
12 13 9 9 9 9 8 10 10 9 8 7 7 4 10 11 1 -2 -4 -7 -2 4 3 7 7 5 0 2 -2 -9 -2 -1 -0 1 1 3 4 8 10 12 12 9 12
9 13 11 13 13 12 12 12 12 10 9 10 6 2 5 7 4 3 4 -2 -1 2 -2 2 -0 -4 -4 -3 2 -5 -6 -9 -4 -2 -1 2 2 4 10 11 9 11 12
14 15 16 14 15 11 12 14 10 10 11 11 8 9 7 4 10 7 7 0 -1 1 2 0 1 2 1 0 -2 -13 -11 -14 -11 -5 -4 -1 2 4 7 8 5 2 7
13 11 14 14 13 9 7 9 6 5 4 4 8 10 10 8 7 7 7 11 9 1 -0 -0 -6 -1 -1 -5 -7 -6 -7 -7 -7 -12 -10 -2 2 4 5 4 6 2 -1
12 8 12 7 5 5 1 -3 -1 4 4 3 2 5 7 7 3 3 6 7 8 9 6 1 -3 1 2 -6 -12 -8 -2 -8 -10 -9 -14 -5 1 2 2 3 3 1 -4
5 3 2 0 -2 -5 -6 -4 -4 -5 -3 -3 -1 1 5 5 2 -3 -2 1 4 5 7 10 8 4 2 1 -4 -2 -5 -5 -10 -10 -12 -10 -9 -8 -3 1 -1 5 -5
7 6 4 2 -2 -5 -7 -9 -10 -9 -4 0 -3 -5 -5 2 4 -9 -4 -1 1 2 4 7 7 7 7 1 -0 -1 -6 -5 -8 -9 -14 -9 -12 -9 -8 -3 0 1 0

GFSGL_sfc_temp_129.txt.gz
Temp
31 32 32 32 34 35 35 36 37 39 39 40 41 42 47 49 50 51 51 52 52 57 60 60 58 59 58 59 60 61 61 61 58 61 58 59 59 61 61 61 61 60 59
30 30 30 31 34 33 33 34 36 36 38 38 39 39 40 42 45 48 51 54 54 56 60 57 57 58 57 58 59 59 59 59 59 59 60 56 58 60 61 60 61 61 61
28 28 28 28 31 31 31 32 32 34 35 36 36 36 36 38 40 43 45 47 45 45 46 46 46 53 57 58 59 59 59 59 59 59 61 58 58 57 59 59 59 60 61
27 26 26 26 28 29 30 29 30 32 32 34 35 35 35 36 37 39 39 40 40 41 41 41 40 39 43 44 52 59 60 58 59 59 60 57 56 56 58 58 56 58 57
25 24 24 25 27 27 28 28 28 28 30 31 33 33 34 35 35 35 36 36 36 37 37 39 40 39 38 38 41 38 41 56 60 59 58 57 56 55 56 55 55 55 56
24 23 23 24 24 26 25 26 26 26 27 28 29 30 31 32 34 34 34 33 33 33 33 34 36 37 37 36 36 35 34 37 36 41 57 55 49 45 43 46 48 51 51
25 23 22 22 21 22 24 23 23 23 25 26 27 29 29 31 33 33 32 31 30 30 30 31 32 34 35 36 35 34 33 33 34 34 32 31 32 32 36 40 41 42 44
25 24 23 21 20 20 21 21 21 22 23 23 25 27 29 31 32 32 31 29 28 29 29 29 29 30 32 33 32 31 30 31 31 32 31 30 31 32 32 33 34 34 35
23 24 24 23 21 19 19 19 20 21 21 22 24 26 25 28 33 31 30 28 27 26 27 29 28 28 31 32 30 29 28 28 32 33 33 32 32 32 31 32 30 32 33
21 23 24 25 22 20 19 19 21 21 21 22 23 24 28 24 32 31 28 26 25 25 26 26 30 29 30 30 27 27 26 27 28 28 28 29 29 29 31 29 28 27 28
19 22 21 21 22 21 21 21 21 21 22 21 21 22 23 25 26 30 29 24 23 23 22 22 25 29 29 29 28 25 25 27 27 27 27 27 27 27 27 27 28 27 25
14 15 16 16 18 18 19 19 20 20 20 21 20 20 22 23 27 27 27 26 24 21 20 21 23 26 26 27 24 26 26 25 24 24 24 23 23 23 25 26 27 27 28
15 13 9 13 15 14 16 18 18 19 19 19 19 18 18 21 21 25 25 24 22 18 19 21 23 23 22 21 23 22 20 20 20 19 19 21 23 24 25 25 26 26 27
14 14 16 14 16 17 17 19 18 18 18 17 17 16 16 17 19 19 19 18 18 16 16 15 16 18 15 15 16 17 16 16 16 16 16 19 22 23 23 24 23 23 21
19 18 18 20 14 14 18 21 19 20 23 18 15 17 15 15 18 22 21 17 16 16 13 12 11 11 10 10 12 12 12 12 11 13 13 14 16 19 20 22 21 20 16
22 21 18 19 18 18 14 14 25 26 27 27 27 22 15 24 24 24 23 22 20 19 11 7 6 7 7 8 7 8 9 8 8 10 9 11 12 14 16 18 18 17 16
20 22 19 20 18 15 13 14 8 12 23 25 25 26 25 24 24 23 22 20 20 16 7 5 3 4 6 7 6 5 4 5 7 6 6 7 8 10 13 15 15 14 15
17 13 13 11 8 7 3 6 4 3 1 5 16 21 24 23 23 22 20 17 10 11 9 6 4 5 6 6 5 3 2 1 1 2 3 3 4 6 9 11 12 9 11
19 10 7 5 3 4 6 7 6 5 2 2 5 10 9 21 20 18 16 1 1 5 8 8 3 5 6 6 -2 -4 -11 -4 -4 -6 -1 0 1 4 7 9 10 9 9
7 8 7 7 8 7 7 8 9 7 7 5 7 7 9 9 0 -1 -5 -10 -4 2 1 6 6 3 -1 1 -6 -12 -5 -7 -2 -2 -3 -3 -2 1 4 7 8 7 9
8 10 10 12 11 10 9 9 10 8 8 8 5 1 6 8 9 6 7 7 5 3 -2 1 -0 -4 -5 -5 1 -7 -7 -9 -6 -4 -4 -2 -3 0 4 5 7 7 8
13 14 14 12 12 8 9 10 6 6 7 6 5 7 5 5 5 6 7 5 7 7 7 5 2 1 0 -0 -3 -14 -12 -15 -10 -8 -8 -4 -1 1 3 3 3 4 4
12 10 12 12 11 6 4 6 2 1 0 -1 1 5 6 2 -2 1 1 1 4 4 6 7 4 3 3 -5 -9 -7 -8 -6 -6 -14 -14 -9 -3 -1 -1 0 2 3 1
12 7 11 4 2 1 -6 -9 -7 -1 -0 -3 -6 -3 -2 0 -11 -9 -7 -3 -0 0 2 5 7 6 5 4 -7 -8 -2 -8 -11 -11 -16 -14 -5 -3 -5 -1 0 1 3
4 0 -0 -1 -5 -9 -11 -9 -12 -13 -10 -11 -11 -10 -4 -1 1 -9 -9 -7 -4 -4 -2 0 3 3 5 2 4 3 -4 -4 -10 -11 -13 -13 -13 -11 -10 -5 -2 1 -1
6 5 1 -1 -6 -10 -13 -15 -15 -15 -15 -15 -17 -15 -13 -8 -4 -12 -9 -7 -5 -5 -5 -2 -2 -3 -1 3 4 7 1 -7 -10 -10 -15 -11 -13 -11 -10 -7 -3 0 1